Wetterdaten: aktuell Sonntag, 25.08.2019 20:40
Datum Zeit Temp. A. Feuchte A. Luftdruck Regen Wind Richtung Richtung Sonnenschein UV Solar Taupunkt Windchill Windben Empfang
25.08.2019 20:40 20,4 C 81 % 1020,6 hPa 0,0 l/m 8,6 kts (3 Bft) O-NO 59 0 min 0,0 UV-I 0 W/m 17,0 C 17,5 C 9,6 kts (3 Bft) 100,00 %
25.08.2019 20:39 20,4 C 81 % 1020,5 hPa 0,0 l/m 8,6 kts (3 Bft) O-NO 57 0 min 0,0 UV-I 0 W/m 17,0 C 17,5 C 9,6 kts (3 Bft) 100,00 %
25.08.2019 20:38 20,5 C 81 % 1020,5 hPa 0,0 l/m 8,6 kts (3 Bft) O-NO 71 0 min 0,0 UV-I 0 W/m 17,1 C 17,6 C 9,6 kts (3 Bft) 100,00 %
25.08.2019 20:37 20,4 C 81 % 1020,5 hPa 0,0 l/m 8,2 kts (3 Bft) O-NO 63 0 min 0,0 UV-I 0 W/m 17,0 C 17,7 C 10,4 kts (3 Bft) 100,00 %
25.08.2019 20:36 20,4 C 82 % 1020,5 hPa 0,0 l/m 9,6 kts (3 Bft) O-NO 60 0 min 0,0 UV-I 0 W/m 17,2 C 17,1 C 10,4 kts (3 Bft) 100,00 %
25.08.2019 20:35 20,3 C 82 % 1020,4 hPa 0,0 l/m 9,2 kts (3 Bft) O-NO 63 0 min 0,0 UV-I 0 W/m 17,1 C 17,2 C 10,4 kts (3 Bft) 100,00 %
25.08.2019 20:34 20,3 C 82 % 1020,5 hPa 0,0 l/m 7,9 kts (3 Bft) O-NO 57 0 min 0,0 UV-I 0 W/m 17,1 C 17,7 C 8,7 kts (3 Bft) 100,00 %
25.08.2019 20:33 20,2 C 82 % 1020,5 hPa 0,0 l/m 8,1 kts (3 Bft) O-NO 57 0 min 0,0 UV-I 0 W/m 17,0 C 17,5 C 9,6 kts (3 Bft) 100,00 %
25.08.2019 20:32 20,2 C 82 % 1020,4 hPa 0,0 l/m 9,9 kts (3 Bft) O-NO 59 0 min 0,0 UV-I 0 W/m 17,0 C 16,8 C 11,3 kts (4 Bft) 100,00 %
25.08.2019 20:31 20,2 C 82 % 1020,4 hPa 0,0 l/m 8,7 kts (3 Bft) O-NO 60 0 min 0,0 UV-I 0 W/m 17,0 C 17,2 C 10,4 kts (3 Bft) 100,00 %
25.08.2019 20:30 20,2 C 82 % 1020,3 hPa 0,0 l/m 9,4 kts (3 Bft) O-NO 57 0 min 0,0 UV-I 0 W/m 17,0 C 16,9 C 11,3 kts (4 Bft) 100,00 %
25.08.2019 20:29 20,2 C 82 % 1020,4 hPa 0,0 l/m 8,6 kts (3 Bft) O-NO 58 0 min 0,0 UV-I 0 W/m 17,0 C 17,3 C 9,6 kts (3 Bft) 100,00 %
25.08.2019 20:28 20,2 C 82 % 1020,4 hPa 0,0 l/m 8,2 kts (3 Bft) O-NO 57 0 min 0,0 UV-I 0 W/m 17,0 C 17,4 C 9,6 kts (3 Bft) 100,00 %
25.08.2019 20:27 20,3 C 81 % 1020,4 hPa 0,0 l/m 7,6 kts (3 Bft) O-NO 57 0 min 0,0 UV-I 0 W/m 16,9 C 17,8 C 9,6 kts (3 Bft) 100,00 %
25.08.2019 20:26 20,4 C 81 % 1020,4 hPa 0,0 l/m 5,2 kts (2 Bft) NO 53 0 min 0,0 UV-I 0 W/m 17,0 C 19,2 C 5,2 kts (2 Bft) 98,75 %
25.08.2019 20:25 20,5 C 81 % 1020,4 hPa 0,0 l/m 6,1 kts (2 Bft) NO 50 0 min 0,0 UV-I 0 W/m 17,1 C 18,8 C 6,1 kts (2 Bft) 98,93 %
25.08.2019 20:23 20,6 C 81 % 1020,2 hPa 0,0 l/m 5,7 kts (2 Bft) NO 50 0 min 0,0 UV-I 0 W/m 17,2 C 19,1 C 6,1 kts (2 Bft) 100,00 %
25.08.2019 20:22 20,7 C 80 % 1020,3 hPa 0,0 l/m 5,9 kts (2 Bft) NO 48 0 min 0,0 UV-I 0 W/m 17,1 C 19,1 C 7,8 kts (3 Bft) 100,00 %
25.08.2019 20:21 20,7 C 80 % 1020,3 hPa 0,0 l/m 5,8 kts (2 Bft) NO 51 0 min 0,0 UV-I 0 W/m 17,1 C 19,2 C 8,7 kts (3 Bft) 100,00 %
25.08.2019 20:20 20,8 C 80 % 1020,2 hPa 0,0 l/m 5,3 kts (2 Bft) NO 52 0 min 0,0 UV-I 0 W/m 17,2 C 19,6 C 6,1 kts (2 Bft) 100,00 %
25.08.2019 20:19 20,9 C 80 % 1020,2 hPa 0,0 l/m 7,4 kts (3 Bft) NO 52 0 min 0,0 UV-I 0 W/m 17,3 C 18,6 C 9,6 kts (3 Bft) 100,00 %
25.08.2019 20:18 20,9 C 80 % 1020,2 hPa 0,0 l/m 6,6 kts (3 Bft) O-NO 58 0 min 0,0 UV-I 0 W/m 17,3 C 19,0 C 7,8 kts (3 Bft) 100,00 %
25.08.2019 20:17 20,9 C 80 % 1020,1 hPa 0,0 l/m 5,9 kts (2 Bft) NO 50 0 min 0,0 UV-I 0 W/m 17,3 C 19,3 C 7,8 kts (3 Bft) 96,15 %
25.08.2019 20:16 20,9 C 80 % 1020,1 hPa 0,0 l/m 6,7 kts (3 Bft) NO 53 0 min 0,0 UV-I 0 W/m 17,3 C 18,9 C 8,7 kts (3 Bft) 100,00 %
25.08.2019 20:15 20,9 C 80 % 1020,0 hPa 0,0 l/m 5,1 kts (2 Bft) NO 53 0 min 0,0 UV-I 0 W/m 17,3 C 19,8 C 6,1 kts (2 Bft) 100,00 %
25.08.2019 20:14 20,9 C 80 % 1020,1 hPa 0,0 l/m 6,3 kts (2 Bft) NO 50 0 min 0,0 UV-I 0 W/m 17,3 C 19,2 C 7,8 kts (3 Bft) 100,00 %
25.08.2019 20:13 20,8 C 80 % 1020,0 hPa 0,0 l/m 6,0 kts (2 Bft) NO 52 0 min 0,0 UV-I 0 W/m 17,2 C 19,2 C 7,8 kts (3 Bft) 100,00 %
25.08.2019 20:12 20,8 C 80 % 1020,0 hPa 0,0 l/m 5,9 kts (2 Bft) NO 51 0 min 0,0 UV-I 0 W/m 17,2 C 19,2 C 7,8 kts (3 Bft) 100,00 %
25.08.2019 20:11 20,8 C 80 % 1020,1 hPa 0,0 l/m 6,6 kts (2 Bft) NO 55 0 min 0,0 UV-I 0 W/m 17,2 C 18,9 C 8,7 kts (3 Bft) 100,00 %
25.08.2019 20:10 20,9 C 79 % 1020,0 hPa 0,0 l/m 6,0 kts (2 Bft) NO 50 0 min 0,0 UV-I 0 W/m 17,1 C 19,3 C 7,8 kts (3 Bft) 100,00 %
25.08.2019 20:09 21,0 C 79 % 1020,0 hPa 0,0 l/m 5,7 kts (2 Bft) NO 50 0 min 0,0 UV-I 0 W/m 17,2 C 19,6 C 6,1 kts (2 Bft) 100,00 %
25.08.2019 20:08 21,1 C 79 % 1020,0 hPa 0,0 l/m 6,0 kts (2 Bft) NO 50 0 min 0,0 UV-I 0 W/m 17,3 C 19,5 C 7,8 kts (3 Bft) 100,00 %
25.08.2019 20:07 21,1 C 79 % 1020,0 hPa 0,0 l/m 5,2 kts (2 Bft) NO 49 0 min 0,0 UV-I 0 W/m 17,3 C 19,9 C 6,1 kts (2 Bft) 100,00 %
25.08.2019 20:06 21,1 C 79 % 1020,0 hPa 0,0 l/m 5,4 kts (2 Bft) NO 49 0 min 0,0 UV-I 0 W/m 17,3 C 19,9 C 6,1 kts (2 Bft) 100,00 %
25.08.2019 20:05 21,1 C 79 % 1019,9 hPa 0,0 l/m 5,2 kts (2 Bft) NO 49 0 min 0,0 UV-I 0 W/m 17,3 C 19,9 C 5,2 kts (2 Bft) 98,91 %
25.08.2019 20:04 21,1 C 79 % 1020,0 hPa 0,0 l/m 4,8 kts (2 Bft) NO 51 0 min 0,0 UV-I 0 W/m 17,3 C 20,2 C 5,2 kts (2 Bft) 100,00 %
25.08.2019 20:03 21,1 C 79 % 1020,0 hPa 0,0 l/m 4,9 kts (2 Bft) NO 47 0 min 0,0 UV-I 0 W/m 17,3 C 20,1 C 5,2 kts (2 Bft) 100,00 %
25.08.2019 20:01 21,1 C 79 % 1020,0 hPa 0,0 l/m 5,3 kts (2 Bft) NO 48 0 min 0,0 UV-I 0 W/m 17,3 C 19,9 C 6,1 kts (2 Bft) 100,00 %
25.08.2019 20:00 21,1 C 79 % 1019,9 hPa 0,0 l/m 5,7 kts (2 Bft) NO 48 0 min 0,0 UV-I 0 W/m 17,3 C 19,7 C 6,1 kts (2 Bft) 100,00 %
25.08.2019 19:59 21,2 C 79 % 1019,9 hPa 0,0 l/m 6,1 kts (2 Bft) NO 49 0 min 0,0 UV-I 0 W/m 17,4 C 19,6 C 7,8 kts (3 Bft) 98,91 %
25.08.2019 19:58 21,3 C 79 % 1019,9 hPa 0,0 l/m 5,8 kts (2 Bft) NO 48 0 min 0,0 UV-I 0 W/m 17,5 C 19,8 C 6,1 kts (2 Bft) 100,00 %
25.08.2019 19:57 21,4 C 78 % 1019,9 hPa 0,0 l/m 5,8 kts (2 Bft) NO 46 0 min 0,0 UV-I 0 W/m 17,4 C 20,0 C 6,1 kts (2 Bft) 100,00 %
25.08.2019 19:56 21,4 C 78 % 1019,9 hPa 0,0 l/m 5,1 kts (2 Bft) NO 43 0 min 0,0 UV-I 0 W/m 17,4 C 20,3 C 5,2 kts (2 Bft) 100,00 %
25.08.2019 19:55 21,4 C 78 % 1019,9 hPa 0,0 l/m 5,1 kts (2 Bft) NO 44 0 min 0,0 UV-I 0 W/m 17,4 C 20,3 C 6,1 kts (2 Bft) 100,00 %
25.08.2019 19:54 21,5 C 78 % 1019,9 hPa 0,0 l/m 4,6 kts (2 Bft) NO 44 0 min 0,0 UV-I 0 W/m 17,5 C 20,7 C 5,2 kts (2 Bft) 96,15 %
25.08.2019 19:53 21,6 C 78 % 1019,9 hPa 0,0 l/m 4,6 kts (2 Bft) NO 44 0 min 0,0 UV-I 0 W/m 17,6 C 20,9 C 5,2 kts (2 Bft) 100,00 %
25.08.2019 19:52 21,6 C 78 % 1019,8 hPa 0,0 l/m 4,8 kts (2 Bft) NO 47 0 min 0,0 UV-I 0 W/m 17,6 C 20,7 C 5,2 kts (2 Bft) 100,00 %
25.08.2019 19:51 21,7 C 77 % 1019,8 hPa 0,0 l/m 5,3 kts (2 Bft) NO 47 0 min 0,0 UV-I 0 W/m 17,5 C 20,5 C 6,1 kts (2 Bft) 100,00 %
25.08.2019 19:50 21,7 C 77 % 1019,8 hPa 0,0 l/m 4,9 kts (2 Bft) NO 47 0 min 0,0 UV-I 5 W/m 17,5 C 20,8 C 5,2 kts (2 Bft) 100,00 %
25.08.2019 19:49 21,8 C 77 % 1019,8 hPa 0,0 l/m 5,5 kts (2 Bft) NO 52 0 min 0,0 UV-I 5 W/m 17,6 C 20,6 C 6,1 kts (2 Bft) 100,00 %
25.08.2019 19:48 21,9 C 77 % 1019,9 hPa 0,0 l/m 5,0 kts (2 Bft) NO 54 0 min 0,0 UV-I 5 W/m 17,7 C 21,0 C 6,1 kts (2 Bft) 100,00 %
25.08.2019 19:47 21,9 C 77 % 1019,8 hPa 0,0 l/m 5,2 kts (2 Bft) NO 55 0 min 0,0 UV-I 5 W/m 17,7 C 20,9 C 7,8 kts (3 Bft) 100,00 %
25.08.2019 19:46 21,9 C 76 % 1019,8 hPa 0,0 l/m 5,2 kts (2 Bft) NO 47 0 min 0,0 UV-I 5 W/m 17,5 C 20,8 C 6,1 kts (2 Bft) 100,00 %
25.08.2019 19:45 22,0 C 76 % 1019,9 hPa 0,0 l/m 5,8 kts (2 Bft) NO 51 0 min 0,0 UV-I 7 W/m 17,6 C 20,7 C 7,8 kts (3 Bft) 100,00 %
25.08.2019 19:44 22,0 C 76 % 1019,7 hPa 0,0 l/m 5,3 kts (2 Bft) O-NO 58 0 min 0,0 UV-I 7 W/m 17,6 C 20,9 C 7,8 kts (3 Bft) 100,00 %
25.08.2019 19:43 22,0 C 76 % 1019,7 hPa 0,0 l/m 5,7 kts (2 Bft) O-NO 59 0 min 0,0 UV-I 9 W/m 17,6 C 20,7 C 7,0 kts (3 Bft) 100,00 %
25.08.2019 19:42 22,1 C 76 % 1019,8 hPa 0,0 l/m 4,8 kts (2 Bft) NO 54 0 min 0,0 UV-I 9 W/m 17,7 C 21,3 C 5,2 kts (2 Bft) 96,15 %
25.08.2019 19:41 22,1 C 76 % 1019,7 hPa 0,0 l/m 5,5 kts (2 Bft) NO 53 0 min 0,0 UV-I 11 W/m 17,7 C 20,9 C 7,0 kts (3 Bft) 100,00 %
25.08.2019 19:40 22,1 C 76 % 1019,7 hPa 0,0 l/m 7,5 kts (3 Bft) O-NO 58 0 min 0,0 UV-I 11 W/m 17,7 C 20,0 C 8,7 kts (3 Bft) 96,55 %
25.08.2019 19:39 22,1 C 76 % 1019,6 hPa 0,0 l/m 6,9 kts (3 Bft) O-NO 68 0 min 0,0 UV-I 11 W/m 17,7 C 20,3 C 7,8 kts (3 Bft) 95,65 %
25.08.2019 19:38 22,2 C 75 % 1019,6 hPa 0,0 l/m 6,8 kts (3 Bft) NO 55 0 min 0,0 UV-I 12 W/m 17,5 C 20,4 C 8,7 kts (3 Bft) 100,00 %
25.08.2019 19:37 22,2 C 75 % 1019,6 hPa 0,0 l/m 7,5 kts (3 Bft) NO 42 0 min 0,0 UV-I 12 W/m 17,5 C 20,2 C 8,7 kts (3 Bft) 100,00 %
25.08.2019 19:36 22,3 C 75 % 1019,6 hPa 0,0 l/m 6,0 kts (2 Bft) O-NO 71 0 min 0,0 UV-I 14 W/m 17,6 C 20,9 C 7,8 kts (3 Bft) 100,00 %
25.08.2019 19:35 22,3 C 75 % 1019,6 hPa 0,0 l/m 7,1 kts (3 Bft) O-NO 65 0 min 0,0 UV-I 14 W/m 17,6 C 20,4 C 8,7 kts (3 Bft) 100,00 %
25.08.2019 19:34 22,2 C 75 % 1019,5 hPa 0,0 l/m 7,4 kts (3 Bft) O-NO 67 0 min 0,0 UV-I 14 W/m 17,5 C 20,2 C 9,6 kts (3 Bft) 100,00 %
25.08.2019 19:33 22,2 C 75 % 1019,6 hPa 0,0 l/m 9,2 kts (3 Bft) O-NO 73 0 min 0,0 UV-I 14 W/m 17,5 C 19,5 C 9,6 kts (3 Bft) 96,30 %
25.08.2019 19:32 22,2 C 75 % 1019,5 hPa 0,0 l/m 7,7 kts (3 Bft) O-NO 60 0 min 0,0 UV-I 16 W/m 17,5 C 20,1 C 10,4 kts (3 Bft) 100,00 %
25.08.2019 19:31 22,3 C 75 % 1019,5 hPa 0,0 l/m 8,4 kts (3 Bft) O-NO 63 0 min 0,0 UV-I 16 W/m 17,6 C 19,9 C 9,6 kts (3 Bft) 95,83 %
25.08.2019 19:30 22,3 C 75 % 1019,5 hPa 0,0 l/m 6,9 kts (3 Bft) O-NO 65 0 min 0,0 UV-I 16 W/m 17,6 C 20,5 C 7,8 kts (3 Bft) 96,15 %
25.08.2019 19:29 22,3 C 75 % 1019,5 hPa 0,0 l/m 8,7 kts (3 Bft) O-NO 67 0 min 0,0 UV-I 18 W/m 17,6 C 19,8 C 9,6 kts (3 Bft) 97,56 %
25.08.2019 19:28 22,4 C 75 % 1019,5 hPa 0,0 l/m 6,4 kts (2 Bft) NO 53 0 min 0,0 UV-I 18 W/m 17,7 C 20,8 C 9,6 kts (3 Bft) 98,91 %
25.08.2019 19:27 22,4 C 75 % 1019,4 hPa 0,0 l/m 7,7 kts (3 Bft) O-NO 58 0 min 0,0 UV-I 18 W/m 17,7 C 20,3 C 8,7 kts (3 Bft) 95,12 %
25.08.2019 19:26 22,4 C 75 % 1019,4 hPa 0,0 l/m 6,9 kts (3 Bft) O-NO 63 0 min 0,0 UV-I 19 W/m 17,7 C 20,6 C 8,7 kts (3 Bft) 100,00 %
25.08.2019 19:25 22,5 C 74 % 1019,4 hPa 0,0 l/m 6,4 kts (2 Bft) O 84 0 min 0,0 UV-I 19 W/m 17,6 C 20,9 C 7,8 kts (3 Bft) 100,00 %
25.08.2019 19:24 22,6 C 74 % 1019,3 hPa 0,0 l/m 5,6 kts (2 Bft) NO 54 0 min 0,0 UV-I 19 W/m 17,7 C 21,4 C 7,0 kts (3 Bft) 95,83 %
25.08.2019 19:23 22,6 C 74 % 1019,4 hPa 0,0 l/m 5,4 kts (2 Bft) NO 55 0 min 0,0 UV-I 19 W/m 17,7 C 21,5 C 7,8 kts (3 Bft) 95,65 %
25.08.2019 19:22 22,6 C 74 % 1019,4 hPa 0,0 l/m 6,7 kts (3 Bft) O-NO 62 0 min 0,0 UV-I 21 W/m 17,7 C 20,9 C 7,8 kts (3 Bft) 100,00 %
25.08.2019 19:21 22,7 C 73 % 1019,4 hPa 0,0 l/m 6,4 kts (2 Bft) O-NO 63 0 min 0,0 UV-I 21 W/m 17,6 C 21,2 C 7,8 kts (3 Bft) 95,83 %
25.08.2019 19:20 22,7 C 73 % 1019,4 hPa 0,0 l/m 5,8 kts (2 Bft) O-NO 63 0 min 0,0 UV-I 21 W/m 17,6 C 21,4 C 7,8 kts (3 Bft) 100,00 %
25.08.2019 19:19 22,7 C 73 % 1019,4 hPa 0,0 l/m 6,4 kts (2 Bft) NO 50 0 min 0,0 UV-I 23 W/m 17,6 C 21,2 C 7,8 kts (3 Bft) 95,83 %
25.08.2019 19:18 22,8 C 73 % 1019,3 hPa 0,0 l/m 7,0 kts (3 Bft) O-NO 73 0 min 0,0 UV-I 23 W/m 17,7 C 21,1 C 8,7 kts (3 Bft) 100,00 %
25.08.2019 19:17 22,8 C 73 % 1019,4 hPa 0,0 l/m 6,7 kts (3 Bft) O-NO 61 0 min 0,0 UV-I 23 W/m 17,7 C 21,2 C 8,7 kts (3 Bft) 95,65 %
25.08.2019 19:16 22,8 C 73 % 1019,4 hPa 0,0 l/m 5,6 kts (2 Bft) O-NO 63 0 min 0,0 UV-I 25 W/m 17,7 C 21,7 C 7,8 kts (3 Bft) 100,00 %
25.08.2019 19:15 22,8 C 73 % 1019,4 hPa 0,0 l/m 7,7 kts (3 Bft) O-NO 69 0 min 0,0 UV-I 25 W/m 17,7 C 20,8 C 8,7 kts (3 Bft) 95,65 %
25.08.2019 19:14 22,8 C 73 % 1019,4 hPa 0,0 l/m 5,0 kts (2 Bft) O-NO 63 0 min 0,0 UV-I 26 W/m 17,7 C 21,9 C 8,7 kts (3 Bft) 95,83 %
25.08.2019 19:13 22,8 C 73 % 1019,4 hPa 0,0 l/m 7,1 kts (3 Bft) NO 46 0 min 0,0 UV-I 28 W/m 17,7 C 21,0 C 8,7 kts (3 Bft) 100,00 %
25.08.2019 19:12 22,8 C 73 % 1019,4 hPa 0,0 l/m 6,4 kts (2 Bft) O-NO 78 0 min 0,0 UV-I 28 W/m 17,7 C 21,3 C 8,7 kts (3 Bft) 95,83 %
25.08.2019 19:11 22,9 C 73 % 1019,3 hPa 0,0 l/m 7,6 kts (3 Bft) O-NO 63 0 min 0,0 UV-I 30 W/m 17,8 C 20,9 C 10,4 kts (3 Bft) 100,00 %
25.08.2019 19:10 22,9 C 72 % 1019,4 hPa 0,0 l/m 6,7 kts (3 Bft) O-NO 63 0 min 0,0 UV-I 30 W/m 17,6 C 21,3 C 10,4 kts (3 Bft) 95,65 %
25.08.2019 19:09 22,9 C 73 % 1019,2 hPa 0,0 l/m 7,4 kts (3 Bft) O-NO 78 0 min 0,0 UV-I 32 W/m 17,8 C 21,0 C 9,6 kts (3 Bft) 100,00 %
25.08.2019 19:08 22,9 C 72 % 1019,2 hPa 0,0 l/m 7,2 kts (3 Bft) O-NO 61 0 min 0,0 UV-I 33 W/m 17,6 C 21,1 C 10,4 kts (3 Bft) 100,00 %
25.08.2019 19:07 22,9 C 72 % 1019,2 hPa 0,0 l/m 6,7 kts (3 Bft) O-NO 61 0 min 0,0 UV-I 33 W/m 17,6 C 21,3 C 9,6 kts (3 Bft) 100,00 %
25.08.2019 19:06 22,9 C 72 % 1019,2 hPa 0,0 l/m 7,3 kts (3 Bft) O-NO 71 0 min 0,0 UV-I 35 W/m 17,6 C 21,0 C 8,7 kts (3 Bft) 100,00 %
25.08.2019 19:05 22,9 C 72 % 1019,2 hPa 0,0 l/m 8,1 kts (3 Bft) O-NO 65 0 min 0,0 UV-I 35 W/m 17,6 C 20,8 C 9,6 kts (3 Bft) 100,00 %
25.08.2019 19:04 23,0 C 72 % 1019,2 hPa 0,0 l/m 6,2 kts (2 Bft) O-NO 66 0 min 0,0 UV-I 35 W/m 17,7 C 21,6 C 8,7 kts (3 Bft) 100,00 %
25.08.2019 19:03 23,0 C 72 % 1019,2 hPa 0,0 l/m 7,7 kts (3 Bft) O-NO 67 0 min 0,0 UV-I 37 W/m 17,7 C 21,0 C 9,6 kts (3 Bft) 100,00 %
25.08.2019 19:02 23,0 C 72 % 1019,2 hPa 0,0 l/m 9,7 kts (3 Bft) O-NO 62 0 min 0,0 UV-I 37 W/m 17,7 C 20,4 C 11,3 kts (4 Bft) 100,00 %
25.08.2019 19:01 23,0 C 72 % 1019,2 hPa 0,0 l/m 6,1 kts (2 Bft) O-NO 69 0 min 0,0 UV-I 39 W/m 17,7 C 21,6 C 8,7 kts (3 Bft) 96,15 %
25.08.2019 19:00 23,0 C 72 % 1019,2 hPa 0,0 l/m 6,3 kts (2 Bft) O-NO 61 0 min 0,0 UV-I 39 W/m 17,7 C 21,6 C 8,7 kts (3 Bft) 100,00 %
25.08.2019 18:59 23,1 C 72 % 1019,2 hPa 0,0 l/m 7,5 kts (3 Bft) NO 55 0 min 0,0 UV-I 40 W/m 17,8 C 21,2 C 9,6 kts (3 Bft) 100,00 %
25.08.2019 18:58 23,1 C 72 % 1019,2 hPa 0,0 l/m 5,7 kts (2 Bft) O-NO 74 0 min 0,0 UV-I 40 W/m 17,8 C 21,9 C 9,6 kts (3 Bft) 100,00 %
25.08.2019 18:57 23,1 C 71 % 1019,1 hPa 0,0 l/m 3,9 kts (2 Bft) O-NO 60 0 min 0,0 UV-I 42 W/m 17,5 C 22,8 C 4,3 kts (2 Bft) 100,00 %
25.08.2019 18:56 23,1 C 72 % 1019,1 hPa 0,0 l/m 4,4 kts (2 Bft) O-NO 62 0 min 0,0 UV-I 42 W/m 17,8 C 22,6 C 5,2 kts (2 Bft) 100,00 %
25.08.2019 18:55 23,1 C 71 % 1019,1 hPa 0,0 l/m 3,6 kts (2 Bft) O-NO 63 0 min 0,0 UV-I 44 W/m 17,5 C 23,0 C 5,2 kts (2 Bft) 100,00 %
25.08.2019 18:54 23,2 C 71 % 1019,1 hPa 0,0 l/m 4,0 kts (2 Bft) O-NO 57 0 min 0,0 UV-I 44 W/m 17,6 C 22,9 C 7,0 kts (3 Bft) 100,00 %
25.08.2019 18:53 23,2 C 72 % 1019,1 hPa 0,0 l/m 5,0 kts (2 Bft) N-NO 31 0 min 0,0 UV-I 46 W/m 17,9 C 22,4 C 7,0 kts (3 Bft) 100,00 %
25.08.2019 18:52 23,2 C 72 % 1019,1 hPa 0,0 l/m 7,3 kts (3 Bft) O-NO 57 0 min 0,0 UV-I 46 W/m 17,9 C 21,4 C 7,8 kts (3 Bft) 100,00 %
25.08.2019 18:51 23,2 C 71 % 1019,1 hPa 0,0 l/m 7,3 kts (3 Bft) S-SO 166 0 min 0,0 UV-I 47 W/m 17,6 C 21,4 C 8,7 kts (3 Bft) 100,00 %
25.08.2019 18:50 23,3 C 71 % 1019,1 hPa 0,0 l/m 6,7 kts (3 Bft) O-NO 62 0 min 0,0 UV-I 49 W/m 17,7 C 21,7 C 9,6 kts (3 Bft) 100,00 %
25.08.2019 18:49 23,3 C 71 % 1019,1 hPa 0,0 l/m 6,0 kts (2 Bft) S-SW 204 0 min 0,0 UV-I 49 W/m 17,7 C 22,0 C 8,7 kts (3 Bft) 100,00 %
25.08.2019 18:48 23,3 C 70 % 1019,0 hPa 0,0 l/m 4,4 kts (2 Bft) O-NO 57 0 min 0,0 UV-I 51 W/m 17,5 C 22,8 C 5,2 kts (2 Bft) 100,00 %
25.08.2019 18:47 23,4 C 70 % 1019,1 hPa 0,0 l/m 6,3 kts (2 Bft) O-NO 69 0 min 0,0 UV-I 51 W/m 17,6 C 22,0 C 7,8 kts (3 Bft) 100,00 %
25.08.2019 18:46 23,4 C 70 % 1019,1 hPa 0,0 l/m 3,3 kts (2 Bft) O-NO 62 0 min 0,0 UV-I 53 W/m 17,6 C 23,4 C 7,0 kts (3 Bft) 100,00 %
25.08.2019 18:45 23,4 C 70 % 1019,1 hPa 0,0 l/m 5,0 kts (2 Bft) O 87 0 min 0,0 UV-I 54 W/m 17,6 C 22,6 C 6,1 kts (2 Bft) 100,00 %
25.08.2019 18:44 23,4 C 70 % 1019,0 hPa 0,0 l/m 6,8 kts (3 Bft) O-NO 59 0 min 0,0 UV-I 54 W/m 17,6 C 21,8 C 7,8 kts (3 Bft) 100,00 %
25.08.2019 18:43 23,4 C 70 % 1019,1 hPa 0,0 l/m 4,3 kts (2 Bft) O-NO 66 0 min 0,0 UV-I 54 W/m 17,6 C 22,9 C 7,8 kts (3 Bft) 100,00 %
25.08.2019 18:42 23,5 C 69 % 1019,1 hPa 0,0 l/m 4,3 kts (2 Bft) O-NO 57 0 min 0,0 UV-I 56 W/m 17,5 C 23,1 C 9,6 kts (3 Bft) 100,00 %
25.08.2019 18:41 23,5 C 70 % 1019,1 hPa 0,0 l/m 3,8 kts (2 Bft) SW 226 0 min 0,0 UV-I 56 W/m 17,7 C 23,3 C 7,0 kts (3 Bft) 100,00 %
25.08.2019 18:40 23,6 C 70 % 1019,1 hPa 0,0 l/m 3,9 kts (2 Bft) O 86 0 min 0,0 UV-I 58 W/m 17,8 C 23,4 C 6,1 kts (2 Bft) 100,00 %
25.08.2019 18:39 23,6 C 69 % 1019,0 hPa 0,0 l/m 6,0 kts (2 Bft) O-NO 65 0 min 0,0 UV-I 63 W/m 17,6 C 22,3 C 8,7 kts (3 Bft) 100,00 %
25.08.2019 18:38 23,6 C 69 % 1019,0 hPa 0,0 l/m 4,1 kts (2 Bft) O-NO 58 0 min 0,0 UV-I 67 W/m 17,6 C 23,2 C 7,0 kts (3 Bft) 100,00 %
25.08.2019 18:37 23,6 C 69 % 1019,0 hPa 0,0 l/m 3,0 kts (1 Bft) NO 43 0 min 0,0 UV-I 67 W/m 17,6 C 23,6 C 5,2 kts (2 Bft) 100,00 %
25.08.2019 18:36 23,6 C 70 % 1019,1 hPa 0,0 l/m 4,7 kts (2 Bft) O-NO 59 0 min 0,0 UV-I 69 W/m 17,8 C 22,9 C 7,0 kts (3 Bft) 100,00 %
25.08.2019 18:35 23,6 C 70 % 1019,0 hPa 0,0 l/m 3,7 kts (2 Bft) O-NO 61 0 min 0,0 UV-I 69 W/m 17,8 C 23,5 C 7,0 kts (3 Bft) 100,00 %
25.08.2019 18:34 23,6 C 70 % 1019,1 hPa 0,0 l/m 3,1 kts (1 Bft) O 89 0 min 0,0 UV-I 70 W/m 17,8 C 23,6 C 6,1 kts (2 Bft) 100,00 %
25.08.2019 18:33 23,6 C 69 % 1019,2 hPa 0,0 l/m 3,9 kts (2 Bft) O-NO 57 0 min 0,0 UV-I 70 W/m 17,6 C 23,3 C 7,8 kts (3 Bft) 100,00 %
25.08.2019 18:32 23,6 C 69 % 1019,2 hPa 0,0 l/m 5,0 kts (2 Bft) O 84 0 min 0,0 UV-I 69 W/m 17,6 C 22,8 C 8,7 kts (3 Bft) 100,00 %
25.08.2019 18:31 23,6 C 69 % 1019,1 hPa 0,0 l/m 3,7 kts (2 Bft) O-NO 59 0 min 0,0 UV-I 65 W/m 17,6 C 23,5 C 7,0 kts (3 Bft) 100,00 %
25.08.2019 18:30 23,6 C 69 % 1019,2 hPa 0,0 l/m 4,5 kts (2 Bft) O-NO 76 0 min 0,0 UV-I 63 W/m 17,6 C 23,0 C 7,0 kts (3 Bft) 96,97 %
25.08.2019 18:29 23,6 C 69 % 1019,2 hPa 0,0 l/m 3,4 kts (2 Bft) NO 53 0 min 0,0 UV-I 65 W/m 17,6 C 23,6 C 7,8 kts (3 Bft) 100,00 %
25.08.2019 18:28 23,6 C 69 % 1019,1 hPa 0,0 l/m 2,9 kts (1 Bft) O 87 0 min 0,0 UV-I 72 W/m 17,6 C 23,6 C 6,1 kts (2 Bft) 100,00 %
25.08.2019 18:27 23,7 C 69 % 1019,1 hPa 0,0 l/m 2,9 kts (1 Bft) NO 46 0 min 0,0 UV-I 74 W/m 17,7 C 23,7 C 5,2 kts (2 Bft) 100,00 %
25.08.2019 18:26 23,7 C 68 % 1019,2 hPa 0,0 l/m 5,9 kts (2 Bft) O-NO 71 0 min 0,0 UV-I 74 W/m 17,4 C 22,5 C 9,6 kts (3 Bft) 100,00 %
25.08.2019 18:25 23,7 C 69 % 1019,2 hPa 0,0 l/m 3,0 kts (1 Bft) O-NO 77 0 min 0,0 UV-I 72 W/m 17,7 C 23,7 C 5,2 kts (2 Bft) 100,00 %
25.08.2019 18:24 23,8 C 69 % 1019,2 hPa 0,0 l/m 3,4 kts (2 Bft) O 94 0 min 0,0 UV-I 70 W/m 17,8 C 23,8 C 7,0 kts (3 Bft) 100,00 %
25.08.2019 18:23 23,8 C 69 % 1019,2 hPa 0,0 l/m 2,5 kts (1 Bft) O 87 0 min 0,0 UV-I 69 W/m 17,8 C 23,8 C 5,2 kts (2 Bft) 100,00 %
25.08.2019 18:22 23,8 C 69 % 1019,1 hPa 0,0 l/m 2,0 kts (1 Bft) O 99 0 min 0,0 UV-I 70 W/m 17,8 C 23,8 C 6,1 kts (2 Bft) 100,00 %
25.08.2019 18:21 23,8 C 68 % 1019,2 hPa 0,0 l/m 2,6 kts (1 Bft) S-SW 196 0 min 0,0 UV-I 72 W/m 17,5 C 23,8 C 3,5 kts (2 Bft) 100,00 %
25.08.2019 18:20 23,9 C 69 % 1019,2 hPa 0,0 l/m 3,8 kts (2 Bft) NO 49 0 min 0,0 UV-I 76 W/m 17,9 C 23,7 C 7,8 kts (3 Bft) 100,00 %
25.08.2019 18:19 23,9 C 68 % 1019,2 hPa 0,0 l/m 4,4 kts (2 Bft) O-NO 73 0 min 0,0 UV-I 77 W/m 17,6 C 23,4 C 8,7 kts (3 Bft) 100,00 %
25.08.2019 18:18 23,9 C 69 % 1019,2 hPa 0,0 l/m 4,9 kts (2 Bft) O 83 0 min 0,0 UV-I 77 W/m 17,9 C 23,2 C 10,4 kts (3 Bft) 100,00 %
25.08.2019 18:17 24,0 C 68 % 1019,1 hPa 0,0 l/m 4,1 kts (2 Bft) W-NW 288 0 min 0,0 UV-I 77 W/m 17,7 C 23,7 C 7,0 kts (3 Bft) 100,00 %
25.08.2019 18:16 24,0 C 68 % 1019,1 hPa 0,0 l/m 7,1 kts (3 Bft) O-NO 78 0 min 0,0 UV-I 74 W/m 17,7 C 22,4 C 12,1 kts (4 Bft) 100,00 %
25.08.2019 18:15 24,1 C 68 % 1019,0 hPa 0,0 l/m 8,1 kts (3 Bft) O-NO 74 0 min 0,0 UV-I 72 W/m 17,8 C 22,2 C 11,3 kts (4 Bft) 100,00 %
25.08.2019 18:14 24,1 C 68 % 1019,0 hPa 0,0 l/m 4,5 kts (2 Bft) O-SO 103 0 min 0,0 UV-I 70 W/m 17,8 C 23,6 C 8,7 kts (3 Bft) 100,00 %
25.08.2019 18:13 24,2 C 67 % 1019,0 hPa 0,0 l/m 5,3 kts (2 Bft) O-SO 102 0 min 0,0 UV-I 72 W/m 17,7 C 23,3 C 8,7 kts (3 Bft) 100,00 %
25.08.2019 18:12 24,2 C 67 % 1019,0 hPa 0,0 l/m 3,6 kts (2 Bft) O-NO 65 0 min 0,0 UV-I 74 W/m 17,7 C 24,1 C 5,2 kts (2 Bft) 97,73 %
25.08.2019 18:11 24,3 C 68 % 1019,0 hPa 0,0 l/m 3,6 kts (2 Bft) O 80 0 min 0,0 UV-I 77 W/m 18,0 C 24,2 C 6,1 kts (2 Bft) 98,88 %
25.08.2019 18:10 24,3 C 66 % 1018,9 hPa 0,0 l/m 3,0 kts (1 Bft) S-SO 167 0 min 0,0 UV-I 109 W/m 17,5 C 24,3 C 6,1 kts (2 Bft) 100,00 %
25.08.2019 18:09 24,3 C 67 % 1019,0 hPa 0,0 l/m 3,5 kts (2 Bft) W-SW 237 0 min 0,0 UV-I 141 W/m 17,8 C 24,3 C 6,1 kts (2 Bft) 100,00 %
25.08.2019 18:08 24,4 C 67 % 1018,9 hPa 0,0 l/m 3,2 kts (2 Bft) NO 42 1 min 0,0 UV-I 160 W/m 17,9 C 24,4 C 6,1 kts (2 Bft) 100,00 %
25.08.2019 18:07 24,4 C 67 % 1019,0 hPa 0,0 l/m 4,2 kts (2 Bft) NO 34 1 min 0,0 UV-I 176 W/m 17,9 C 24,0 C 9,6 kts (3 Bft) 100,00 %
25.08.2019 18:06 24,4 C 67 % 1018,9 hPa 0,0 l/m 6,3 kts (2 Bft) N-NW 331 1 min 0,5 UV-I 185 W/m 17,9 C 23,2 C 12,1 kts (4 Bft) 100,00 %
25.08.2019 18:05 24,5 C 67 % 1019,0 hPa 0,0 l/m 4,2 kts (2 Bft) O-NO 65 1 min 0,5 UV-I 197 W/m 18,0 C 24,2 C 7,8 kts (3 Bft) 100,00 %
25.08.2019 18:04 24,5 C 67 % 1019,0 hPa 0,0 l/m 5,8 kts (2 Bft) S 169 1 min 0,5 UV-I 213 W/m 18,0 C 23,5 C 9,6 kts (3 Bft) 97,56 %
25.08.2019 18:03 24,5 C 68 % 1018,9 hPa 0,0 l/m 4,6 kts (2 Bft) O 92 1 min 0,5 UV-I 220 W/m 18,2 C 23,9 C 8,7 kts (3 Bft) 98,87 %
25.08.2019 18:02 24,5 C 67 % 1018,9 hPa 0,0 l/m 5,7 kts (2 Bft) O-NO 57 1 min 0,5 UV-I 221 W/m 18,0 C 23,5 C 10,4 kts (3 Bft) 96,30 %
25.08.2019 18:01 24,5 C 68 % 1018,9 hPa 0,0 l/m 3,9 kts (2 Bft) O-NO 73 1 min 0,5 UV-I 223 W/m 18,2 C 24,3 C 10,4 kts (3 Bft) 100,00 %
25.08.2019 18:00 24,6 C 68 % 1018,9 hPa 0,0 l/m 4,9 kts (2 Bft) O-NO 74 1 min 0,5 UV-I 221 W/m 18,3 C 23,9 C 7,8 kts (3 Bft) 95,83 %
25.08.2019 17:59 24,5 C 68 % 1018,9 hPa 0,0 l/m 3,7 kts (2 Bft) O-NO 59 1 min 0,5 UV-I 223 W/m 18,2 C 24,4 C 7,8 kts (3 Bft) 100,00 %
25.08.2019 17:58 24,5 C 68 % 1018,9 hPa 0,0 l/m 2,8 kts (1 Bft) W 273 1 min 0,6 UV-I 230 W/m 18,2 C 24,5 C 4,3 kts (2 Bft) 95,65 %
25.08.2019 17:57 24,5 C 67 % 1018,9 hPa 0,0 l/m 4,8 kts (2 Bft) SO 134 1 min 0,6 UV-I 232 W/m 18,0 C 23,9 C 8,7 kts (3 Bft) 100,00 %
25.08.2019 17:56 24,5 C 68 % 1019,0 hPa 0,0 l/m 9,1 kts (3 Bft) O 82 1 min 0,6 UV-I 234 W/m 18,2 C 22,4 C 11,3 kts (4 Bft) 95,65 %
25.08.2019 17:55 24,5 C 67 % 1019,0 hPa 0,0 l/m 7,0 kts (3 Bft) O-NO 61 1 min 0,6 UV-I 234 W/m 18,0 C 23,0 C 12,1 kts (4 Bft) 95,83 %
25.08.2019 17:54 24,5 C 66 % 1019,0 hPa 0,0 l/m 4,1 kts (2 Bft) S-SO 164 1 min 0,6 UV-I 230 W/m 17,7 C 24,2 C 9,6 kts (3 Bft) 100,00 %
25.08.2019 17:53 24,5 C 66 % 1019,0 hPa 0,0 l/m 3,0 kts (1 Bft) O-NO 63 1 min 0,6 UV-I 230 W/m 17,7 C 24,5 C 7,0 kts (3 Bft) 95,83 %
25.08.2019 17:52 24,6 C 67 % 1019,0 hPa 0,0 l/m 6,2 kts (2 Bft) O-SO 123 1 min 0,6 UV-I 216 W/m 18,1 C 23,4 C 11,3 kts (4 Bft) 100,00 %
25.08.2019 17:51 24,6 C 67 % 1019,0 hPa 0,0 l/m 5,3 kts (2 Bft) NO 53 1 min 0,6 UV-I 216 W/m 18,1 C 23,8 C 10,4 kts (3 Bft) 96,15 %
25.08.2019 17:50 24,6 C 67 % 1018,9 hPa 0,0 l/m 5,1 kts (2 Bft) O-NO 73 1 min 0,6 UV-I 223 W/m 18,1 C 23,8 C 10,4 kts (3 Bft) 100,00 %
25.08.2019 17:49 24,5 C 66 % 1019,0 hPa 0,0 l/m 6,4 kts (2 Bft) O-SO 104 1 min 0,6 UV-I 230 W/m 17,7 C 23,2 C 12,1 kts (4 Bft) 95,65 %
25.08.2019 17:48 24,5 C 67 % 1019,0 hPa 0,0 l/m 7,7 kts (3 Bft) SO 137 1 min 0,6 UV-I 237 W/m 18,0 C 22,8 C 13,0 kts (4 Bft) 96,15 %
25.08.2019 17:47 24,5 C 67 % 1018,9 hPa 0,0 l/m 8,8 kts (3 Bft) O-NO 67 1 min 0,6 UV-I 237 W/m 18,0 C 22,5 C 13,0 kts (4 Bft) 100,00 %
25.08.2019 17:46 24,5 C 67 % 1018,9 hPa 0,0 l/m 5,8 kts (2 Bft) O-NO 69 1 min 0,6 UV-I 236 W/m 18,0 C 23,5 C 11,3 kts (4 Bft) 95,65 %
25.08.2019 17:45 24,6 C 67 % 1018,9 hPa 0,0 l/m 7,4 kts (3 Bft) O-NO 62 1 min 0,6 UV-I 232 W/m 18,1 C 23,0 C 12,1 kts (4 Bft) 100,00 %
25.08.2019 17:44 24,6 C 67 % 1019,0 hPa 0,0 l/m 7,9 kts (3 Bft) NO 55 1 min 0,6 UV-I 232 W/m 18,1 C 22,9 C 12,1 kts (4 Bft) 95,65 %
25.08.2019 17:43 24,6 C 66 % 1019,0 hPa 0,0 l/m 9,4 kts (3 Bft) O-NO 70 1 min 0,6 UV-I 227 W/m 17,8 C 22,5 C 12,1 kts (4 Bft) 100,00 %
25.08.2019 17:42 24,6 C 67 % 1018,8 hPa 0,0 l/m 8,9 kts (3 Bft) O-NO 61 1 min 0,6 UV-I 221 W/m 18,1 C 22,6 C 11,3 kts (4 Bft) 95,65 %
25.08.2019 17:41 24,6 C 68 % 1018,9 hPa 0,0 l/m 7,7 kts (3 Bft) O-NO 62 1 min 0,6 UV-I 223 W/m 18,3 C 22,9 C 11,3 kts (4 Bft) 96,88 %
25.08.2019 17:40 24,6 C 68 % 1018,9 hPa 0,0 l/m 9,7 kts (3 Bft) O 80 1 min 0,7 UV-I 216 W/m 18,3 C 22,4 C 13,0 kts (4 Bft) 100,00 %
25.08.2019 17:39 24,7 C 68 % 1018,9 hPa 0,0 l/m 2,4 kts (1 Bft) O-NO 65 1 min 0,7 UV-I 213 W/m 18,4 C 24,7 C 3,5 kts (2 Bft) 100,00 %
25.08.2019 17:38 24,7 C 68 % 1018,9 hPa 0,0 l/m 3,1 kts (1 Bft) S-SO 161 1 min 0,7 UV-I 204 W/m 18,4 C 24,7 C 6,1 kts (2 Bft) 100,00 %
25.08.2019 17:37 24,7 C 67 % 1018,8 hPa 0,0 l/m 2,3 kts (1 Bft) O 83 1 min 0,7 UV-I 221 W/m 18,1 C 24,7 C 5,2 kts (2 Bft) 100,00 %
25.08.2019 17:36 24,7 C 67 % 1018,8 hPa 0,0 l/m 6,3 kts (2 Bft) SO 142 1 min 0,7 UV-I 237 W/m 18,1 C 23,5 C 10,4 kts (3 Bft) 100,00 %
25.08.2019 17:35 24,7 C 67 % 1018,8 hPa 0,0 l/m 4,8 kts (2 Bft) O 84 1 min 0,7 UV-I 258 W/m 18,1 C 24,1 C 9,6 kts (3 Bft) 100,00 %
25.08.2019 17:34 24,6 C 67 % 1018,8 hPa 0,0 l/m 4,3 kts (2 Bft) O-NO 75 1 min 0,8 UV-I 267 W/m 18,1 C 24,2 C 9,6 kts (3 Bft) 100,00 %
25.08.2019 17:33 24,6 C 67 % 1018,8 hPa 0,0 l/m 6,0 kts (2 Bft) O-NO 75 1 min 0,8 UV-I 267 W/m 18,1 C 23,5 C 10,4 kts (3 Bft) 100,00 %
25.08.2019 17:32 24,6 C 67 % 1018,8 hPa 0,0 l/m 2,8 kts (1 Bft) NO 51 1 min 0,8 UV-I 265 W/m 18,1 C 24,6 C 5,2 kts (2 Bft) 100,00 %
25.08.2019 17:31 24,6 C 67 % 1018,9 hPa 0,0 l/m 2,8 kts (1 Bft) S-SW 206 1 min 0,8 UV-I 260 W/m 18,1 C 24,6 C 6,1 kts (2 Bft) 100,00 %
25.08.2019 17:30 24,5 C 67 % 1018,9 hPa 0,0 l/m 3,2 kts (2 Bft) O 94 1 min 0,8 UV-I 225 W/m 18,0 C 24,5 C 6,1 kts (2 Bft) 100,00 %
25.08.2019 17:29 24,5 C 67 % 1018,9 hPa 0,0 l/m 2,0 kts (1 Bft) O-NO 63 1 min 0,8 UV-I 225 W/m 18,0 C 24,5 C 4,3 kts (2 Bft) 100,00 %
25.08.2019 17:28 24,5 C 67 % 1018,9 hPa 0,0 l/m 1,1 kts (1 Bft) S 169 1 min 0,8 UV-I 225 W/m 18,0 C 24,5 C 3,5 kts (2 Bft) 100,00 %
25.08.2019 17:27 24,4 C 68 % 1018,9 hPa 0,0 l/m 6,5 kts (2 Bft) O 84 1 min 0,8 UV-I 225 W/m 18,1 C 23,1 C 8,7 kts (3 Bft) 100,00 %
25.08.2019 17:26 24,4 C 68 % 1018,9 hPa 0,0 l/m 5,5 kts (2 Bft) O 93 1 min 0,8 UV-I 227 W/m 18,1 C 23,5 C 9,6 kts (3 Bft) 100,00 %
25.08.2019 17:25 24,4 C 68 % 1018,9 hPa 0,0 l/m 7,3 kts (3 Bft) O 90 1 min 0,8 UV-I 244 W/m 18,1 C 22,8 C 10,4 kts (3 Bft) 100,00 %
25.08.2019 17:24 24,4 C 67 % 1018,9 hPa 0,0 l/m 4,5 kts (2 Bft) O 90 2 min 0,9 UV-I 271 W/m 17,9 C 23,9 C 9,6 kts (3 Bft) 99,21 %
25.08.2019 17:22 24,6 C 66 % 1018,9 hPa 0,0 l/m 3,5 kts (2 Bft) O 85 2 min 0,9 UV-I 250 W/m 17,8 C 24,6 C 3,5 kts (2 Bft) 98,89 %
25.08.2019 17:20 24,8 C 67 % 1018,9 hPa 0,0 l/m 5,2 kts (2 Bft) O-NO 57 1 min 0,8 UV-I 218 W/m 18,2 C 24,0 C 5,2 kts (2 Bft) 98,89 %
25.08.2019 17:19 24,8 C 66 % 1018,9 hPa 0,0 l/m 5,4 kts (2 Bft) S 182 1 min 0,9 UV-I 255 W/m 18,0 C 23,9 C 7,8 kts (3 Bft) 93,33 %
25.08.2019 17:18 24,8 C 65 % 1018,9 hPa 0,0 l/m 7,6 kts (3 Bft) SO 125 1 min 0,9 UV-I 255 W/m 17,8 C 23,2 C 10,4 kts (3 Bft) 100,00 %
25.08.2019 17:17 24,8 C 66 % 1018,8 hPa 0,0 l/m 4,6 kts (2 Bft) O-NO 74 1 min 1,0 UV-I 322 W/m 18,0 C 24,2 C 10,4 kts (3 Bft) 100,00 %
25.08.2019 17:16 24,9 C 65 % 1018,9 hPa 0,0 l/m 3,9 kts (2 Bft) S 180 1 min 1,0 UV-I 320 W/m 17,9 C 24,7 C 7,0 kts (3 Bft) 100,00 %
25.08.2019 17:15 24,9 C 67 % 1018,9 hPa 0,0 l/m 6,5 kts (2 Bft) NO 36 1 min 1,0 UV-I 330 W/m 18,3 C 23,7 C 9,6 kts (3 Bft) 100,00 %
25.08.2019 17:14 24,8 C 66 % 1018,9 hPa 0,0 l/m 3,5 kts (2 Bft) O 93 1 min 1,1 UV-I 346 W/m 18,0 C 24,8 C 7,0 kts (3 Bft) 100,00 %
25.08.2019 17:13 24,8 C 66 % 1018,9 hPa 0,0 l/m 7,8 kts (3 Bft) O 82 1 min 1,1 UV-I 355 W/m 18,0 C 23,1 C 11,3 kts (4 Bft) 100,00 %
25.08.2019 17:12 24,7 C 66 % 1018,9 hPa 0,0 l/m 7,8 kts (3 Bft) O-SO 106 1 min 1,2 UV-I 359 W/m 17,9 C 23,0 C 9,6 kts (3 Bft) 100,00 %
25.08.2019 17:11 24,7 C 66 % 1018,9 hPa 0,0 l/m 6,2 kts (2 Bft) SO 126 1 min 1,2 UV-I 362 W/m 17,9 C 23,5 C 10,4 kts (3 Bft) 100,00 %
25.08.2019 17:10 24,7 C 66 % 1018,9 hPa 0,0 l/m 7,2 kts (3 Bft) O 97 1 min 1,2 UV-I 369 W/m 17,9 C 23,2 C 9,6 kts (3 Bft) 100,00 %
25.08.2019 17:09 24,7 C 66 % 1018,9 hPa 0,0 l/m 6,0 kts (2 Bft) O 95 1 min 1,2 UV-I 371 W/m 17,9 C 23,6 C 9,6 kts (3 Bft) 100,00 %
25.08.2019 17:08 24,7 C 65 % 1018,8 hPa 0,0 l/m 9,4 kts (3 Bft) O-SO 113 1 min 1,2 UV-I 371 W/m 17,7 C 22,6 C 12,1 kts (4 Bft) 100,00 %
25.08.2019 17:07 24,8 C 66 % 1018,8 hPa 0,0 l/m 7,0 kts (3 Bft) N-NW 329 1 min 1,2 UV-I 376 W/m 18,0 C 23,4 C 9,6 kts (3 Bft) 100,00 %
25.08.2019 17:06 24,8 C 66 % 1018,9 hPa 0,0 l/m 10,3 kts (3 Bft) O 96 1 min 1,2 UV-I 371 W/m 18,0 C 22,5 C 12,1 kts (4 Bft) 100,00 %
25.08.2019 17:05 24,8 C 65 % 1018,8 hPa 0,0 l/m 6,9 kts (3 Bft) O 98 1 min 1,3 UV-I 367 W/m 17,8 C 23,4 C 11,3 kts (4 Bft) 100,00 %
25.08.2019 17:04 24,8 C 66 % 1018,8 hPa 0,0 l/m 4,0 kts (2 Bft) O 85 1 min 1,3 UV-I 381 W/m 18,0 C 24,5 C 7,8 kts (3 Bft) 100,00 %
25.08.2019 17:03 24,8 C 67 % 1018,8 hPa 0,0 l/m 6,6 kts (3 Bft) O-NO 71 1 min 1,3 UV-I 392 W/m 18,2 C 23,5 C 10,4 kts (3 Bft) 100,00 %
25.08.2019 17:02 24,7 C 67 % 1018,8 hPa 0,0 l/m 3,7 kts (2 Bft) W 267 1 min 1,3 UV-I 399 W/m 18,1 C 24,6 C 6,1 kts (2 Bft) 100,00 %
25.08.2019 17:01 24,7 C 67 % 1018,8 hPa 0,0 l/m 4,2 kts (2 Bft) SO 146 1 min 1,3 UV-I 401 W/m 18,1 C 24,3 C 7,0 kts (3 Bft) 100,00 %
25.08.2019 17:00 24,7 C 67 % 1018,8 hPa 0,0 l/m 3,0 kts (1 Bft) SW 222 1 min 1,3 UV-I 406 W/m 18,1 C 24,7 C 7,0 kts (3 Bft) 100,00 %
25.08.2019 16:59 24,7 C 68 % 1018,8 hPa 0,0 l/m 3,9 kts (2 Bft) O 94 1 min 1,4 UV-I 411 W/m 18,4 C 24,5 C 8,7 kts (3 Bft) 100,00 %
25.08.2019 16:58 24,7 C 68 % 1018,9 hPa 0,0 l/m 7,5 kts (3 Bft) O-SO 105 1 min 1,4 UV-I 413 W/m 18,4 C 23,1 C 9,6 kts (3 Bft) 100,00 %
25.08.2019 16:57 24,7 C 67 % 1018,8 hPa 0,0 l/m 6,6 kts (3 Bft) N-NO 32 1 min 1,4 UV-I 417 W/m 18,1 C 23,4 C 11,3 kts (4 Bft) 100,00 %
25.08.2019 16:56 24,7 C 67 % 1018,9 hPa 0,0 l/m 8,1 kts (3 Bft) O-SO 117 1 min 1,4 UV-I 418 W/m 18,1 C 22,9 C 11,3 kts (4 Bft) 100,00 %
25.08.2019 16:55 24,8 C 68 % 1018,8 hPa 0,0 l/m 9,2 kts (3 Bft) O-SO 109 1 min 1,4 UV-I 420 W/m 18,5 C 22,8 C 10,4 kts (3 Bft) 100,00 %
25.08.2019 16:54 24,8 C 66 % 1018,8 hPa 0,0 l/m 9,9 kts (3 Bft) O-SO 113 1 min 1,4 UV-I 422 W/m 18,0 C 22,6 C 13,0 kts (4 Bft) 100,00 %
25.08.2019 16:53 24,8 C 66 % 1018,9 hPa 0,0 l/m 7,2 kts (3 Bft) NO 55 1 min 1,4 UV-I 422 W/m 18,0 C 23,3 C 11,3 kts (4 Bft) 100,00 %
25.08.2019 16:52 24,8 C 65 % 1018,9 hPa 0,0 l/m 7,8 kts (3 Bft) O-SO 119 1 min 1,4 UV-I 424 W/m 17,8 C 23,2 C 11,3 kts (4 Bft) 100,00 %
25.08.2019 16:51 24,8 C 67 % 1018,9 hPa 0,0 l/m 6,9 kts (3 Bft) O-SO 111 1 min 1,4 UV-I 424 W/m 18,2 C 23,4 C 12,1 kts (4 Bft) 100,00 %
25.08.2019 16:50 24,7 C 66 % 1018,9 hPa 0,0 l/m 7,4 kts (3 Bft) O-SO 117 1 min 1,5 UV-I 424 W/m 17,9 C 23,1 C 11,3 kts (4 Bft) 100,00 %
25.08.2019 16:49 24,7 C 66 % 1018,8 hPa 0,0 l/m 5,9 kts (2 Bft) O 98 1 min 1,5 UV-I 418 W/m 17,9 C 23,6 C 10,4 kts (3 Bft) 100,00 %
25.08.2019 16:48 24,7 C 67 % 1018,8 hPa 0,0 l/m 10,0 kts (3 Bft) O-NO 64 1 min 1,5 UV-I 410 W/m 18,1 C 22,5 C 11,3 kts (4 Bft) 100,00 %
25.08.2019 16:47 24,7 C 67 % 1018,9 hPa 0,0 l/m 2,4 kts (1 Bft) S 176 1 min 1,4 UV-I 397 W/m 18,1 C 24,7 C 5,2 kts (2 Bft) 100,00 %
25.08.2019 16:46 24,7 C 68 % 1018,9 hPa 0,0 l/m 4,1 kts (2 Bft) O 99 1 min 1,5 UV-I 411 W/m 18,4 C 24,4 C 7,8 kts (3 Bft) 100,00 %
25.08.2019 16:45 24,7 C 67 % 1018,9 hPa 0,0 l/m 7,6 kts (3 Bft) SO 134 1 min 1,5 UV-I 411 W/m 18,1 C 23,1 C 8,7 kts (3 Bft) 100,00 %
25.08.2019 16:44 24,7 C 66 % 1019,0 hPa 0,0 l/m 7,2 kts (3 Bft) O-SO 113 1 min 1,5 UV-I 411 W/m 17,9 C 23,2 C 8,7 kts (3 Bft) 100,00 %
25.08.2019 16:43 24,7 C 67 % 1019,0 hPa 0,0 l/m 8,3 kts (3 Bft) O-SO 110 1 min 1,5 UV-I 413 W/m 18,1 C 22,9 C 11,3 kts (4 Bft) 100,00 %
25.08.2019 16:42 24,6 C 68 % 1019,1 hPa 0,0 l/m 7,1 kts (3 Bft) O 90 1 min 1,5 UV-I 406 W/m 18,3 C 23,1 C 9,6 kts (3 Bft) 100,00 %
25.08.2019 16:41 24,6 C 68 % 1019,1 hPa 0,0 l/m 7,7 kts (3 Bft) NO 45 1 min 1,5 UV-I 411 W/m 18,3 C 22,9 C 11,3 kts (4 Bft) 92,31 %
25.08.2019 16:40 24,6 C 68 % 1019,1 hPa 0,0 l/m 8,5 kts (3 Bft) S-SO 162 1 min 1,5 UV-I 396 W/m 18,3 C 22,7 C 13,0 kts (4 Bft) 100,00 %
25.08.2019 16:39 24,6 C 68 % 1019,1 hPa 0,0 l/m 4,9 kts (2 Bft) W 261 1 min 1,5 UV-I 415 W/m 18,3 C 23,9 C 7,8 kts (3 Bft) 100,00 %
25.08.2019 16:38 24,6 C 68 % 1019,2 hPa 0,0 l/m 3,3 kts (2 Bft) NO 49 1 min 1,6 UV-I 422 W/m 18,3 C 24,6 C 7,0 kts (3 Bft) 100,00 %
25.08.2019 16:37 24,6 C 69 % 1019,2 hPa 0,0 l/m 5,6 kts (2 Bft) SW 223 1 min 1,6 UV-I 420 W/m 18,5 C 23,7 C 11,3 kts (4 Bft) 100,00 %
25.08.2019 16:36 24,6 C 68 % 1019,2 hPa 0,0 l/m 6,6 kts (2 Bft) W-NW 282 1 min 1,6 UV-I 410 W/m 18,3 C 23,3 C 10,4 kts (3 Bft) 100,00 %
25.08.2019 16:35 24,6 C 68 % 1019,2 hPa 0,0 l/m 4,8 kts (2 Bft) W-NW 290 1 min 1,6 UV-I 404 W/m 18,3 C 24,0 C 9,6 kts (3 Bft) 100,00 %
25.08.2019 16:34 24,6 C 67 % 1019,2 hPa 0,0 l/m 5,6 kts (2 Bft) O 96 1 min 1,6 UV-I 401 W/m 18,1 C 23,7 C 10,4 kts (3 Bft) 95,83 %
25.08.2019 16:33 24,6 C 68 % 1019,3 hPa 0,0 l/m 5,6 kts (2 Bft) S 181 1 min 1,6 UV-I 396 W/m 18,3 C 23,7 C 8,7 kts (3 Bft) 100,00 %
25.08.2019 16:32 24,6 C 68 % 1019,2 hPa 0,0 l/m 8,7 kts (3 Bft) O-SO 117 1 min 1,6 UV-I 385 W/m 18,3 C 22,7 C 13,9 kts (4 Bft) 95,65 %
25.08.2019 16:31 24,6 C 68 % 1019,3 hPa 0,0 l/m 7,7 kts (3 Bft) SO 138 1 min 1,6 UV-I 403 W/m 18,3 C 22,9 C 12,1 kts (4 Bft) 100,00 %
25.08.2019 16:30 24,6 C 67 % 1019,2 hPa 0,0 l/m 4,3 kts (2 Bft) O-NO 67 1 min 1,7 UV-I 429 W/m 18,1 C 24,2 C 7,8 kts (3 Bft) 95,65 %
25.08.2019 16:29 24,7 C 67 % 1019,3 hPa 0,0 l/m 6,2 kts (2 Bft) O-SO 115 1 min 1,7 UV-I 438 W/m 18,1 C 23,5 C 9,6 kts (3 Bft) 100,00 %
25.08.2019 16:28 24,6 C 68 % 1019,2 hPa 0,0 l/m 4,9 kts (2 Bft) O 96 1 min 1,7 UV-I 439 W/m 18,3 C 23,9 C 10,4 kts (3 Bft) 95,65 %
25.08.2019 16:27 24,6 C 68 % 1019,3 hPa 0,0 l/m 3,8 kts (2 Bft) NW 313 1 min 1,7 UV-I 434 W/m 18,3 C 24,4 C 7,0 kts (3 Bft) 91,30 %
25.08.2019 16:26 24,5 C 68 % 1019,3 hPa 0,0 l/m 5,0 kts (2 Bft) SO 146 1 min 1,7 UV-I 434 W/m 18,2 C 23,8 C 9,6 kts (3 Bft) 100,00 %
25.08.2019 16:25 24,6 C 68 % 1019,3 hPa 0,0 l/m 2,7 kts (1 Bft) O-SO 105 1 min 1,7 UV-I 436 W/m 18,3 C 24,6 C 5,2 kts (2 Bft) 91,30 %
25.08.2019 16:24 24,6 C 67 % 1019,3 hPa 0,0 l/m 3,9 kts (2 Bft) S-SO 165 1 min 1,7 UV-I 424 W/m 18,1 C 24,4 C 6,1 kts (2 Bft) 95,83 %
25.08.2019 16:23 24,6 C 68 % 1019,3 hPa 0,0 l/m 4,2 kts (2 Bft) O 79 1 min 1,8 UV-I 429 W/m 18,3 C 24,2 C 8,7 kts (3 Bft) 95,65 %
25.08.2019 16:22 24,5 C 66 % 1019,3 hPa 0,0 l/m 2,7 kts (1 Bft) W 269 1 min 1,8 UV-I 431 W/m 17,7 C 24,5 C 5,2 kts (2 Bft) 100,00 %
25.08.2019 16:21 24,6 C 67 % 1019,3 hPa 0,0 l/m 3,0 kts (1 Bft) SW 221 1 min 1,8 UV-I 443 W/m 18,1 C 24,6 C 7,0 kts (3 Bft) 95,65 %
25.08.2019 16:20 24,6 C 66 % 1019,3 hPa 0,0 l/m 4,7 kts (2 Bft) O 96 1 min 1,8 UV-I 448 W/m 17,8 C 24,0 C 11,3 kts (4 Bft) 100,00 %
25.08.2019 16:19 24,7 C 66 % 1019,2 hPa 0,0 l/m 4,0 kts (2 Bft) SO 124 1 min 1,8 UV-I 455 W/m 17,9 C 24,4 C 7,8 kts (3 Bft) 95,83 %
25.08.2019 16:18 24,7 C 67 % 1019,3 hPa 0,0 l/m 4,2 kts (2 Bft) S 169 1 min 1,8 UV-I 439 W/m 18,1 C 24,4 C 11,3 kts (4 Bft) 95,65 %
25.08.2019 16:17 24,7 C 66 % 1019,3 hPa 0,0 l/m 6,0 kts (2 Bft) O-NO 78 1 min 1,9 UV-I 450 W/m 17,9 C 23,6 C 12,1 kts (4 Bft) 100,00 %
25.08.2019 16:16 24,7 C 68 % 1019,3 hPa 0,0 l/m 6,5 kts (2 Bft) S-SO 158 1 min 1,9 UV-I 454 W/m 18,4 C 23,4 C 8,7 kts (3 Bft) 93,33 %
25.08.2019 16:15 24,7 C 68 % 1019,3 hPa 0,0 l/m 9,8 kts (3 Bft) O-NO 78 1 min 1,9 UV-I 452 W/m 18,4 C 22,5 C 12,1 kts (4 Bft) 100,00 %
25.08.2019 16:14 24,7 C 67 % 1019,3 hPa 0,0 l/m 11,1 kts (4 Bft) O-SO 113 1 min 1,9 UV-I 450 W/m 18,1 C 22,2 C 12,1 kts (4 Bft) 96,30 %
25.08.2019 16:13 24,7 C 67 % 1019,3 hPa 0,0 l/m 11,7 kts (4 Bft) O-SO 108 1 min 1,9 UV-I 454 W/m 18,1 C 22,1 C 13,0 kts (4 Bft) 100,00 %
25.08.2019 16:12 24,7 C 68 % 1019,3 hPa 0,0 l/m 9,9 kts (3 Bft) O-NO 70 1 min 1,9 UV-I 461 W/m 18,4 C 22,5 C 12,1 kts (4 Bft) 96,30 %
25.08.2019 16:11 24,7 C 67 % 1019,4 hPa 0,0 l/m 11,4 kts (4 Bft) SO 126 1 min 1,9 UV-I 469 W/m 18,1 C 22,1 C 14,8 kts (4 Bft) 96,15 %
25.08.2019 16:10 24,7 C 67 % 1019,3 hPa 0,0 l/m 8,1 kts (3 Bft) NO 44 1 min 2,0 UV-I 468 W/m 18,1 C 22,9 C 12,1 kts (4 Bft) 100,00 %
25.08.2019 16:09 24,7 C 67 % 1019,4 hPa 0,0 l/m 4,4 kts (2 Bft) O 94 1 min 2,0 UV-I 469 W/m 18,1 C 24,2 C 9,6 kts (3 Bft) 100,00 %
25.08.2019 16:08 24,6 C 67 % 1019,4 hPa 0,0 l/m 6,7 kts (3 Bft) O-SO 113 1 min 2,0 UV-I 475 W/m 18,1 C 23,3 C 13,9 kts (4 Bft) 100,00 %
25.08.2019 16:07 24,7 C 66 % 1019,5 hPa 0,0 l/m 3,8 kts (2 Bft) O-SO 116 1 min 2,0 UV-I 471 W/m 17,9 C 24,5 C 7,0 kts (3 Bft) 100,00 %
25.08.2019 16:06 24,7 C 67 % 1019,4 hPa 0,0 l/m 4,0 kts (2 Bft) O 92 1 min 2,0 UV-I 473 W/m 18,1 C 24,4 C 7,8 kts (3 Bft) 100,00 %
25.08.2019 16:05 24,7 C 67 % 1019,4 hPa 0,0 l/m 3,5 kts (2 Bft) W-NW 295 1 min 2,0 UV-I 478 W/m 18,1 C 24,7 C 6,1 kts (2 Bft) 100,00 %
25.08.2019 16:04 24,7 C 67 % 1019,4 hPa 0,0 l/m 4,1 kts (2 Bft) NO 43 1 min 2,1 UV-I 490 W/m 18,1 C 24,4 C 6,1 kts (2 Bft) 100,00 %
25.08.2019 16:03 24,7 C 67 % 1019,4 hPa 0,0 l/m 7,3 kts (3 Bft) SW 221 1 min 2,1 UV-I 489 W/m 18,1 C 23,2 C 11,3 kts (4 Bft) 100,00 %
25.08.2019 16:02 24,7 C 67 % 1019,4 hPa 0,0 l/m 5,0 kts (2 Bft) O-SO 115 1 min 2,1 UV-I 504 W/m 18,1 C 24,0 C 9,6 kts (3 Bft) 100,00 %
25.08.2019 16:01 24,6 C 67 % 1019,4 hPa 0,0 l/m 4,5 kts (2 Bft) O 84 1 min 2,1 UV-I 504 W/m 18,1 C 24,1 C 8,7 kts (3 Bft) 100,00 %
25.08.2019 16:00 24,6 C 68 % 1019,5 hPa 0,0 l/m 3,7 kts (2 Bft) O 94 1 min 2,2 UV-I 504 W/m 18,3 C 24,5 C 8,7 kts (3 Bft) 100,00 %
25.08.2019 15:59 24,6 C 68 % 1019,4 hPa 0,0 l/m 7,3 kts (3 Bft) S 188 1 min 2,2 UV-I 513 W/m 18,3 C 23,1 C 13,0 kts (4 Bft) 100,00 %
25.08.2019 15:58 24,6 C 67 % 1019,4 hPa 0,0 l/m 6,3 kts (2 Bft) S-SW 209 1 min 2,2 UV-I 527 W/m 18,1 C 23,4 C 10,4 kts (3 Bft) 100,00 %
25.08.2019 15:57 24,6 C 67 % 1019,5 hPa 0,0 l/m 7,8 kts (3 Bft) S-SO 160 1 min 2,2 UV-I 526 W/m 18,1 C 22,9 C 12,1 kts (4 Bft) 100,00 %
25.08.2019 15:56 24,6 C 69 % 1019,5 hPa 0,0 l/m 6,3 kts (2 Bft) NO 43 1 min 2,2 UV-I 527 W/m 18,5 C 23,4 C 10,4 kts (3 Bft) 100,00 %
25.08.2019 15:55 24,5 C 69 % 1019,4 hPa 0,0 l/m 6,4 kts (2 Bft) SO 143 1 min 2,2 UV-I 524 W/m 18,4 C 23,2 C 16,5 kts (5 Bft) 100,00 %
25.08.2019 15:54 24,4 C 69 % 1019,4 hPa 0,0 l/m 7,9 kts (3 Bft) O-NO 77 1 min 2,2 UV-I 501 W/m 18,3 C 22,6 C 13,9 kts (4 Bft) 100,00 %
25.08.2019 15:53 24,3 C 69 % 1019,4 hPa 0,0 l/m 4,6 kts (2 Bft) W-NW 302 1 min 2,2 UV-I 506 W/m 18,2 C 23,7 C 9,6 kts (3 Bft) 100,00 %
25.08.2019 15:52 24,2 C 71 % 1019,5 hPa 0,0 l/m 5,8 kts (2 Bft) O-SO 119 1 min 2,2 UV-I 512 W/m 18,6 C 23,1 C 9,6 kts (3 Bft) 100,00 %
25.08.2019 15:51 24,2 C 70 % 1019,5 hPa 0,0 l/m 4,8 kts (2 Bft) O 92 1 min 2,2 UV-I 513 W/m 18,4 C 23,6 C 8,7 kts (3 Bft) 100,00 %
25.08.2019 15:50 24,2 C 69 % 1019,5 hPa 0,0 l/m 7,8 kts (3 Bft) S-SW 207 1 min 2,2 UV-I 513 W/m 18,1 C 22,4 C 11,3 kts (4 Bft) 100,00 %
25.08.2019 15:49 24,2 C 70 % 1019,5 hPa 0,0 l/m 8,3 kts (3 Bft) NW 322 1 min 2,2 UV-I 492 W/m 18,4 C 22,3 C 14,8 kts (4 Bft) 100,00 %
25.08.2019 15:48 24,2 C 70 % 1019,6 hPa 0,0 l/m 7,8 kts (3 Bft) N-NW 327 1 min 2,2 UV-I 497 W/m 18,4 C 22,4 C 14,8 kts (4 Bft) 100,00 %
25.08.2019 15:47 24,2 C 70 % 1019,6 hPa 0,0 l/m 5,6 kts (2 Bft) O 94 1 min 2,2 UV-I 503 W/m 18,4 C 23,2 C 13,9 kts (4 Bft) 100,00 %
25.08.2019 15:46 24,2 C 71 % 1019,6 hPa 0,0 l/m 6,8 kts (3 Bft) S-SW 192 1 min 2,2 UV-I 497 W/m 18,6 C 22,8 C 12,1 kts (4 Bft) 100,00 %
25.08.2019 15:45 24,2 C 72 % 1019,6 hPa 0,0 l/m 6,7 kts (3 Bft) N-NO 12 1 min 2,2 UV-I 494 W/m 18,8 C 22,8 C 11,3 kts (4 Bft) 100,00 %
25.08.2019 15:44 24,1 C 71 % 1019,7 hPa 0,0 l/m 3,8 kts (2 Bft) NO 39 1 min 2,2 UV-I 504 W/m 18,5 C 23,9 C 7,8 kts (3 Bft) 94,12 %
25.08.2019 15:43 24,2 C 72 % 1019,6 hPa 0,0 l/m 6,4 kts (2 Bft) O-NO 63 1 min 2,2 UV-I 508 W/m 18,8 C 22,9 C 13,0 kts (4 Bft) 96,67 %
25.08.2019 15:42 24,1 C 71 % 1019,7 hPa 0,0 l/m 5,0 kts (2 Bft) S-SW 212 1 min 2,2 UV-I 487 W/m 18,5 C 23,4 C 8,7 kts (3 Bft) 100,00 %
25.08.2019 15:41 24,1 C 71 % 1019,6 hPa 0,0 l/m 5,5 kts (2 Bft) S-SW 194 1 min 2,2 UV-I 496 W/m 18,5 C 23,1 C 8,7 kts (3 Bft) 96,30 %
25.08.2019 15:40 24,1 C 70 % 1019,6 hPa 0,0 l/m 4,5 kts (2 Bft) NW 326 1 min 2,0 UV-I 422 W/m 18,3 C 23,6 C 7,0 kts (3 Bft) 100,00 %
25.08.2019 15:39 24,1 C 70 % 1019,7 hPa 0,0 l/m 3,4 kts (2 Bft) SW 231 1 min 2,0 UV-I 425 W/m 18,3 C 24,1 C 5,2 kts (2 Bft) 100,00 %
25.08.2019 15:38 24,2 C 69 % 1019,7 hPa 0,0 l/m 3,9 kts (2 Bft) S-SO 167 1 min 1,9 UV-I 338 W/m 18,1 C 24,0 C 9,6 kts (3 Bft) 100,00 %
25.08.2019 15:37 24,2 C 69 % 1019,7 hPa 0,0 l/m 3,7 kts (2 Bft) W 265 1 min 1,8 UV-I 302 W/m 18,1 C 24,1 C 6,1 kts (2 Bft) 100,00 %
25.08.2019 15:36 24,3 C 68 % 1019,6 hPa 0,0 l/m 3,5 kts (2 Bft) W 272 1 min 1,8 UV-I 336 W/m 18,0 C 24,3 C 6,1 kts (2 Bft) 100,00 %
25.08.2019 15:35 24,4 C 67 % 1019,6 hPa 0,0 l/m 9,0 kts (3 Bft) O 80 1 min 1,8 UV-I 278 W/m 17,9 C 22,3 C 14,8 kts (4 Bft) 100,00 %
25.08.2019 15:34 24,5 C 68 % 1019,6 hPa 0,0 l/m 5,0 kts (2 Bft) NO 51 1 min 1,8 UV-I 287 W/m 18,2 C 23,8 C 10,4 kts (3 Bft) 100,00 %
25.08.2019 15:33 24,6 C 69 % 1019,6 hPa 0,0 l/m 9,3 kts (3 Bft) SO 130 1 min 1,8 UV-I 278 W/m 18,5 C 22,5 C 20,8 kts (5 Bft) 98,86 %
25.08.2019 15:32 24,6 C 68 % 1019,6 hPa 0,0 l/m 7,7 kts (3 Bft) O-SO 111 1 min 1,8 UV-I 410 W/m 18,3 C 22,9 C 17,4 kts (5 Bft) 100,00 %
25.08.2019 15:31 24,6 C 68 % 1019,7 hPa 0,0 l/m 4,3 kts (2 Bft) O-SO 123 1 min 2,1 UV-I 410 W/m 18,3 C 24,2 C 7,8 kts (3 Bft) 100,00 %
25.08.2019 15:30 24,6 C 68 % 1019,6 hPa 0,0 l/m 6,5 kts (2 Bft) NW 325 1 min 2,3 UV-I 468 W/m 18,3 C 23,3 C 10,4 kts (3 Bft) 100,00 %
25.08.2019 15:29 24,6 C 68 % 1019,6 hPa 0,0 l/m 8,9 kts (3 Bft) N-NW 331 1 min 2,2 UV-I 418 W/m 18,3 C 22,6 C 12,1 kts (4 Bft) 100,00 %
25.08.2019 15:28 24,6 C 69 % 1019,6 hPa 0,0 l/m 12,5 kts (4 Bft) O 90 1 min 2,2 UV-I 425 W/m 18,5 C 21,8 C 14,8 kts (4 Bft) 100,00 %
25.08.2019 15:27 24,6 C 69 % 1019,7 hPa 0,0 l/m 11,9 kts (4 Bft) O 86 1 min 2,3 UV-I 413 W/m 18,5 C 21,9 C 16,5 kts (5 Bft) 100,00 %
25.08.2019 15:26 24,6 C 69 % 1019,7 hPa 0,0 l/m 11,7 kts (4 Bft) O-SO 102 1 min 2,4 UV-I 475 W/m 18,5 C 22,0 C 16,5 kts (5 Bft) 98,85 %
25.08.2019 15:25 24,6 C 69 % 1019,7 hPa 0,0 l/m 9,7 kts (3 Bft) O-NO 77 1 min 2,4 UV-I 483 W/m 18,5 C 22,4 C 14,8 kts (4 Bft) 100,00 %
25.08.2019 15:24 24,6 C 69 % 1019,7 hPa 0,0 l/m 9,4 kts (3 Bft) O 92 1 min 2,4 UV-I 461 W/m 18,5 C 22,5 C 15,7 kts (5 Bft) 93,33 %
25.08.2019 15:23 24,6 C 71 % 1019,8 hPa 0,0 l/m 5,7 kts (2 Bft) SO 125 1 min 2,3 UV-I 438 W/m 19,0 C 23,6 C 10,4 kts (3 Bft) 100,00 %
25.08.2019 15:22 24,6 C 70 % 1019,7 hPa 0,0 l/m 4,3 kts (2 Bft) O-SO 121 1 min 2,3 UV-I 429 W/m 18,8 C 24,2 C 7,0 kts (3 Bft) 100,00 %
25.08.2019 15:21 24,6 C 70 % 1019,7 hPa 0,0 l/m 5,5 kts (2 Bft) S-SO 147 1 min 2,4 UV-I 418 W/m 18,8 C 23,7 C 8,7 kts (3 Bft) 100,00 %
25.08.2019 15:20 24,7 C 70 % 1019,7 hPa 0,0 l/m 5,2 kts (2 Bft) SW 223 1 min 2,3 UV-I 207 W/m 18,8 C 23,9 C 12,1 kts (4 Bft) 100,00 %
25.08.2019 15:19 24,8 C 69 % 1019,7 hPa 0,0 l/m 7,8 kts (3 Bft) NW 322 1 min 2,0 UV-I 501 W/m 18,7 C 23,1 C 14,8 kts (4 Bft) 98,84 %
25.08.2019 15:18 24,9 C 70 % 1019,7 hPa 0,0 l/m 6,7 kts (3 Bft) O 82 1 min 2,1 UV-I 501 W/m 19,0 C 23,6 C 14,8 kts (4 Bft) 100,00 %
25.08.2019 15:17 24,8 C 70 % 1019,7 hPa 0,0 l/m 6,6 kts (2 Bft) NO 53 1 min 2,6 UV-I 503 W/m 18,9 C 23,5 C 13,0 kts (4 Bft) 100,00 %
25.08.2019 15:16 24,9 C 70 % 1019,7 hPa 0,0 l/m 7,2 kts (3 Bft) O-SO 122 1 min 2,7 UV-I 485 W/m 19,0 C 23,4 C 13,0 kts (4 Bft) 100,00 %
25.08.2019 15:15 24,9 C 70 % 1019,7 hPa 0,0 l/m 8,3 kts (3 Bft) O 83 1 min 2,7 UV-I 506 W/m 19,0 C 23,1 C 17,4 kts (5 Bft) 100,00 %
25.08.2019 15:14 24,9 C 71 % 1019,7 hPa 0,0 l/m 9,1 kts (3 Bft) O-NO 63 1 min 2,7 UV-I 524 W/m 19,3 C 22,9 C 16,5 kts (5 Bft) 100,00 %
25.08.2019 15:13 24,9 C 72 % 1019,7 hPa 0,0 l/m 9,7 kts (3 Bft) NO 46 1 min 2,8 UV-I 531 W/m 19,5 C 22,8 C 16,5 kts (5 Bft) 100,00 %
25.08.2019 15:12 24,8 C 71 % 1019,7 hPa 0,0 l/m 10,5 kts (3 Bft) N 5 1 min 2,8 UV-I 534 W/m 19,2 C 22,5 C 13,9 kts (4 Bft) 100,00 %
25.08.2019 15:11 24,8 C 72 % 1019,7 hPa 0,0 l/m 7,6 kts (3 Bft) O 88 1 min 2,8 UV-I 585 W/m 19,4 C 23,2 C 12,1 kts (4 Bft) 95,65 %
25.08.2019 15:10 24,7 C 72 % 1019,8 hPa 0,0 l/m 6,2 kts (2 Bft) NO 48 1 min 2,6 UV-I 585 W/m 19,3 C 23,5 C 10,4 kts (3 Bft) 100,00 %
25.08.2019 15:09 24,7 C 70 % 1019,8 hPa 0,0 l/m 9,8 kts (3 Bft) NO 55 1 min 3,0 UV-I 649 W/m 18,8 C 22,5 C 16,5 kts (5 Bft) 95,83 %
25.08.2019 15:08 24,6 C 72 % 1019,8 hPa 0,0 l/m 7,6 kts (3 Bft) O 86 1 min 3,1 UV-I 250 W/m 19,2 C 23,0 C 14,8 kts (4 Bft) 100,00 %
25.08.2019 15:07 24,6 C 71 % 1019,8 hPa 0,0 l/m 12,4 kts (4 Bft) SO 142 1 min 2,6 UV-I 250 W/m 19,0 C 21,8 C 18,3 kts (5 Bft) 100,00 %
25.08.2019 15:06 24,7 C 70 % 1019,7 hPa 0,0 l/m 11,5 kts (4 Bft) O 82 1 min 2,2 UV-I 250 W/m 18,8 C 22,1 C 16,5 kts (5 Bft) 100,00 %
25.08.2019 15:05 24,8 C 70 % 1019,8 hPa 0,0 l/m 10,6 kts (3 Bft) O-SO 123 1 min 2,1 UV-I 264 W/m 18,9 C 22,5 C 15,7 kts (5 Bft) 100,00 %
25.08.2019 15:04 24,9 C 71 % 1019,7 hPa 0,0 l/m 8,7 kts (3 Bft) O 84 1 min 2,8 UV-I 237 W/m 19,3 C 23,0 C 14,8 kts (4 Bft) 95,65 %
25.08.2019 15:03 24,9 C 69 % 1019,7 hPa 0,0 l/m 9,7 kts (3 Bft) O 84 1 min 2,1 UV-I 237 W/m 18,8 C 22,8 C 15,7 kts (5 Bft) 100,00 %
25.08.2019 15:02 25,1 C 69 % 1019,7 hPa 0,0 l/m 7,7 kts (3 Bft) O-NO 66 1 min 2,1 UV-I 649 W/m 19,0 C 23,5 C 15,7 kts (5 Bft) 95,83 %
25.08.2019 15:01 25,2 C 70 % 1019,7 hPa 0,0 l/m 8,4 kts (3 Bft) SO 127 1 min 3,1 UV-I 649 W/m 19,3 C 23,5 C 14,8 kts (4 Bft) 95,65 %
25.08.2019 15:00 25,1 C 70 % 1019,7 hPa 0,0 l/m 9,8 kts (3 Bft) NO 51 1 min 3,1 UV-I 649 W/m 19,2 C 23,0 C 15,7 kts (5 Bft) 100,00 %
25.08.2019 14:59 25,1 C 71 % 1019,8 hPa 0,0 l/m 7,0 kts (3 Bft) O 99 1 min 3,2 UV-I 645 W/m 19,5 C 23,8 C 12,1 kts (4 Bft) 94,12 %
25.08.2019 14:58 25,0 C 71 % 1019,8 hPa 0,0 l/m 5,9 kts (2 Bft) NO 38 1 min 3,3 UV-I 647 W/m 19,4 C 24,0 C 12,1 kts (4 Bft) 100,00 %
25.08.2019 14:57 24,9 C 71 % 1019,8 hPa 0,0 l/m 6,8 kts (3 Bft) W-SW 240 1 min 3,3 UV-I 631 W/m 19,3 C 23,6 C 14,8 kts (4 Bft) 95,65 %
25.08.2019 14:56 24,9 C 71 % 1019,9 hPa 0,0 l/m 6,5 kts (2 Bft) SO 145 1 min 3,3 UV-I 631 W/m 19,3 C 23,7 C 13,0 kts (4 Bft) 100,00 %
25.08.2019 14:55 24,9 C 70 % 1019,8 hPa 0,0 l/m 6,3 kts (2 Bft) N-NO 29 1 min 3,3 UV-I 656 W/m 19,0 C 23,7 C 13,0 kts (4 Bft) 91,67 %
25.08.2019 14:54 24,9 C 69 % 1019,8 hPa 0,0 l/m 9,0 kts (3 Bft) NO 56 1 min 3,3 UV-I 642 W/m 18,8 C 22,9 C 17,4 kts (5 Bft) 100,00 %
25.08.2019 14:53 24,9 C 70 % 1019,8 hPa 0,0 l/m 10,4 kts (3 Bft) O-NO 65 1 min 3,3 UV-I 619 W/m 19,0 C 22,6 C 15,7 kts (5 Bft) 96,55 %
25.08.2019 14:52 24,9 C 71 % 1019,7 hPa 0,0 l/m 7,9 kts (3 Bft) O-SO 105 1 min 3,3 UV-I 619 W/m 19,3 C 23,2 C 13,9 kts (4 Bft) 93,33 %
25.08.2019 14:51 24,8 C 70 % 1019,7 hPa 0,0 l/m 9,4 kts (3 Bft) S-SW 199 1 min 3,2 UV-I 591 W/m 18,9 C 22,7 C 14,8 kts (4 Bft) 100,00 %
25.08.2019 14:50 24,8 C 71 % 1019,8 hPa 0,0 l/m 10,1 kts (3 Bft) S-SW 213 1 min 3,2 UV-I 575 W/m 19,2 C 22,6 C 14,8 kts (4 Bft) 91,67 %
25.08.2019 14:49 24,8 C 70 % 1019,8 hPa 0,0 l/m 6,3 kts (2 Bft) O-NO 65 1 min 3,2 UV-I 596 W/m 18,9 C 23,6 C 13,0 kts (4 Bft) 100,00 %
25.08.2019 14:48 24,8 C 70 % 1019,8 hPa 0,0 l/m 9,8 kts (3 Bft) N-NO 32 1 min 3,2 UV-I 587 W/m 18,9 C 22,6 C 16,5 kts (5 Bft) 96,30 %
25.08.2019 14:47 24,8 C 70 % 1019,7 hPa 0,0 l/m 9,8 kts (3 Bft) SO 128 1 min 3,2 UV-I 594 W/m 18,9 C 22,6 C 13,0 kts (4 Bft) 100,00 %
25.08.2019 14:46 24,9 C 70 % 1019,8 hPa 0,0 l/m 7,3 kts (3 Bft) O-NO 65 1 min 3,3 UV-I 587 W/m 19,0 C 23,4 C 12,1 kts (4 Bft) 96,15 %
25.08.2019 14:45 24,9 C 70 % 1019,8 hPa 0,0 l/m 9,9 kts (3 Bft) O-NO 64 1 min 3,3 UV-I 587 W/m 19,0 C 22,7 C 13,0 kts (4 Bft) 96,30 %
25.08.2019 14:44 24,9 C 69 % 1019,8 hPa 0,0 l/m 9,9 kts (3 Bft) O-NO 74 1 min 3,3 UV-I 605 W/m 18,8 C 22,7 C 13,0 kts (4 Bft) 100,00 %
25.08.2019 14:43 24,9 C 69 % 1019,9 hPa 0,0 l/m 9,4 kts (3 Bft) NO 56 1 min 3,3 UV-I 580 W/m 18,8 C 22,8 C 13,0 kts (4 Bft) 91,67 %
25.08.2019 14:42 24,9 C 70 % 1019,8 hPa 0,0 l/m 8,0 kts (3 Bft) NO 50 1 min 3,3 UV-I 598 W/m 19,0 C 23,2 C 13,9 kts (4 Bft) 98,54 %
25.08.2019 14:41 24,9 C 70 % 1019,8 hPa 0,0 l/m 6,1 kts (2 Bft) NO 49 1 min 3,3 UV-I 605 W/m 19,0 C 23,8 C 8,7 kts (3 Bft) 98,88 %
25.08.2019 14:40 24,8 C 70 % 1019,8 hPa 0,0 l/m 3,5 kts (2 Bft) NO 49 2 min 3,3 UV-I 613 W/m 18,9 C 24,8 C 4,3 kts (2 Bft) 98,88 %
25.08.2019 14:38 24,9 C 69 % 1019,8 hPa 0,0 l/m 4,6 kts (2 Bft) S-SO 162 1 min 3,4 UV-I 626 W/m 18,8 C 24,4 C 5,2 kts (2 Bft) 98,88 %
25.08.2019 14:37 25,0 C 68 % 1019,8 hPa 0,0 l/m 3,5 kts (2 Bft) O-NO 62 1 min 3,5 UV-I 629 W/m 18,7 C 25,0 C 7,0 kts (3 Bft) 100,00 %
25.08.2019 14:36 25,1 C 70 % 1019,8 hPa 0,0 l/m 4,9 kts (2 Bft) S-SO 152 1 min 3,5 UV-I 629 W/m 19,2 C 24,5 C 9,6 kts (3 Bft) 100,00 %
25.08.2019 14:35 25,1 C 71 % 1019,8 hPa 0,0 l/m 7,3 kts (3 Bft) O 96 1 min 3,5 UV-I 629 W/m 19,5 C 23,6 C 10,4 kts (3 Bft) 100,00 %
25.08.2019 14:34 25,0 C 70 % 1019,9 hPa 0,0 l/m 8,3 kts (3 Bft) NW 321 1 min 3,5 UV-I 626 W/m 19,1 C 23,2 C 13,9 kts (4 Bft) 100,00 %
25.08.2019 14:33 24,8 C 70 % 1019,8 hPa 0,0 l/m 6,7 kts (3 Bft) O-NO 70 1 min 3,5 UV-I 615 W/m 18,9 C 23,5 C 12,1 kts (4 Bft) 100,00 %
25.08.2019 14:32 24,8 C 70 % 1019,9 hPa 0,0 l/m 4,3 kts (2 Bft) O-SO 120 1 min 3,5 UV-I 624 W/m 18,9 C 24,4 C 11,3 kts (4 Bft) 100,00 %
25.08.2019 14:31 24,7 C 70 % 1019,9 hPa 0,0 l/m 9,0 kts (3 Bft) SO 138 1 min 3,5 UV-I 619 W/m 18,8 C 22,7 C 13,9 kts (4 Bft) 100,00 %
25.08.2019 14:30 24,7 C 71 % 1019,8 hPa 0,0 l/m 6,0 kts (2 Bft) O-SO 121 1 min 3,5 UV-I 613 W/m 19,1 C 23,6 C 11,3 kts (4 Bft) 96,15 %
25.08.2019 14:29 24,7 C 71 % 1019,9 hPa 0,0 l/m 7,2 kts (3 Bft) O-SO 111 1 min 3,5 UV-I 608 W/m 19,1 C 23,2 C 12,1 kts (4 Bft) 100,00 %
25.08.2019 14:28 24,6 C 71 % 1019,8 hPa 0,0 l/m 8,5 kts (3 Bft) O 98 1 min 3,5 UV-I 613 W/m 19,0 C 22,7 C 13,0 kts (4 Bft) 100,00 %
25.08.2019 14:27 24,6 C 70 % 1019,9 hPa 0,0 l/m 6,9 kts (3 Bft) SO 125 1 min 3,5 UV-I 624 W/m 18,8 C 23,2 C 12,1 kts (4 Bft) 100,00 %
25.08.2019 14:26 24,7 C 69 % 1019,9 hPa 0,0 l/m 6,3 kts (2 Bft) SO 140 1 min 3,5 UV-I 622 W/m 18,6 C 23,5 C 9,6 kts (3 Bft) 100,00 %
25.08.2019 14:25 24,8 C 69 % 1019,9 hPa 0,0 l/m 5,0 kts (2 Bft) O 96 1 min 3,5 UV-I 619 W/m 18,7 C 24,1 C 9,6 kts (3 Bft) 100,00 %
25.08.2019 14:24 24,8 C 70 % 1019,9 hPa 0,0 l/m 6,6 kts (3 Bft) S-SW 211 1 min 3,5 UV-I 626 W/m 18,9 C 23,5 C 11,3 kts (4 Bft) 100,00 %
25.08.2019 14:23 24,8 C 70 % 1019,9 hPa 0,0 l/m 6,3 kts (2 Bft) O-SO 116 1 min 3,6 UV-I 621 W/m 18,9 C 23,6 C 10,4 kts (3 Bft) 100,00 %
25.08.2019 14:22 24,9 C 70 % 1019,8 hPa 0,0 l/m 5,8 kts (2 Bft) O-NO 68 1 min 3,6 UV-I 633 W/m 19,0 C 23,9 C 14,8 kts (4 Bft) 100,00 %
25.08.2019 14:21 24,9 C 70 % 1019,9 hPa 0,0 l/m 7,2 kts (3 Bft) N-NO 32 1 min 3,6 UV-I 659 W/m 19,0 C 23,5 C 11,3 kts (4 Bft) 95,24 %
25.08.2019 14:20 24,9 C 69 % 1019,9 hPa 0,0 l/m 5,9 kts (2 Bft) SO 128 1 min 3,7 UV-I 666 W/m 18,8 C 23,9 C 10,4 kts (3 Bft) 100,00 %
25.08.2019 14:19 24,9 C 70 % 1019,8 hPa 0,0 l/m 3,5 kts (2 Bft) SO 136 1 min 3,7 UV-I 664 W/m 19,0 C 24,9 C 7,8 kts (3 Bft) 100,00 %
25.08.2019 14:18 25,0 C 69 % 1019,9 hPa 0,0 l/m 4,2 kts (2 Bft) W-SW 241 1 min 3,7 UV-I 673 W/m 18,9 C 24,6 C 11,3 kts (4 Bft) 100,00 %
25.08.2019 14:17 24,9 C 71 % 1019,8 hPa 0,0 l/m 7,2 kts (3 Bft) O-SO 112 1 min 3,8 UV-I 679 W/m 19,3 C 23,4 C 10,4 kts (3 Bft) 100,00 %
25.08.2019 14:16 24,9 C 69 % 1019,9 hPa 0,0 l/m 8,4 kts (3 Bft) O-SO 118 1 min 3,8 UV-I 686 W/m 18,8 C 23,1 C 12,1 kts (4 Bft) 100,00 %
25.08.2019 14:15 24,9 C 69 % 1019,8 hPa 0,0 l/m 10,0 kts (3 Bft) O 99 1 min 3,8 UV-I 679 W/m 18,8 C 22,7 C 12,1 kts (4 Bft) 100,00 %
25.08.2019 14:14 24,9 C 70 % 1019,8 hPa 0,0 l/m 8,2 kts (3 Bft) S-SO 147 1 min 3,8 UV-I 686 W/m 19,0 C 23,2 C 13,0 kts (4 Bft) 100,00 %
25.08.2019 14:13 24,8 C 70 % 1019,8 hPa 0,0 l/m 5,6 kts (2 Bft) O-SO 107 1 min 3,8 UV-I 671 W/m 18,9 C 23,9 C 10,4 kts (3 Bft) 100,00 %
25.08.2019 14:12 24,9 C 69 % 1019,9 hPa 0,0 l/m 5,7 kts (2 Bft) O-NO 69 1 min 3,8 UV-I 682 W/m 18,8 C 24,0 C 9,6 kts (3 Bft) 100,00 %
25.08.2019 14:11 24,9 C 69 % 1019,8 hPa 0,0 l/m 7,5 kts (3 Bft) O-NO 78 1 min 3,8 UV-I 679 W/m 18,8 C 23,4 C 10,4 kts (3 Bft) 100,00 %
25.08.2019 14:10 24,9 C 71 % 1019,8 hPa 0,0 l/m 3,3 kts (2 Bft) O-NO 75 1 min 3,8 UV-I 668 W/m 19,3 C 24,9 C 10,4 kts (3 Bft) 100,00 %
25.08.2019 14:09 24,8 C 71 % 1019,9 hPa 0,0 l/m 6,6 kts (2 Bft) SO 129 1 min 3,8 UV-I 677 W/m 19,2 C 23,5 C 11,3 kts (4 Bft) 100,00 %
25.08.2019 14:08 24,7 C 71 % 1019,8 hPa 0,0 l/m 4,2 kts (2 Bft) NW 317 1 min 3,9 UV-I 696 W/m 19,1 C 24,4 C 10,4 kts (3 Bft) 98,84 %
25.08.2019 14:07 24,7 C 68 % 1019,8 hPa 0,0 l/m 4,9 kts (2 Bft) W-SW 252 1 min 3,9 UV-I 708 W/m 18,4 C 24,0 C 9,6 kts (3 Bft) 100,00 %
25.08.2019 14:06 24,7 C 68 % 1019,9 hPa 0,0 l/m 5,3 kts (2 Bft) N-NO 20 1 min 4,0 UV-I 717 W/m 18,4 C 23,9 C 9,6 kts (3 Bft) 100,00 %
25.08.2019 14:05 24,8 C 69 % 1019,8 hPa 0,0 l/m 5,9 kts (2 Bft) O-SO 102 1 min 3,9 UV-I 708 W/m 18,7 C 23,8 C 11,3 kts (4 Bft) 94,12 %
25.08.2019 14:04 24,7 C 70 % 1019,9 hPa 0,0 l/m 3,7 kts (2 Bft) NO 55 1 min 3,9 UV-I 700 W/m 18,8 C 24,6 C 7,8 kts (3 Bft) 100,00 %
25.08.2019 14:03 24,7 C 68 % 1019,8 hPa 0,0 l/m 4,3 kts (2 Bft) O 94 1 min 3,9 UV-I 707 W/m 18,4 C 24,3 C 7,8 kts (3 Bft) 100,00 %
25.08.2019 14:02 24,7 C 70 % 1019,8 hPa 0,0 l/m 5,2 kts (2 Bft) SW 217 1 min 3,9 UV-I 700 W/m 18,8 C 23,9 C 8,7 kts (3 Bft) 100,00 %
25.08.2019 14:01 24,7 C 69 % 1019,8 hPa 0,0 l/m 6,3 kts (2 Bft) O-NO 74 1 min 3,9 UV-I 698 W/m 18,6 C 23,5 C 9,6 kts (3 Bft) 95,00 %
25.08.2019 14:00 24,7 C 69 % 1019,9 hPa 0,0 l/m 3,9 kts (2 Bft) O-SO 102 1 min 3,9 UV-I 694 W/m 18,6 C 24,5 C 8,7 kts (3 Bft) 100,00 %
25.08.2019 13:59 24,7 C 68 % 1019,8 hPa 0,0 l/m 5,7 kts (2 Bft) O-NO 62 1 min 3,9 UV-I 689 W/m 18,4 C 23,7 C 9,6 kts (3 Bft) 100,00 %
25.08.2019 13:58 24,7 C 70 % 1019,8 hPa 0,0 l/m 7,2 kts (3 Bft) O 93 1 min 3,8 UV-I 677 W/m 18,8 C 23,2 C 13,0 kts (4 Bft) 100,00 %
25.08.2019 13:57 24,7 C 69 % 1019,9 hPa 0,0 l/m 5,0 kts (2 Bft) S 175 1 min 3,9 UV-I 664 W/m 18,6 C 24,0 C 9,6 kts (3 Bft) 100,00 %
25.08.2019 13:56 24,7 C 69 % 1019,9 hPa 0,0 l/m 3,1 kts (2 Bft) S 189 1 min 3,7 UV-I 624 W/m 18,6 C 24,7 C 5,2 kts (2 Bft) 95,65 %
25.08.2019 13:55 24,7 C 70 % 1019,8 hPa 0,0 l/m 8,1 kts (3 Bft) O 87 1 min 3,6 UV-I 596 W/m 18,8 C 22,9 C 14,8 kts (4 Bft) 100,00 %
25.08.2019 13:54 24,8 C 70 % 1019,8 hPa 0,0 l/m 6,3 kts (2 Bft) SO 130 1 min 3,6 UV-I 568 W/m 18,9 C 23,6 C 11,3 kts (4 Bft) 100,00 %
25.08.2019 13:53 24,8 C 70 % 1019,8 hPa 0,0 l/m 7,7 kts (3 Bft) O 82 1 min 3,7 UV-I 591 W/m 18,9 C 23,2 C 12,1 kts (4 Bft) 100,00 %
25.08.2019 13:52 24,7 C 71 % 1019,8 hPa 0,0 l/m 9,0 kts (3 Bft) O 84 1 min 4,0 UV-I 705 W/m 19,1 C 22,7 C 14,8 kts (4 Bft) 100,00 %
25.08.2019 13:51 24,7 C 70 % 1019,9 hPa 0,0 l/m 4,9 kts (2 Bft) O 93 1 min 4,0 UV-I 705 W/m 18,8 C 24,0 C 14,8 kts (4 Bft) 100,00 %
25.08.2019 13:50 24,7 C 69 % 1019,8 hPa 0,0 l/m 5,9 kts (2 Bft) W 271 1 min 4,1 UV-I 737 W/m 18,6 C 23,6 C 9,6 kts (3 Bft) 100,00 %
25.08.2019 13:49 24,8 C 69 % 1019,9 hPa 0,0 l/m 3,7 kts (2 Bft) S-SO 167 1 min 4,1 UV-I 708 W/m 18,7 C 24,7 C 8,7 kts (3 Bft) 95,65 %
25.08.2019 13:48 24,8 C 70 % 1019,8 hPa 0,0 l/m 5,6 kts (2 Bft) O-NO 73 1 min 4,0 UV-I 652 W/m 18,9 C 23,9 C 11,3 kts (4 Bft) 100,00 %
25.08.2019 13:47 24,7 C 70 % 1019,8 hPa 0,0 l/m 8,2 kts (3 Bft) O 80 1 min 4,0 UV-I 675 W/m 18,8 C 22,9 C 12,1 kts (4 Bft) 100,00 %
25.08.2019 13:46 24,7 C 70 % 1019,8 hPa 0,0 l/m 7,9 kts (3 Bft) O-SO 110 1 min 4,1 UV-I 701 W/m 18,8 C 23,0 C 13,9 kts (4 Bft) 100,00 %
25.08.2019 13:45 24,7 C 70 % 1019,7 hPa 0,0 l/m 7,4 kts (3 Bft) O 83 1 min 4,0 UV-I 680 W/m 18,8 C 23,1 C 11,3 kts (4 Bft) 100,00 %
25.08.2019 13:44 24,7 C 71 % 1019,7 hPa 0,0 l/m 5,9 kts (2 Bft) O-NO 78 1 min 4,0 UV-I 677 W/m 19,1 C 23,6 C 8,7 kts (3 Bft) 100,00 %
25.08.2019 13:43 24,7 C 70 % 1019,8 hPa 0,0 l/m 4,6 kts (2 Bft) N 11 1 min 4,0 UV-I 689 W/m 18,8 C 24,2 C 8,7 kts (3 Bft) 100,00 %
25.08.2019 13:42 24,7 C 71 % 1019,7 hPa 0,0 l/m 5,8 kts (2 Bft) O 79 1 min 3,9 UV-I 671 W/m 19,1 C 23,7 C 11,3 kts (4 Bft) 95,65 %
25.08.2019 13:41 24,7 C 70 % 1019,7 hPa 0,0 l/m 8,2 kts (3 Bft) O-NO 61 1 min 3,9 UV-I 650 W/m 18,8 C 22,9 C 14,8 kts (4 Bft) 100,00 %
25.08.2019 13:40 24,7 C 70 % 1019,7 hPa 0,0 l/m 3,7 kts (2 Bft) N 11 1 min 4,0 UV-I 700 W/m 18,8 C 24,6 C 7,8 kts (3 Bft) 100,00 %
25.08.2019 13:39 24,8 C 70 % 1019,7 hPa 0,0 l/m 3,1 kts (2 Bft) O 98 1 min 3,9 UV-I 654 W/m 18,9 C 24,8 C 7,0 kts (3 Bft) 100,00 %
25.08.2019 13:38 24,9 C 68 % 1019,8 hPa 0,0 l/m 5,5 kts (2 Bft) O 86 1 min 3,9 UV-I 601 W/m 18,6 C 24,0 C 9,6 kts (3 Bft) 100,00 %
25.08.2019 13:37 25,0 C 70 % 1019,8 hPa 0,0 l/m 4,9 kts (2 Bft) S-SO 154 1 min 3,8 UV-I 605 W/m 19,1 C 24,4 C 10,4 kts (3 Bft) 95,65 %
25.08.2019 13:36 24,9 C 70 % 1019,7 hPa 0,0 l/m 6,6 kts (2 Bft) O-SO 120 1 min 4,0 UV-I 650 W/m 19,0 C 23,6 C 11,3 kts (4 Bft) 100,00 %
25.08.2019 13:35 24,8 C 71 % 1019,8 hPa 0,0 l/m 7,5 kts (3 Bft) O-SO 113 1 min 4,1 UV-I 729 W/m 19,2 C 23,3 C 9,6 kts (3 Bft) 100,00 %
25.08.2019 13:34 24,7 C 69 % 1019,8 hPa 0,0 l/m 11,5 kts (4 Bft) O-SO 105 1 min 4,0 UV-I 686 W/m 18,6 C 22,1 C 13,9 kts (4 Bft) 95,83 %
25.08.2019 13:33 24,7 C 69 % 1019,7 hPa 0,0 l/m 9,0 kts (3 Bft) SO 138 1 min 4,0 UV-I 668 W/m 18,6 C 22,7 C 13,9 kts (4 Bft) 95,65 %
25.08.2019 13:32 24,6 C 69 % 1019,8 hPa 0,0 l/m 11,2 kts (4 Bft) O-SO 113 1 min 4,0 UV-I 657 W/m 18,5 C 22,1 C 13,9 kts (4 Bft) 100,00 %
25.08.2019 13:31 24,6 C 70 % 1019,8 hPa 0,0 l/m 10,8 kts (4 Bft) O-SO 112 1 min 4,0 UV-I 680 W/m 18,8 C 22,1 C 13,0 kts (4 Bft) 96,30 %
25.08.2019 13:30 24,6 C 70 % 1019,7 hPa 0,0 l/m 12,6 kts (4 Bft) SO 124 1 min 4,1 UV-I 656 W/m 18,8 C 21,8 C 15,7 kts (5 Bft) 100,00 %
25.08.2019 13:29 24,6 C 70 % 1019,7 hPa 0,0 l/m 8,5 kts (3 Bft) SO 140 1 min 4,0 UV-I 696 W/m 18,8 C 22,7 C 13,9 kts (4 Bft) 91,67 %
25.08.2019 13:28 24,7 C 69 % 1019,7 hPa 0,0 l/m 9,4 kts (3 Bft) O-SO 116 1 min 4,0 UV-I 670 W/m 18,6 C 22,6 C 12,1 kts (4 Bft) 100,00 %
25.08.2019 13:27 24,7 C 68 % 1019,7 hPa 0,0 l/m 11,3 kts (4 Bft) O-SO 114 1 min 3,9 UV-I 670 W/m 18,4 C 22,2 C 13,0 kts (4 Bft) 96,88 %
25.08.2019 13:26 24,6 C 71 % 1019,7 hPa 0,0 l/m 7,9 kts (3 Bft) NO 52 1 min 3,9 UV-I 650 W/m 19,0 C 22,9 C 12,1 kts (4 Bft) 91,67 %
25.08.2019 13:25 24,6 C 70 % 1019,7 hPa 0,0 l/m 13,2 kts (4 Bft) O-SO 105 1 min 4,2 UV-I 733 W/m 18,8 C 21,7 C 14,8 kts (4 Bft) 96,55 %
25.08.2019 13:24 24,5 C 70 % 1019,8 hPa 0,0 l/m 8,1 kts (3 Bft) O-SO 119 1 min 4,4 UV-I 752 W/m 18,7 C 22,7 C 13,9 kts (4 Bft) 92,31 %
25.08.2019 13:23 24,4 C 69 % 1019,8 hPa 0,0 l/m 7,1 kts (3 Bft) O-SO 109 1 min 4,4 UV-I 802 W/m 18,3 C 22,9 C 11,3 kts (4 Bft) 100,00 %
25.08.2019 13:22 24,4 C 71 % 1019,8 hPa 0,0 l/m 10,8 kts (4 Bft) O-SO 118 1 min 4,4 UV-I 800 W/m 18,8 C 21,9 C 13,9 kts (4 Bft) 96,15 %
25.08.2019 13:21 24,4 C 69 % 1019,8 hPa 0,0 l/m 5,2 kts (2 Bft) O-NO 73 1 min 4,4 UV-I 802 W/m 18,3 C 23,6 C 12,1 kts (4 Bft) 100,00 %
25.08.2019 13:20 24,4 C 70 % 1019,8 hPa 0,0 l/m 5,9 kts (2 Bft) O-NO 74 1 min 4,3 UV-I 429 W/m 18,6 C 23,3 C 12,1 kts (4 Bft) 92,86 %
25.08.2019 13:19 24,6 C 69 % 1019,8 hPa 0,0 l/m 3,8 kts (2 Bft) SW 236 1 min 3,6 UV-I 429 W/m 18,5 C 24,4 C 7,0 kts (3 Bft) 100,00 %
25.08.2019 13:18 24,7 C 68 % 1019,8 hPa 0,0 l/m 10,0 kts (3 Bft) SO 131 1 min 3,4 UV-I 636 W/m 18,4 C 22,5 C 14,8 kts (4 Bft) 95,65 %
25.08.2019 13:17 24,8 C 68 % 1019,8 hPa 0,0 l/m 7,8 kts (3 Bft) O 97 1 min 3,7 UV-I 636 W/m 18,5 C 23,1 C 13,0 kts (4 Bft) 96,55 %
25.08.2019 13:16 24,8 C 70 % 1019,8 hPa 0,0 l/m 8,6 kts (3 Bft) W 261 1 min 3,9 UV-I 800 W/m 18,9 C 22,9 C 13,0 kts (4 Bft) 100,00 %
25.08.2019 13:15 24,7 C 72 % 1019,7 hPa 0,0 l/m 6,6 kts (3 Bft) O-SO 107 1 min 4,3 UV-I 800 W/m 19,3 C 23,4 C 12,1 kts (4 Bft) 92,86 %
25.08.2019 13:14 24,6 C 71 % 1019,7 hPa 0,0 l/m 6,1 kts (2 Bft) SO 126 1 min 4,5 UV-I 835 W/m 19,0 C 23,5 C 7,8 kts (3 Bft) 100,00 %
25.08.2019 13:13 24,5 C 70 % 1019,9 hPa 0,0 l/m 7,8 kts (3 Bft) O-SO 113 1 min 4,5 UV-I 821 W/m 18,7 C 22,8 C 9,6 kts (3 Bft) 91,30 %
25.08.2019 13:12 24,5 C 69 % 1019,8 hPa 0,0 l/m 8,8 kts (3 Bft) O 100 1 min 4,3 UV-I 752 W/m 18,4 C 22,5 C 12,1 kts (4 Bft) 100,00 %
25.08.2019 13:11 24,5 C 69 % 1019,8 hPa 0,0 l/m 7,0 kts (3 Bft) O 95 1 min 4,1 UV-I 708 W/m 18,4 C 23,0 C 9,6 kts (3 Bft) 96,15 %
25.08.2019 13:10 24,6 C 68 % 1019,9 hPa 0,0 l/m 5,0 kts (2 Bft) NO 47 1 min 3,9 UV-I 617 W/m 18,3 C 23,9 C 8,7 kts (3 Bft) 100,00 %
25.08.2019 13:09 24,5 C 67 % 1019,8 hPa 0,0 l/m 8,7 kts (3 Bft) O 90 1 min 3,7 UV-I 540 W/m 18,0 C 22,5 C 10,4 kts (3 Bft) 100,00 %
25.08.2019 13:08 24,5 C 70 % 1019,8 hPa 0,0 l/m 7,9 kts (3 Bft) O 97 1 min 3,7 UV-I 856 W/m 18,7 C 22,7 C 11,3 kts (4 Bft) 100,00 %
25.08.2019 13:07 24,4 C 68 % 1019,8 hPa 0,0 l/m 4,7 kts (2 Bft) O-NO 78 1 min 4,5 UV-I 856 W/m 18,1 C 23,8 C 11,3 kts (4 Bft) 100,00 %
25.08.2019 13:06 24,3 C 70 % 1019,9 hPa 0,0 l/m 2,9 kts (1 Bft) SW 221 1 min 4,5 UV-I 856 W/m 18,5 C 24,3 C 6,1 kts (2 Bft) 100,00 %
25.08.2019 13:05 24,3 C 70 % 1019,8 hPa 0,0 l/m 4,2 kts (2 Bft) S-SO 150 1 min 4,5 UV-I 868 W/m 18,5 C 23,9 C 7,0 kts (3 Bft) 100,00 %
25.08.2019 13:04 24,1 C 71 % 1019,8 hPa 0,0 l/m 8,2 kts (3 Bft) O 80 1 min 4,5 UV-I 882 W/m 18,5 C 22,2 C 11,3 kts (4 Bft) 100,00 %
25.08.2019 13:03 23,9 C 69 % 1019,9 hPa 0,0 l/m 5,8 kts (2 Bft) O 94 1 min 4,4 UV-I 455 W/m 17,9 C 22,8 C 11,3 kts (4 Bft) 100,00 %
25.08.2019 13:02 23,8 C 70 % 1019,8 hPa 0,0 l/m 7,0 kts (3 Bft) O 88 1 min 3,8 UV-I 455 W/m 18,0 C 22,2 C 10,4 kts (3 Bft) 100,00 %
25.08.2019 13:01 23,8 C 69 % 1019,8 hPa 0,0 l/m 6,7 kts (3 Bft) N-NO 25 1 min 3,3 UV-I 455 W/m 17,8 C 22,3 C 10,4 kts (3 Bft) 90,91 %
25.08.2019 13:00 23,8 C 70 % 1019,9 hPa 0,0 l/m 7,8 kts (3 Bft) O 94 1 min 3,2 UV-I 455 W/m 18,0 C 21,9 C 12,1 kts (4 Bft) 100,00 %
25.08.2019 12:59 23,9 C 69 % 1019,9 hPa 0,0 l/m 4,6 kts (2 Bft) S-SO 148 1 min 3,2 UV-I 438 W/m 17,9 C 23,3 C 8,7 kts (3 Bft) 100,00 %
25.08.2019 12:58 23,9 C 72 % 1019,8 hPa 0,0 l/m 6,5 kts (2 Bft) S-SO 151 1 min 3,3 UV-I 436 W/m 18,5 C 22,5 C 8,7 kts (3 Bft) 98,88 %
25.08.2019 12:57 23,9 C 68 % 1019,8 hPa 0,0 l/m 7,2 kts (3 Bft) O-SO 108 1 min 3,3 UV-I 434 W/m 17,6 C 22,3 C 9,6 kts (3 Bft) 100,00 %
25.08.2019 12:56 24,0 C 68 % 1019,9 hPa 0,0 l/m 3,7 kts (2 Bft) O 89 1 min 3,4 UV-I 450 W/m 17,7 C 23,9 C 8,7 kts (3 Bft) 100,00 %
25.08.2019 12:55 24,2 C 67 % 1019,9 hPa 0,0 l/m 4,7 kts (2 Bft) S-SO 168 1 min 3,5 UV-I 443 W/m 17,7 C 23,6 C 9,6 kts (3 Bft) 100,00 %
25.08.2019 12:54 24,4 C 68 % 1019,8 hPa 0,0 l/m 9,1 kts (3 Bft) O-NO 58 1 min 3,6 UV-I 584 W/m 18,1 C 22,3 C 11,3 kts (4 Bft) 100,00 %
25.08.2019 12:53 24,6 C 67 % 1019,8 hPa 0,0 l/m 4,8 kts (2 Bft) S-SW 201 1 min 3,7 UV-I 584 W/m 18,1 C 24,0 C 7,0 kts (3 Bft) 100,00 %
25.08.2019 12:52 24,7 C 68 % 1019,8 hPa 0,0 l/m 9,8 kts (3 Bft) O-SO 110 1 min 4,0 UV-I 853 W/m 18,4 C 22,5 C 12,1 kts (4 Bft) 100,00 %
25.08.2019 12:51 24,7 C 67 % 1019,8 hPa 0,0 l/m 7,7 kts (3 Bft) O 99 1 min 4,2 UV-I 853 W/m 18,1 C 23,1 C 11,3 kts (4 Bft) 100,00 %
25.08.2019 12:50 24,7 C 69 % 1019,8 hPa 0,0 l/m 5,7 kts (2 Bft) NO 38 1 min 4,6 UV-I 853 W/m 18,6 C 23,7 C 9,6 kts (3 Bft) 100,00 %
25.08.2019 12:49 24,6 C 70 % 1019,8 hPa 0,0 l/m 6,6 kts (2 Bft) O-SO 103 1 min 4,6 UV-I 837 W/m 18,8 C 23,3 C 10,4 kts (3 Bft) 98,87 %
25.08.2019 12:48 24,4 C 72 % 1019,8 hPa 0,0 l/m 7,9 kts (3 Bft) O-SO 111 1 min 4,6 UV-I 830 W/m 19,0 C 22,6 C 12,1 kts (4 Bft) 100,00 %
25.08.2019 12:47 24,2 C 70 % 1019,8 hPa 0,0 l/m 8,4 kts (3 Bft) S-SO 147 1 min 4,6 UV-I 817 W/m 18,4 C 22,2 C 9,6 kts (3 Bft) 100,00 %
25.08.2019 12:46 24,0 C 70 % 1019,8 hPa 0,0 l/m 5,4 kts (2 Bft) O 98 1 min 4,6 UV-I 817 W/m 18,2 C 23,1 C 7,8 kts (3 Bft) 100,00 %
25.08.2019 12:45 24,1 C 68 % 1019,8 hPa 0,0 l/m 6,2 kts (2 Bft) O-SO 103 1 min 4,6 UV-I 826 W/m 17,8 C 22,9 C 8,7 kts (3 Bft) 100,00 %
25.08.2019 12:44 24,2 C 70 % 1019,7 hPa 0,0 l/m 5,7 kts (2 Bft) O-NO 76 1 min 4,6 UV-I 828 W/m 18,4 C 23,1 C 9,6 kts (3 Bft) 100,00 %
25.08.2019 12:43 24,1 C 70 % 1019,8 hPa 0,0 l/m 4,8 kts (2 Bft) O 86 1 min 4,6 UV-I 831 W/m 18,3 C 23,5 C 9,6 kts (3 Bft) 98,85 %
25.08.2019 12:42 24,0 C 70 % 1019,8 hPa 0,0 l/m 5,4 kts (2 Bft) NW 325 1 min 4,6 UV-I 817 W/m 18,2 C 23,1 C 8,7 kts (3 Bft) 100,00 %
25.08.2019 12:41 23,9 C 69 % 1019,8 hPa 0,0 l/m 6,5 kts (2 Bft) S-SW 207 1 min 4,5 UV-I 805 W/m 17,9 C 22,5 C 9,6 kts (3 Bft) 100,00 %
25.08.2019 12:40 24,0 C 71 % 1019,7 hPa 0,0 l/m 3,9 kts (2 Bft) O 94 1 min 4,5 UV-I 793 W/m 18,4 C 23,8 C 9,6 kts (3 Bft) 100,00 %
25.08.2019 12:39 24,0 C 70 % 1019,7 hPa 0,0 l/m 2,2 kts (1 Bft) S-SO 157 1 min 4,5 UV-I 788 W/m 18,2 C 24,0 C 5,2 kts (2 Bft) 100,00 %
25.08.2019 12:38 24,0 C 72 % 1019,8 hPa 0,0 l/m 4,6 kts (2 Bft) N-NO 15 1 min 4,5 UV-I 786 W/m 18,6 C 23,4 C 7,8 kts (3 Bft) 100,00 %
25.08.2019 12:37 23,9 C 70 % 1019,8 hPa 0,0 l/m 7,1 kts (3 Bft) O-NO 57 1 min 4,5 UV-I 786 W/m 18,1 C 22,3 C 9,6 kts (3 Bft) 100,00 %
25.08.2019 12:36 23,9 C 70 % 1019,8 hPa 0,0 l/m 8,0 kts (3 Bft) O-SO 103 1 min 4,4 UV-I 768 W/m 18,1 C 22,0 C 9,6 kts (3 Bft) 98,84 %
25.08.2019 12:35 24,0 C 69 % 1019,8 hPa 0,0 l/m 2,2 kts (1 Bft) SO 127 1 min 4,5 UV-I 756 W/m 18,0 C 24,0 C 7,0 kts (3 Bft) 100,00 %
25.08.2019 12:34 24,0 C 71 % 1019,9 hPa 0,0 l/m 4,3 kts (2 Bft) S 173 1 min 4,4 UV-I 763 W/m 18,4 C 23,6 C 7,8 kts (3 Bft) 100,00 %
25.08.2019 12:33 23,9 C 73 % 1019,8 hPa 0,0 l/m 4,5 kts (2 Bft) S-SO 151 1 min 4,4 UV-I 779 W/m 18,8 C 23,4 C 7,8 kts (3 Bft) 100,00 %
25.08.2019 12:32 23,7 C 71 % 1019,8 hPa 0,0 l/m 6,9 kts (3 Bft) O 101 1 min 4,5 UV-I 791 W/m 18,1 C 22,2 C 9,6 kts (3 Bft) 100,00 %
25.08.2019 12:31 23,6 C 71 % 1019,9 hPa 0,0 l/m 6,6 kts (3 Bft) O-SO 119 1 min 3,5 UV-I 803 W/m 18,0 C 22,1 C 11,3 kts (4 Bft) 100,00 %
25.08.2019 12:30 23,6 C 71 % 1019,9 hPa 0,0 l/m 3,8 kts (2 Bft) O 95 1 min 3,5 UV-I 795 W/m 18,0 C 23,4 C 7,8 kts (3 Bft) 100,00 %
25.08.2019 12:29 23,4 C 71 % 1019,8 hPa 0,0 l/m 5,5 kts (2 Bft) O-SO 106 1 min 3,4 UV-I 796 W/m 17,8 C 22,4 C 9,6 kts (3 Bft) 100,00 %
25.08.2019 12:28 23,3 C 70 % 1019,9 hPa 0,0 l/m 6,0 kts (2 Bft) O-NO 63 1 min 4,4 UV-I 789 W/m 17,5 C 22,0 C 8,7 kts (3 Bft) 95,83 %
25.08.2019 12:27 23,2 C 71 % 1019,8 hPa 0,0 l/m 7,0 kts (3 Bft) O 93 1 min 4,3 UV-I 773 W/m 17,6 C 21,5 C 10,4 kts (3 Bft) 100,00 %
25.08.2019 12:26 23,2 C 71 % 1019,9 hPa 0,0 l/m 5,1 kts (2 Bft) SO 134 1 min 4,4 UV-I 795 W/m 17,6 C 22,3 C 9,6 kts (3 Bft) 100,00 %
25.08.2019 12:25 23,1 C 71 % 1019,9 hPa 0,0 l/m 6,5 kts (2 Bft) O-NO 63 1 min 4,0 UV-I 726 W/m 17,5 C 21,6 C 8,7 kts (3 Bft) 100,00 %
25.08.2019 12:24 23,1 C 72 % 1019,9 hPa 0,0 l/m 8,4 kts (3 Bft) SO 139 1 min 4,2 UV-I 427 W/m 17,8 C 20,9 C 11,3 kts (4 Bft) 100,00 %
25.08.2019 12:23 23,1 C 72 % 1020,0 hPa 0,0 l/m 7,4 kts (3 Bft) O 80 1 min 4,1 UV-I 427 W/m 17,8 C 21,2 C 10,4 kts (3 Bft) 95,65 %
25.08.2019 12:22 23,0 C 72 % 1019,9 hPa 0,0 l/m 8,3 kts (3 Bft) O 83 1 min 3,9 UV-I 427 W/m 17,7 C 20,8 C 9,6 kts (3 Bft) 100,00 %
25.08.2019 12:21 23,1 C 71 % 1020,0 hPa 0,0 l/m 6,3 kts (2 Bft) O-NO 71 1 min 3,5 UV-I 427 W/m 17,5 C 21,7 C 9,6 kts (3 Bft) 100,00 %
25.08.2019 12:20 23,2 C 70 % 1020,0 hPa 0,0 l/m 5,6 kts (2 Bft) O 81 1 min 2,9 UV-I 313 W/m 17,4 C 22,1 C 8,7 kts (3 Bft) 100,00 %
25.08.2019 12:19 23,3 C 71 % 1019,9 hPa 0,0 l/m 2,7 kts (1 Bft) SO 146 1 min 2,9 UV-I 313 W/m 17,7 C 23,3 C 7,0 kts (3 Bft) 100,00 %
25.08.2019 12:18 23,4 C 69 % 1020,0 hPa 0,0 l/m 8,5 kts (3 Bft) O 100 1 min 3,0 UV-I 608 W/m 17,4 C 21,2 C 11,3 kts (4 Bft) 100,00 %
25.08.2019 12:17 23,5 C 68 % 1020,0 hPa 0,0 l/m 7,4 kts (3 Bft) O-SO 115 1 min 3,4 UV-I 608 W/m 17,2 C 21,7 C 11,3 kts (4 Bft) 100,00 %
25.08.2019 12:16 23,5 C 70 % 1020,0 hPa 0,0 l/m 8,6 kts (3 Bft) O 91 1 min 3,9 UV-I 661 W/m 17,7 C 21,3 C 13,0 kts (4 Bft) 100,00 %
25.08.2019 12:15 23,5 C 70 % 1020,0 hPa 0,0 l/m 4,5 kts (2 Bft) NO 38 1 min 3,7 UV-I 661 W/m 17,7 C 22,9 C 8,7 kts (3 Bft) 100,00 %
25.08.2019 12:14 23,5 C 72 % 1020,0 hPa 0,0 l/m 4,9 kts (2 Bft) O-NO 71 1 min 4,0 UV-I 661 W/m 18,2 C 22,7 C 10,4 kts (3 Bft) 100,00 %
25.08.2019 12:13 23,3 C 72 % 1020,0 hPa 0,0 l/m 4,0 kts (2 Bft) O-SO 118 1 min 4,0 UV-I 640 W/m 18,0 C 23,0 C 11,3 kts (4 Bft) 95,65 %
25.08.2019 12:12 23,3 C 71 % 1020,0 hPa 0,0 l/m 8,0 kts (3 Bft) O-SO 121 1 min 4,1 UV-I 715 W/m 17,7 C 21,3 C 9,6 kts (3 Bft) 95,83 %
25.08.2019 12:11 23,3 C 69 % 1020,1 hPa 0,0 l/m 7,1 kts (3 Bft) O 82 1 min 4,1 UV-I 722 W/m 17,3 C 21,6 C 10,4 kts (3 Bft) 100,00 %
25.08.2019 12:10 23,3 C 71 % 1020,0 hPa 0,0 l/m 5,7 kts (2 Bft) NO 55 1 min 4,1 UV-I 708 W/m 17,7 C 22,2 C 11,3 kts (4 Bft) 100,00 %
25.08.2019 12:09 23,3 C 71 % 1020,0 hPa 0,0 l/m 5,8 kts (2 Bft) S 189 1 min 4,1 UV-I 726 W/m 17,7 C 22,1 C 10,4 kts (3 Bft) 100,00 %
25.08.2019 12:08 23,3 C 71 % 1020,1 hPa 0,0 l/m 2,4 kts (1 Bft) NW 304 1 min 4,0 UV-I 707 W/m 17,7 C 23,3 C 4,3 kts (2 Bft) 92,86 %
25.08.2019 12:07 23,3 C 71 % 1020,0 hPa 0,0 l/m 4,3 kts (2 Bft) O-SO 102 1 min 4,0 UV-I 663 W/m 17,7 C 22,8 C 10,4 kts (3 Bft) 96,30 %
25.08.2019 12:06 23,2 C 72 % 1020,0 hPa 0,0 l/m 4,0 kts (2 Bft) S-SW 196 1 min 4,0 UV-I 649 W/m 17,9 C 22,9 C 7,0 kts (3 Bft) 100,00 %
25.08.2019 12:05 23,2 C 72 % 1020,1 hPa 0,0 l/m 3,5 kts (2 Bft) NO 53 1 min 4,0 UV-I 664 W/m 17,9 C 23,2 C 8,7 kts (3 Bft) 96,55 %
25.08.2019 12:04 23,2 C 71 % 1020,1 hPa 0,0 l/m 8,0 kts (3 Bft) O-NO 68 1 min 4,0 UV-I 663 W/m 17,6 C 21,1 C 12,1 kts (4 Bft) 100,00 %
25.08.2019 12:03 23,1 C 72 % 1020,2 hPa 0,0 l/m 7,6 kts (3 Bft) O 85 1 min 4,0 UV-I 657 W/m 17,8 C 21,2 C 10,4 kts (3 Bft) 96,55 %
25.08.2019 12:02 23,1 C 72 % 1020,1 hPa 0,0 l/m 6,0 kts (2 Bft) N-NW 327 1 min 4,0 UV-I 643 W/m 17,8 C 21,8 C 10,4 kts (3 Bft) 100,00 %
25.08.2019 12:01 23,1 C 71 % 1020,1 hPa 0,0 l/m 3,8 kts (2 Bft) O 82 1 min 4,0 UV-I 673 W/m 17,5 C 22,9 C 7,0 kts (3 Bft) 96,55 %
25.08.2019 12:00 23,1 C 72 % 1020,1 hPa 0,0 l/m 5,1 kts (2 Bft) O 84 1 min 3,9 UV-I 657 W/m 17,8 C 22,2 C 9,6 kts (3 Bft) 97,78 %
25.08.2019 11:59 23,1 C 72 % 1020,1 hPa 0,0 l/m 2,9 kts (1 Bft) S-SW 194 1 min 3,9 UV-I 636 W/m 17,8 C 23,1 C 7,0 kts (3 Bft) 98,85 %
25.08.2019 11:58 23,1 C 71 % 1020,1 hPa 0,0 l/m 5,2 kts (2 Bft) O 94 1 min 3,8 UV-I 617 W/m 17,5 C 22,1 C 5,2 kts (2 Bft) 98,85 %
25.08.2019 11:57 23,1 C 71 % 1020,1 hPa 0,0 l/m 6,7 kts (3 Bft) O 82 2 min 3,8 UV-I 617 W/m 17,5 C 21,5 C 7,8 kts (3 Bft) 98,85 %
25.08.2019 11:55 23,3 C 71 % 1020,1 hPa 0,0 l/m 3,2 kts (2 Bft) O-SO 118 1 min 3,9 UV-I 647 W/m 17,7 C 23,3 C 5,2 kts (2 Bft) 98,85 %
25.08.2019 11:54 23,3 C 71 % 1020,1 hPa 0,0 l/m 6,2 kts (2 Bft) S 169 1 min 3,9 UV-I 670 W/m 17,7 C 21,9 C 10,4 kts (3 Bft) 96,15 %
25.08.2019 11:53 23,3 C 71 % 1020,2 hPa 0,0 l/m 8,2 kts (3 Bft) O 80 1 min 4,0 UV-I 684 W/m 17,7 C 21,2 C 11,3 kts (4 Bft) 100,00 %
25.08.2019 11:52 23,3 C 70 % 1020,2 hPa 0,0 l/m 10,6 kts (3 Bft) O-SO 105 1 min 4,0 UV-I 666 W/m 17,5 C 20,5 C 13,9 kts (4 Bft) 96,15 %
25.08.2019 11:51 23,3 C 71 % 1020,2 hPa 0,0 l/m 6,4 kts (2 Bft) O-NO 68 1 min 3,9 UV-I 666 W/m 17,7 C 21,9 C 13,9 kts (4 Bft) 96,15 %
25.08.2019 11:50 23,4 C 71 % 1020,1 hPa 0,0 l/m 4,4 kts (2 Bft) N 5 1 min 3,9 UV-I 659 W/m 17,8 C 22,9 C 8,7 kts (3 Bft) 100,00 %
25.08.2019 11:49 23,4 C 70 % 1020,2 hPa 0,0 l/m 5,7 kts (2 Bft) O-SO 105 1 min 3,9 UV-I 664 W/m 17,6 C 22,3 C 9,6 kts (3 Bft) 96,15 %
25.08.2019 11:48 23,4 C 71 % 1020,2 hPa 0,0 l/m 5,2 kts (2 Bft) SO 131 1 min 3,9 UV-I 673 W/m 17,8 C 22,5 C 9,6 kts (3 Bft) 100,00 %
25.08.2019 11:47 23,3 C 71 % 1020,2 hPa 0,0 l/m 4,3 kts (2 Bft) S 188 1 min 4,0 UV-I 677 W/m 17,7 C 22,8 C 8,7 kts (3 Bft) 92,86 %
25.08.2019 11:46 23,3 C 73 % 1020,2 hPa 0,0 l/m 6,8 kts (3 Bft) O-SO 107 1 min 4,0 UV-I 675 W/m 18,2 C 21,7 C 12,1 kts (4 Bft) 100,00 %
25.08.2019 11:45 23,3 C 71 % 1020,2 hPa 0,0 l/m 4,5 kts (2 Bft) S-SW 198 1 min 4,0 UV-I 675 W/m 17,7 C 22,7 C 8,7 kts (3 Bft) 96,67 %
25.08.2019 11:44 23,2 C 72 % 1020,3 hPa 0,0 l/m 4,2 kts (2 Bft) SW 232 1 min 4,0 UV-I 675 W/m 17,9 C 22,8 C 8,7 kts (3 Bft) 96,15 %
25.08.2019 11:43 23,2 C 71 % 1020,2 hPa 0,0 l/m 2,9 kts (1 Bft) NW 321 1 min 4,0 UV-I 679 W/m 17,6 C 23,2 C 7,0 kts (3 Bft) 93,33 %
25.08.2019 11:42 23,1 C 74 % 1020,2 hPa 0,0 l/m 2,6 kts (1 Bft) S 188 1 min 3,9 UV-I 677 W/m 18,2 C 23,1 C 6,1 kts (2 Bft) 100,00 %
25.08.2019 11:41 23,1 C 72 % 1020,2 hPa 0,0 l/m 2,6 kts (1 Bft) SW 226 1 min 3,9 UV-I 675 W/m 17,8 C 23,1 C 3,5 kts (2 Bft) 100,00 %
25.08.2019 11:40 23,1 C 73 % 1020,2 hPa 0,0 l/m 3,0 kts (1 Bft) O-NO 74 1 min 3,9 UV-I 677 W/m 18,0 C 23,1 C 6,1 kts (2 Bft) 100,00 %
25.08.2019 11:39 23,1 C 72 % 1020,1 hPa 0,0 l/m 3,2 kts (2 Bft) O 79 1 min 3,9 UV-I 673 W/m 17,8 C 23,1 C 5,2 kts (2 Bft) 100,00 %
25.08.2019 11:38 23,1 C 71 % 1020,3 hPa 0,0 l/m 7,3 kts (3 Bft) O-NO 69 1 min 3,9 UV-I 670 W/m 17,5 C 21,3 C 11,3 kts (4 Bft) 100,00 %
25.08.2019 11:37 23,1 C 73 % 1020,0 hPa 0,0 l/m 3,9 kts (2 Bft) O-SO 107 2 min 3,9 UV-I 666 W/m 18,0 C 22,8 C 7,8 kts (3 Bft) 98,87 %
25.08.2019 11:35 22,9 C 73 % 1020,1 hPa 0,0 l/m 6,2 kts (2 Bft) O-NO 78 1 min 3,8 UV-I 666 W/m 17,8 C 21,5 C 7,8 kts (3 Bft) 98,87 %
25.08.2019 11:34 22,9 C 73 % 1020,1 hPa 0,0 l/m 7,3 kts (3 Bft) S-SW 192 1 min 3,8 UV-I 666 W/m 17,8 C 21,1 C 11,3 kts (4 Bft) 98,87 %
25.08.2019 11:33 22,8 C 74 % 1020,1 hPa 0,0 l/m 7,5 kts (3 Bft) O 96 1 min 3,8 UV-I 666 W/m 17,9 C 20,9 C 10,4 kts (3 Bft) 100,00 %
25.08.2019 11:32 22,7 C 72 % 1020,0 hPa 0,0 l/m 7,7 kts (3 Bft) O 88 1 min 3,8 UV-I 661 W/m 17,4 C 20,7 C 11,3 kts (4 Bft) 100,00 %
25.08.2019 11:31 22,7 C 73 % 1020,1 hPa 0,0 l/m 7,0 kts (3 Bft) O-SO 111 1 min 3,8 UV-I 659 W/m 17,6 C 20,9 C 8,7 kts (3 Bft) 100,00 %
25.08.2019 11:30 22,7 C 72 % 1020,1 hPa 0,0 l/m 9,3 kts (3 Bft) O 97 1 min 3,8 UV-I 657 W/m 17,4 C 20,1 C 10,4 kts (3 Bft) 100,00 %
25.08.2019 11:29 22,8 C 72 % 1020,1 hPa 0,0 l/m 6,7 kts (3 Bft) O-NO 77 1 min 3,8 UV-I 661 W/m 17,5 C 21,2 C 8,7 kts (3 Bft) 100,00 %
25.08.2019 11:28 22,9 C 71 % 1020,2 hPa 0,0 l/m 3,4 kts (2 Bft) SO 144 1 min 3,8 UV-I 661 W/m 17,4 C 22,9 C 6,1 kts (2 Bft) 100,00 %
25.08.2019 11:27 23,1 C 73 % 1020,2 hPa 0,0 l/m 4,0 kts (2 Bft) O 80 1 min 3,8 UV-I 664 W/m 18,0 C 22,8 C 7,8 kts (3 Bft) 100,00 %
25.08.2019 11:26 23,2 C 71 % 1020,1 hPa 0,0 l/m 8,3 kts (3 Bft) O 89 1 min 3,8 UV-I 670 W/m 17,6 C 21,1 C 13,0 kts (4 Bft) 97,73 %
25.08.2019 11:25 23,1 C 73 % 1020,1 hPa 0,0 l/m 5,3 kts (2 Bft) O-SO 107 1 min 3,8 UV-I 668 W/m 18,0 C 22,1 C 11,3 kts (4 Bft) 98,85 %
25.08.2019 11:24 23,0 C 74 % 1020,1 hPa 0,0 l/m 3,9 kts (2 Bft) O 82 1 min 3,8 UV-I 671 W/m 18,1 C 22,7 C 6,1 kts (2 Bft) 100,00 %
25.08.2019 11:23 22,9 C 74 % 1020,2 hPa 0,0 l/m 5,5 kts (2 Bft) S-SO 148 1 min 3,8 UV-I 670 W/m 18,0 C 21,8 C 8,7 kts (3 Bft) 96,15 %
25.08.2019 11:22 22,8 C 75 % 1020,2 hPa 0,0 l/m 6,9 kts (3 Bft) O-SO 107 1 min 3,8 UV-I 671 W/m 18,1 C 21,1 C 9,6 kts (3 Bft) 100,00 %
25.08.2019 11:21 22,6 C 75 % 1020,2 hPa 0,0 l/m 8,0 kts (3 Bft) O 88 1 min 3,4 UV-I 675 W/m 17,9 C 20,4 C 10,4 kts (3 Bft) 100,00 %
25.08.2019 11:20 22,6 C 76 % 1020,2 hPa 0,0 l/m 4,5 kts (2 Bft) O-SO 107 1 min 3,3 UV-I 320 W/m 18,1 C 22,0 C 8,7 kts (3 Bft) 100,00 %
25.08.2019 11:19 22,5 C 74 % 1020,2 hPa 0,0 l/m 2,4 kts (1 Bft) W 268 1 min 3,7 UV-I 320 W/m 17,6 C 22,5 C 5,2 kts (2 Bft) 100,00 %
25.08.2019 11:18 22,4 C 74 % 1020,2 hPa 0,0 l/m 5,2 kts (2 Bft) S-SO 157 1 min 3,7 UV-I 343 W/m 17,5 C 21,4 C 10,4 kts (3 Bft) 100,00 %
25.08.2019 11:17 22,3 C 77 % 1020,2 hPa 0,0 l/m 2,9 kts (1 Bft) N-NO 32 1 min 3,7 UV-I 673 W/m 18,1 C 22,3 C 8,7 kts (3 Bft) 100,00 %
25.08.2019 11:16 22,2 C 77 % 1020,2 hPa 0,0 l/m 8,0 kts (3 Bft) O 90 1 min 3,7 UV-I 673 W/m 18,0 C 20,0 C 10,4 kts (3 Bft) 100,00 %
25.08.2019 11:15 22,1 C 75 % 1020,1 hPa 0,0 l/m 6,3 kts (2 Bft) NO 51 1 min 3,6 UV-I 677 W/m 17,5 C 20,5 C 10,4 kts (3 Bft) 100,00 %
25.08.2019 11:14 22,2 C 75 % 1020,3 hPa 0,0 l/m 4,2 kts (2 Bft) O 92 1 min 3,5 UV-I 654 W/m 17,5 C 21,7 C 7,8 kts (3 Bft) 100,00 %
25.08.2019 11:13 22,2 C 76 % 1020,4 hPa 0,0 l/m 3,8 kts (2 Bft) N-NO 13 1 min 3,5 UV-I 629 W/m 17,8 C 22,0 C 6,1 kts (2 Bft) 100,00 %
25.08.2019 11:12 22,2 C 75 % 1020,4 hPa 0,0 l/m 3,0 kts (1 Bft) O 80 2 min 3,4 UV-I 599 W/m 17,5 C 22,2 C 6,1 kts (2 Bft) 100,00 %
25.08.2019 11:10 22,1 C 78 % 1020,2 hPa 0,0 l/m 3,6 kts (2 Bft) O-NO 66 1 min 3,1 UV-I 529 W/m 18,1 C 22,0 C 7,0 kts (3 Bft) 100,00 %
25.08.2019 11:09 22,0 C 76 % 1020,2 hPa 0,0 l/m 4,5 kts (2 Bft) O-SO 121 1 min 3,0 UV-I 508 W/m 17,6 C 21,3 C 9,6 kts (3 Bft) 100,00 %
25.08.2019 11:08 21,9 C 78 % 1020,1 hPa 0,0 l/m 4,4 kts (2 Bft) S 184 1 min 2,9 UV-I 473 W/m 17,9 C 21,3 C 8,7 kts (3 Bft) 100,00 %
25.08.2019 11:07 21,9 C 77 % 1020,2 hPa 0,0 l/m 3,8 kts (2 Bft) O-SO 112 1 min 2,9 UV-I 461 W/m 17,7 C 21,7 C 7,8 kts (3 Bft) 100,00 %
25.08.2019 11:06 21,8 C 77 % 1020,3 hPa 0,0 l/m 3,0 kts (1 Bft) SO 126 1 min 2,9 UV-I 492 W/m 17,6 C 21,8 C 6,1 kts (2 Bft) 100,00 %
25.08.2019 11:05 21,8 C 78 % 1020,3 hPa 0,0 l/m 2,1 kts (1 Bft) O 98 1 min 2,9 UV-I 517 W/m 17,8 C 21,8 C 5,2 kts (2 Bft) 100,00 %
25.08.2019 11:04 21,8 C 78 % 1020,2 hPa 0,0 l/m 1,9 kts (1 Bft) NW 323 1 min 2,9 UV-I 513 W/m 17,8 C 21,8 C 4,3 kts (2 Bft) 91,67 %
25.08.2019 11:03 21,8 C 78 % 1020,1 hPa 0,0 l/m 3,7 kts (2 Bft) S 175 1 min 2,9 UV-I 494 W/m 17,8 C 21,7 C 9,6 kts (3 Bft) 96,15 %
25.08.2019 11:02 21,7 C 79 % 1020,2 hPa 0,0 l/m 4,8 kts (2 Bft) O 86 1 min 2,9 UV-I 512 W/m 17,9 C 20,9 C 10,4 kts (3 Bft) 95,83 %
25.08.2019 11:01 21,6 C 80 % 1020,1 hPa 0,0 l/m 2,1 kts (1 Bft) O-NO 58 1 min 3,0 UV-I 512 W/m 18,0 C 21,6 C 5,2 kts (2 Bft) 95,65 %
25.08.2019 11:00 21,6 C 80 % 1020,1 hPa 0,0 l/m 3,5 kts (2 Bft) O 81 1 min 2,9 UV-I 483 W/m 18,0 C 21,6 C 7,0 kts (3 Bft) 100,00 %
25.08.2019 10:59 21,6 C 79 % 1020,3 hPa 0,0 l/m 6,1 kts (2 Bft) O 98 1 min 2,9 UV-I 497 W/m 17,8 C 20,1 C 8,7 kts (3 Bft) 95,65 %
25.08.2019 10:58 21,6 C 79 % 1020,2 hPa 0,0 l/m 3,7 kts (2 Bft) O-NO 69 1 min 2,8 UV-I 457 W/m 17,8 C 21,5 C 7,8 kts (3 Bft) 95,65 %
25.08.2019 10:57 21,6 C 79 % 1020,2 hPa 0,0 l/m 3,4 kts (2 Bft) O-NO 76 1 min 2,8 UV-I 464 W/m 17,8 C 21,6 C 7,0 kts (3 Bft) 100,00 %
25.08.2019 10:56 21,6 C 79 % 1020,2 hPa 0,0 l/m 5,1 kts (2 Bft) N-NO 31 1 min 2,9 UV-I 519 W/m 17,8 C 20,6 C 7,8 kts (3 Bft) 100,00 %
25.08.2019 10:55 21,6 C 79 % 1020,3 hPa 0,0 l/m 2,5 kts (1 Bft) O-SO 106 1 min 2,9 UV-I 533 W/m 17,8 C 21,6 C 7,8 kts (3 Bft) 100,00 %
25.08.2019 10:54 21,6 C 79 % 1020,4 hPa 0,0 l/m 4,4 kts (2 Bft) O-SO 103 1 min 2,9 UV-I 529 W/m 17,8 C 21,0 C 8,7 kts (3 Bft) 100,00 %
25.08.2019 10:53 21,6 C 80 % 1020,4 hPa 0,0 l/m 5,5 kts (2 Bft) S-SW 211 1 min 3,0 UV-I 570 W/m 18,0 C 20,4 C 9,6 kts (3 Bft) 100,00 %
25.08.2019 10:52 21,5 C 79 % 1020,4 hPa 0,0 l/m 5,0 kts (2 Bft) SO 146 1 min 3,1 UV-I 584 W/m 17,7 C 20,5 C 9,6 kts (3 Bft) 100,00 %
25.08.2019 10:51 21,5 C 79 % 1020,5 hPa 0,0 l/m 1,2 kts (1 Bft) O-SO 117 1 min 3,1 UV-I 589 W/m 17,7 C 21,5 C 2,6 kts (1 Bft) 100,00 %
25.08.2019 10:50 21,5 C 80 % 1020,5 hPa 0,0 l/m 6,4 kts (2 Bft) S 177 1 min 3,0 UV-I 587 W/m 17,9 C 19,8 C 9,6 kts (3 Bft) 100,00 %
25.08.2019 10:49 21,4 C 79 % 1020,5 hPa 0,0 l/m 6,1 kts (2 Bft) O-SO 123 1 min 3,0 UV-I 575 W/m 17,6 C 19,8 C 11,3 kts (4 Bft) 95,65 %
25.08.2019 10:48 21,3 C 80 % 1020,5 hPa 0,0 l/m 3,3 kts (2 Bft) O-SO 112 1 min 3,0 UV-I 559 W/m 17,7 C 21,3 C 7,0 kts (3 Bft) 100,00 %
25.08.2019 10:47 21,3 C 80 % 1020,5 hPa 0,0 l/m 2,1 kts (1 Bft) O-NO 62 1 min 3,0 UV-I 568 W/m 17,7 C 21,3 C 6,1 kts (2 Bft) 95,65 %
25.08.2019 10:46 21,3 C 80 % 1020,5 hPa 0,0 l/m 3,6 kts (2 Bft) S-SW 196 1 min 2,9 UV-I 548 W/m 17,7 C 21,2 C 7,0 kts (3 Bft) 100,00 %
25.08.2019 10:45 21,3 C 80 % 1020,5 hPa 0,0 l/m 4,7 kts (2 Bft) NO 45 1 min 2,8 UV-I 526 W/m 17,7 C 20,5 C 11,3 kts (4 Bft) 100,00 %
25.08.2019 10:44 21,2 C 80 % 1020,5 hPa 0,0 l/m 2,8 kts (1 Bft) S 175 1 min 2,9 UV-I 540 W/m 17,6 C 21,2 C 5,2 kts (2 Bft) 100,00 %
25.08.2019 10:43 21,2 C 80 % 1020,5 hPa 0,0 l/m 4,4 kts (2 Bft) S 181 1 min 2,9 UV-I 547 W/m 17,6 C 20,5 C 8,7 kts (3 Bft) 100,00 %
25.08.2019 10:42 21,2 C 80 % 1020,5 hPa 0,0 l/m 4,4 kts (2 Bft) O-NO 74 1 min 2,9 UV-I 548 W/m 17,6 C 20,6 C 7,8 kts (3 Bft) 96,15 %
25.08.2019 10:41 21,2 C 80 % 1020,5 hPa 0,0 l/m 5,4 kts (2 Bft) O 100 1 min 2,9 UV-I 552 W/m 17,6 C 20,0 C 11,3 kts (4 Bft) 100,00 %
25.08.2019 10:40 21,1 C 80 % 1020,5 hPa 0,0 l/m 3,8 kts (2 Bft) S-SO 148 1 min 2,9 UV-I 561 W/m 17,5 C 20,9 C 8,7 kts (3 Bft) 100,00 %
25.08.2019 10:39 21,2 C 80 % 1020,5 hPa 0,0 l/m 3,8 kts (2 Bft) O-SO 112 1 min 2,9 UV-I 570 W/m 17,6 C 20,9 C 6,1 kts (2 Bft) 96,15 %
25.08.2019 10:38 21,2 C 80 % 1020,5 hPa 0,0 l/m 3,7 kts (2 Bft) NO 50 1 min 2,9 UV-I 554 W/m 17,6 C 21,0 C 7,8 kts (3 Bft) 100,00 %
25.08.2019 10:37 21,2 C 80 % 1020,5 hPa 0,0 l/m 3,2 kts (2 Bft) O-SO 111 1 min 2,8 UV-I 554 W/m 17,6 C 21,2 C 4,3 kts (2 Bft) 95,65 %
25.08.2019 10:36 21,2 C 80 % 1020,5 hPa 0,0 l/m 4,2 kts (2 Bft) W-NW 298 1 min 2,8 UV-I 568 W/m 17,6 C 20,7 C 7,8 kts (3 Bft) 100,00 %
25.08.2019 10:35 21,2 C 80 % 1020,5 hPa 0,0 l/m 3,8 kts (2 Bft) O-NO 74 1 min 2,8 UV-I 563 W/m 17,6 C 21,0 C 10,4 kts (3 Bft) 95,65 %
25.08.2019 10:34 21,2 C 80 % 1020,4 hPa 0,0 l/m 3,8 kts (2 Bft) O 84 1 min 2,7 UV-I 563 W/m 17,6 C 20,9 C 7,0 kts (3 Bft) 96,55 %
25.08.2019 10:33 21,2 C 81 % 1020,5 hPa 0,0 l/m 7,4 kts (3 Bft) O 82 1 min 2,7 UV-I 541 W/m 17,8 C 19,0 C 11,3 kts (4 Bft) 100,00 %
25.08.2019 10:32 21,1 C 81 % 1020,5 hPa 0,0 l/m 4,9 kts (2 Bft) S-SO 161 1 min 2,7 UV-I 548 W/m 17,7 C 20,2 C 10,4 kts (3 Bft) 92,86 %
25.08.2019 10:31 21,1 C 83 % 1020,4 hPa 0,0 l/m 3,2 kts (2 Bft) SO 125 1 min 2,8 UV-I 559 W/m 18,1 C 21,1 C 6,1 kts (2 Bft) 100,00 %
25.08.2019 10:30 20,9 C 83 % 1020,5 hPa 0,0 l/m 2,6 kts (1 Bft) O-NO 59 1 min 2,8 UV-I 543 W/m 17,9 C 20,9 C 5,2 kts (2 Bft) 94,12 %
25.08.2019 10:29 20,8 C 83 % 1020,4 hPa 0,0 l/m 2,3 kts (1 Bft) O-SO 108 1 min 2,7 UV-I 533 W/m 17,8 C 20,8 C 7,0 kts (3 Bft) 100,00 %
25.08.2019 10:28 20,8 C 82 % 1020,4 hPa 0,0 l/m 1,8 kts (1 Bft) W-SW 253 1 min 2,7 UV-I 531 W/m 17,6 C 20,8 C 2,6 kts (1 Bft) 94,12 %
25.08.2019 10:27 20,8 C 83 % 1020,5 hPa 0,0 l/m 6,3 kts (2 Bft) SO 141 1 min 2,7 UV-I 550 W/m 17,8 C 19,1 C 9,6 kts (3 Bft) 100,00 %
25.08.2019 10:26 20,8 C 82 % 1020,5 hPa 0,0 l/m 10,0 kts (3 Bft) O-SO 103 1 min 2,7 UV-I 555 W/m 17,6 C 17,5 C 13,0 kts (4 Bft) 96,30 %
25.08.2019 10:25 20,8 C 81 % 1020,5 hPa 0,0 l/m 8,0 kts (3 Bft) SO 135 1 min 2,7 UV-I 543 W/m 17,4 C 18,2 C 12,1 kts (4 Bft) 94,12 %
25.08.2019 10:24 20,8 C 81 % 1020,5 hPa 0,0 l/m 6,8 kts (3 Bft) O-SO 105 1 min 2,6 UV-I 536 W/m 17,4 C 18,8 C 12,1 kts (4 Bft) 97,73 %
25.08.2019 10:23 20,8 C 82 % 1020,5 hPa 0,0 l/m 5,8 kts (2 Bft) O-SO 102 1 min 2,5 UV-I 524 W/m 17,6 C 19,3 C 11,3 kts (4 Bft) 98,89 %
25.08.2019 10:22 20,7 C 81 % 1020,5 hPa 0,0 l/m 7,0 kts (3 Bft) O-SO 120 1 min 2,6 UV-I 506 W/m 17,3 C 18,6 C 11,3 kts (4 Bft) 100,00 %
25.08.2019 10:21 20,7 C 81 % 1020,5 hPa 0,0 l/m 5,8 kts (2 Bft) W-NW 300 1 min 2,6 UV-I 548 W/m 17,3 C 19,2 C 9,6 kts (3 Bft) 94,44 %
25.08.2019 10:20 20,7 C 81 % 1020,5 hPa 0,0 l/m 5,5 kts (2 Bft) SO 140 1 min 2,6 UV-I 548 W/m 17,3 C 19,4 C 9,6 kts (3 Bft) 100,00 %
25.08.2019 10:19 20,6 C 82 % 1020,5 hPa 0,0 l/m 4,9 kts (2 Bft) SO 126 1 min 2,5 UV-I 503 W/m 17,4 C 19,6 C 7,8 kts (3 Bft) 96,30 %
25.08.2019 10:18 20,6 C 82 % 1020,6 hPa 0,0 l/m 4,0 kts (2 Bft) O-NO 62 1 min 2,5 UV-I 497 W/m 17,4 C 20,2 C 7,0 kts (3 Bft) 100,00 %
25.08.2019 10:17 20,6 C 83 % 1020,5 hPa 0,0 l/m 8,5 kts (3 Bft) O-NO 74 1 min 2,5 UV-I 510 W/m 17,6 C 17,8 C 13,0 kts (4 Bft) 96,55 %
25.08.2019 10:16 20,5 C 83 % 1020,6 hPa 0,0 l/m 13,3 kts (4 Bft) O 97 1 min 2,4 UV-I 485 W/m 17,5 C 16,1 C 15,7 kts (5 Bft) 100,00 %
25.08.2019 10:15 20,6 C 81 % 1020,6 hPa 0,0 l/m 11,2 kts (4 Bft) O 85 1 min 2,4 UV-I 490 W/m 17,2 C 16,9 C 14,8 kts (4 Bft) 96,88 %
25.08.2019 10:14 20,6 C 83 % 1020,7 hPa 0,0 l/m 6,8 kts (3 Bft) O 82 1 min 2,4 UV-I 515 W/m 17,6 C 18,6 C 10,4 kts (3 Bft) 93,33 %
25.08.2019 10:13 20,6 C 83 % 1020,6 hPa 0,0 l/m 5,9 kts (2 Bft) W-NW 282 1 min 2,5 UV-I 526 W/m 17,6 C 19,0 C 9,6 kts (3 Bft) 100,00 %
25.08.2019 10:12 20,5 C 84 % 1020,6 hPa 0,0 l/m 4,6 kts (2 Bft) W 260 2 min 2,5 UV-I 534 W/m 17,7 C 19,7 C 8,7 kts (3 Bft) 100,00 %
25.08.2019 10:10 20,4 C 82 % 1020,6 hPa 0,0 l/m 7,8 kts (3 Bft) O-NO 57 1 min 2,4 UV-I 534 W/m 17,2 C 17,9 C 13,0 kts (4 Bft) 100,00 %
25.08.2019 10:09 20,4 C 83 % 1020,6 hPa 0,0 l/m 5,1 kts (2 Bft) O-SO 104 1 min 2,4 UV-I 520 W/m 17,4 C 19,2 C 13,0 kts (4 Bft) 100,00 %
25.08.2019 10:08 20,3 C 83 % 1020,7 hPa 0,0 l/m 4,3 kts (2 Bft) N-NO 21 1 min 2,4 UV-I 517 W/m 17,3 C 19,7 C 7,0 kts (3 Bft) 100,00 %
25.08.2019 10:07 20,3 C 83 % 1020,5 hPa 0,0 l/m 5,3 kts (2 Bft) O 101 1 min 2,3 UV-I 515 W/m 17,3 C 19,0 C 11,3 kts (4 Bft) 100,00 %
25.08.2019 10:06 20,3 C 83 % 1020,6 hPa 0,0 l/m 5,0 kts (2 Bft) S 175 1 min 2,3 UV-I 513 W/m 17,3 C 19,2 C 8,7 kts (3 Bft) 98,90 %
25.08.2019 10:05 20,3 C 82 % 1020,6 hPa 0,0 l/m 5,2 kts (2 Bft) N-NW 328 1 min 2,3 UV-I 512 W/m 17,1 C 19,1 C 9,6 kts (3 Bft) 100,00 %
25.08.2019 10:04 20,3 C 83 % 1020,7 hPa 0,0 l/m 4,9 kts (2 Bft) O-NO 59 1 min 2,3 UV-I 508 W/m 17,3 C 19,3 C 7,8 kts (3 Bft) 100,00 %
25.08.2019 10:03 20,3 C 83 % 1020,7 hPa 0,0 l/m 4,7 kts (2 Bft) S 190 1 min 2,2 UV-I 504 W/m 17,3 C 19,4 C 8,7 kts (3 Bft) 100,00 %
25.08.2019 10:02 20,3 C 83 % 1020,6 hPa 0,0 l/m 4,8 kts (2 Bft) SO 126 1 min 2,2 UV-I 496 W/m 17,3 C 19,3 C 13,0 kts (4 Bft) 100,00 %
25.08.2019 10:01 20,3 C 84 % 1020,7 hPa 0,0 l/m 7,2 kts (3 Bft) O-SO 109 1 min 2,2 UV-I 490 W/m 17,5 C 18,0 C 13,9 kts (4 Bft) 100,00 %
25.08.2019 10:00 20,2 C 84 % 1020,7 hPa 0,0 l/m 10,7 kts (4 Bft) O 96 1 min 2,2 UV-I 485 W/m 17,4 C 16,5 C 13,0 kts (4 Bft) 100,00 %
25.08.2019 09:59 20,2 C 84 % 1020,7 hPa 0,0 l/m 8,3 kts (3 Bft) O 94 1 min 2,2 UV-I 482 W/m 17,4 C 17,4 C 11,3 kts (4 Bft) 100,00 %
25.08.2019 09:58 20,2 C 84 % 1020,7 hPa 0,0 l/m 7,0 kts (3 Bft) O 79 1 min 2,2 UV-I 478 W/m 17,4 C 18,0 C 13,0 kts (4 Bft) 100,00 %
25.08.2019 09:57 20,2 C 84 % 1020,7 hPa 0,0 l/m 5,8 kts (2 Bft) O-NO 65 1 min 2,1 UV-I 468 W/m 17,4 C 18,6 C 11,3 kts (4 Bft) 100,00 %
25.08.2019 09:56 20,2 C 85 % 1020,7 hPa 0,0 l/m 6,2 kts (2 Bft) O 91 1 min 2,1 UV-I 462 W/m 17,6 C 18,4 C 11,3 kts (4 Bft) 100,00 %
25.08.2019 09:55 20,1 C 84 % 1020,7 hPa 0,0 l/m 7,7 kts (3 Bft) O 87 1 min 2,1 UV-I 466 W/m 17,3 C 17,6 C 11,3 kts (4 Bft) 100,00 %
25.08.2019 09:54 20,1 C 83 % 1020,8 hPa 0,0 l/m 9,6 kts (3 Bft) O 92 1 min 2,1 UV-I 466 W/m 17,1 C 16,8 C 14,8 kts (4 Bft) 100,00 %
25.08.2019 09:53 20,1 C 84 % 1020,7 hPa 0,0 l/m 6,6 kts (3 Bft) S-SO 163 1 min 2,0 UV-I 462 W/m 17,3 C 18,1 C 14,8 kts (4 Bft) 98,86 %
25.08.2019 09:52 20,1 C 85 % 1020,7 hPa 0,0 l/m 5,3 kts (2 Bft) S-SW 196 1 min 2,0 UV-I 427 W/m 17,5 C 18,8 C 9,6 kts (3 Bft) 100,00 %
25.08.2019 09:51 20,0 C 85 % 1020,7 hPa 0,0 l/m 3,6 kts (2 Bft) S-SW 195 1 min 2,0 UV-I 441 W/m 17,4 C 19,9 C 7,0 kts (3 Bft) 96,15 %
25.08.2019 09:50 19,9 C 84 % 1020,7 hPa 0,0 l/m 7,7 kts (3 Bft) O-SO 115 1 min 2,1 UV-I 461 W/m 17,1 C 17,3 C 12,1 kts (4 Bft) 100,00 %
25.08.2019 09:49 19,9 C 84 % 1020,7 hPa 0,0 l/m 5,5 kts (2 Bft) O-SO 119 1 min 2,1 UV-I 462 W/m 17,1 C 18,5 C 11,3 kts (4 Bft) 100,00 %
25.08.2019 09:48 19,9 C 84 % 1020,6 hPa 0,0 l/m 4,2 kts (2 Bft) SW 217 1 min 2,0 UV-I 454 W/m 17,1 C 19,4 C 11,3 kts (4 Bft) 100,00 %
25.08.2019 09:47 19,9 C 85 % 1020,6 hPa 0,0 l/m 4,4 kts (2 Bft) O 89 1 min 2,0 UV-I 418 W/m 17,3 C 19,2 C 8,7 kts (3 Bft) 100,00 %
25.08.2019 09:46 19,9 C 85 % 1020,7 hPa 0,0 l/m 5,5 kts (2 Bft) O-SO 115 1 min 2,0 UV-I 461 W/m 17,3 C 18,5 C 9,6 kts (3 Bft) 100,00 %
25.08.2019 09:45 19,8 C 86 % 1020,7 hPa 0,0 l/m 5,7 kts (2 Bft) O 90 1 min 2,0 UV-I 455 W/m 17,4 C 18,2 C 7,8 kts (3 Bft) 98,84 %
25.08.2019 09:44 19,8 C 85 % 1020,7 hPa 0,0 l/m 5,8 kts (2 Bft) O 96 1 min 2,0 UV-I 448 W/m 17,2 C 18,2 C 10,4 kts (3 Bft) 100,00 %
25.08.2019 09:43 19,8 C 86 % 1020,7 hPa 0,0 l/m 4,6 kts (2 Bft) O-NO 69 1 min 1,9 UV-I 446 W/m 17,4 C 18,9 C 7,8 kts (3 Bft) 100,00 %
25.08.2019 09:42 19,8 C 86 % 1020,7 hPa 0,0 l/m 3,6 kts (2 Bft) N-NO 26 1 min 1,9 UV-I 446 W/m 17,4 C 19,7 C 11,3 kts (4 Bft) 100,00 %
25.08.2019 09:41 19,7 C 86 % 1020,7 hPa 0,0 l/m 6,8 kts (3 Bft) SO 132 1 min 1,9 UV-I 443 W/m 17,3 C 17,5 C 12,1 kts (4 Bft) 100,00 %
25.08.2019 09:40 19,7 C 86 % 1020,7 hPa 0,0 l/m 8,6 kts (3 Bft) S-SO 165 1 min 1,9 UV-I 446 W/m 17,3 C 16,7 C 12,1 kts (4 Bft) 100,00 %
25.08.2019 09:39 19,7 C 85 % 1020,7 hPa 0,0 l/m 5,0 kts (2 Bft) O 87 1 min 1,9 UV-I 441 W/m 17,1 C 18,6 C 9,6 kts (3 Bft) 100,00 %
25.08.2019 09:38 19,7 C 86 % 1020,7 hPa 0,0 l/m 3,8 kts (2 Bft) S 173 1 min 1,9 UV-I 443 W/m 17,3 C 19,5 C 5,2 kts (2 Bft) 100,00 %
25.08.2019 09:37 19,7 C 86 % 1020,6 hPa 0,0 l/m 3,6 kts (2 Bft) O-SO 113 1 min 1,9 UV-I 438 W/m 17,3 C 19,6 C 8,7 kts (3 Bft) 96,55 %
25.08.2019 09:36 19,7 C 86 % 1020,6 hPa 0,0 l/m 5,1 kts (2 Bft) S-SO 149 1 min 1,8 UV-I 436 W/m 17,3 C 18,5 C 7,8 kts (3 Bft) 100,00 %
25.08.2019 09:35 19,7 C 86 % 1020,6 hPa 0,0 l/m 7,2 kts (3 Bft) O-SO 119 1 min 1,8 UV-I 432 W/m 17,3 C 17,3 C 10,4 kts (3 Bft) 100,00 %
25.08.2019 09:34 19,7 C 86 % 1020,7 hPa 0,0 l/m 4,4 kts (2 Bft) O 86 1 min 1,8 UV-I 429 W/m 17,3 C 19,0 C 9,6 kts (3 Bft) 100,00 %
25.08.2019 09:33 19,6 C 86 % 1020,6 hPa 0,0 l/m 7,5 kts (3 Bft) O 90 1 min 1,8 UV-I 425 W/m 17,2 C 17,0 C 12,1 kts (4 Bft) 100,00 %
25.08.2019 09:32 19,6 C 86 % 1020,6 hPa 0,0 l/m 9,0 kts (3 Bft) S 169 1 min 1,8 UV-I 427 W/m 17,2 C 16,4 C 13,9 kts (4 Bft) 100,00 %
25.08.2019 09:31 19,6 C 86 % 1020,6 hPa 0,0 l/m 6,3 kts (2 Bft) O-NO 75 1 min 1,7 UV-I 424 W/m 17,2 C 17,7 C 11,3 kts (4 Bft) 96,30 %
25.08.2019 09:30 19,5 C 86 % 1020,6 hPa 0,0 l/m 6,6 kts (3 Bft) N-NO 17 1 min 1,7 UV-I 415 W/m 17,1 C 17,4 C 14,8 kts (4 Bft) 100,00 %
25.08.2019 09:29 19,6 C 85 % 1020,6 hPa 0,0 l/m 7,5 kts (3 Bft) O-SO 115 1 min 1,7 UV-I 408 W/m 17,0 C 17,1 C 13,0 kts (4 Bft) 100,00 %
25.08.2019 09:28 19,6 C 87 % 1020,5 hPa 0,0 l/m 8,0 kts (3 Bft) SO 144 1 min 1,7 UV-I 399 W/m 17,4 C 16,8 C 13,9 kts (4 Bft) 100,00 %
25.08.2019 09:27 19,6 C 86 % 1020,6 hPa 0,0 l/m 12,7 kts (4 Bft) O-SO 104 1 min 1,6 UV-I 406 W/m 17,2 C 15,1 C 18,3 kts (5 Bft) 100,00 %
25.08.2019 09:26 19,6 C 86 % 1020,6 hPa 0,0 l/m 10,7 kts (3 Bft) O 80 1 min 1,6 UV-I 408 W/m 17,2 C 15,7 C 18,3 kts (5 Bft) 100,00 %
25.08.2019 09:25 19,7 C 85 % 1020,6 hPa 0,0 l/m 11,8 kts (4 Bft) O-SO 102 1 min 1,6 UV-I 406 W/m 17,1 C 15,5 C 16,5 kts (5 Bft) 100,00 %
25.08.2019 09:24 19,7 C 86 % 1020,6 hPa 0,0 l/m 9,2 kts (3 Bft) O-NO 74 1 min 1,6 UV-I 410 W/m 17,3 C 16,4 C 16,5 kts (5 Bft) 100,00 %
25.08.2019 09:23 19,7 C 86 % 1020,6 hPa 0,0 l/m 7,6 kts (3 Bft) N 9 1 min 1,6 UV-I 408 W/m 17,3 C 17,1 C 14,8 kts (4 Bft) 100,00 %
25.08.2019 09:22 19,8 C 86 % 1020,5 hPa 0,0 l/m 10,3 kts (3 Bft) O-SO 103 1 min 1,6 UV-I 406 W/m 17,4 C 16,1 C 16,5 kts (5 Bft) 95,65 %
25.08.2019 09:21 19,8 C 86 % 1020,6 hPa 0,0 l/m 11,6 kts (4 Bft) N-NO 32 1 min 1,5 UV-I 392 W/m 17,4 C 15,7 C 18,3 kts (5 Bft) 100,00 %
25.08.2019 09:20 19,8 C 86 % 1020,6 hPa 0,0 l/m 11,5 kts (4 Bft) O 94 1 min 1,5 UV-I 394 W/m 17,4 C 15,7 C 15,7 kts (5 Bft) 100,00 %
25.08.2019 09:19 19,8 C 86 % 1020,5 hPa 0,0 l/m 11,5 kts (4 Bft) O-SO 114 1 min 1,5 UV-I 394 W/m 17,4 C 15,7 C 17,4 kts (5 Bft) 100,00 %
25.08.2019 09:18 19,8 C 85 % 1020,5 hPa 0,0 l/m 9,4 kts (3 Bft) O-SO 115 1 min 1,5 UV-I 388 W/m 17,2 C 16,4 C 13,0 kts (4 Bft) 100,00 %
25.08.2019 09:17 19,8 C 85 % 1020,4 hPa 0,0 l/m 11,3 kts (4 Bft) O 82 1 min 1,5 UV-I 406 W/m 17,2 C 15,8 C 13,9 kts (4 Bft) 98,44 %
25.08.2019 09:16 19,9 C 86 % 1020,5 hPa 0,0 l/m 5,5 kts (2 Bft) O-SO 108 1 min 1,5 UV-I 406 W/m 17,5 C 18,5 C 7,8 kts (3 Bft) 98,79 %
25.08.2019 09:15 19,8 C 85 % 1020,4 hPa 0,0 l/m 3,8 kts (2 Bft) N 9 1 min 1,5 UV-I 410 W/m 17,2 C 19,6 C 4,3 kts (2 Bft) 98,79 %
25.08.2019 09:14 19,8 C 85 % 1020,5 hPa 0,0 l/m 3,5 kts (2 Bft) O-SO 122 1 min 1,5 UV-I 410 W/m 17,2 C 19,8 C 3,5 kts (2 Bft) 100,00 %
25.08.2019 09:13 19,9 C 85 % 1020,5 hPa 0,0 l/m 2,6 kts (1 Bft) N-NW 331 1 min 1,5 UV-I 403 W/m 17,3 C 19,9 C 2,6 kts (1 Bft) 83,33 %
25.08.2019 09:12 19,9 C 85 % 1020,4 hPa 0,0 l/m 5,3 kts (2 Bft) S-SO 147 1 min 1,5 UV-I 403 W/m 17,3 C 18,6 C 7,8 kts (3 Bft) 100,00 %
25.08.2019 09:11 19,9 C 85 % 1020,4 hPa 0,0 l/m 10,9 kts (4 Bft) S-SW 210 1 min 1,4 UV-I 401 W/m 17,3 C 16,0 C 17,4 kts (5 Bft) 96,55 %
25.08.2019 09:10 20,0 C 85 % 1020,5 hPa 0,0 l/m 9,1 kts (3 Bft) O-SO 118 1 min 1,4 UV-I 397 W/m 17,4 C 16,8 C 20,0 kts (5 Bft) 93,10 %
25.08.2019 09:09 19,9 C 86 % 1020,5 hPa 0,0 l/m 8,5 kts (3 Bft) W-NW 298 1 min 1,4 UV-I 397 W/m 17,5 C 17,0 C 18,3 kts (5 Bft) 100,00 %
25.08.2019 09:08 19,9 C 86 % 1020,4 hPa 0,0 l/m 5,8 kts (2 Bft) O 97 1 min 1,4 UV-I 397 W/m 17,5 C 18,3 C 13,9 kts (4 Bft) 96,55 %
25.08.2019 09:07 19,9 C 86 % 1020,3 hPa 0,0 l/m 2,9 kts (1 Bft) SW 229 1 min 1,4 UV-I 397 W/m 17,5 C 19,9 C 5,2 kts (2 Bft) 96,30 %
25.08.2019 09:06 19,9 C 86 % 1020,3 hPa 0,0 l/m 3,7 kts (2 Bft) O-SO 117 1 min 1,4 UV-I 369 W/m 17,5 C 19,7 C 7,0 kts (3 Bft) 100,00 %
25.08.2019 09:05 19,9 C 87 % 1020,3 hPa 0,0 l/m 9,2 kts (3 Bft) W-SW 240 1 min 1,4 UV-I 392 W/m 17,7 C 16,7 C 12,1 kts (4 Bft) 96,30 %
25.08.2019 09:04 19,8 C 88 % 1020,3 hPa 0,0 l/m 9,0 kts (3 Bft) O-NO 74 1 min 1,4 UV-I 399 W/m 17,8 C 16,6 C 13,9 kts (4 Bft) 96,15 %
25.08.2019 09:03 19,8 C 88 % 1020,3 hPa 0,0 l/m 5,9 kts (2 Bft) S-SO 167 1 min 1,3 UV-I 373 W/m 17,8 C 18,1 C 9,6 kts (3 Bft) 100,00 %
25.08.2019 09:02 19,7 C 88 % 1020,3 hPa 0,0 l/m 6,9 kts (3 Bft) O 94 1 min 1,3 UV-I 383 W/m 17,7 C 17,5 C 12,1 kts (4 Bft) 93,33 %
25.08.2019 09:01 19,7 C 88 % 1020,3 hPa 0,0 l/m 5,2 kts (2 Bft) S-SW 195 1 min 1,3 UV-I 399 W/m 17,7 C 18,4 C 11,3 kts (4 Bft) 93,55 %
25.08.2019 09:00 19,7 C 88 % 1020,3 hPa 0,0 l/m 3,0 kts (1 Bft) S-SW 204 1 min 1,3 UV-I 406 W/m 17,7 C 19,7 C 6,1 kts (2 Bft) 100,00 %
25.08.2019 08:59 19,6 C 88 % 1020,1 hPa 0,0 l/m 4,4 kts (2 Bft) SW 221 1 min 1,3 UV-I 415 W/m 17,6 C 18,9 C 7,8 kts (3 Bft) 96,55 %
25.08.2019 08:58 19,6 C 89 % 1020,2 hPa 0,0 l/m 6,7 kts (3 Bft) NO 44 1 min 1,3 UV-I 417 W/m 17,7 C 17,5 C 9,6 kts (3 Bft) 97,56 %
25.08.2019 08:57 19,4 C 90 % 1020,1 hPa 0,0 l/m 4,5 kts (2 Bft) SO 129 1 min 1,3 UV-I 417 W/m 17,7 C 18,6 C 7,8 kts (3 Bft) 98,92 %
25.08.2019 08:56 19,3 C 91 % 1020,1 hPa 0,0 l/m 8,3 kts (3 Bft) NO 52 2 min 1,3 UV-I 415 W/m 17,8 C 16,3 C 10,4 kts (3 Bft) 96,91 %
25.08.2019 08:54 19,1 C 92 % 1019,9 hPa 0,0 l/m 8,7 kts (3 Bft) O-SO 111 2 min 1,2 UV-I 396 W/m 17,8 C 15,9 C 8,7 kts (3 Bft) 98,94 %
25.08.2019 08:52 18,9 C 92 % 1020,0 hPa 0,0 l/m 8,3 kts (3 Bft) NO 56 1 min 1,0 UV-I 292 W/m 17,6 C 15,8 C 8,7 kts (3 Bft) 100,00 %
25.08.2019 08:51 18,8 C 91 % 1020,1 hPa 0,0 l/m 7,8 kts (3 Bft) O-NO 59 1 min 0,9 UV-I 253 W/m 17,3 C 15,9 C 9,6 kts (3 Bft) 95,12 %
25.08.2019 08:50 18,7 C 92 % 1020,2 hPa 0,0 l/m 7,5 kts (3 Bft) NO 55 1 min 0,9 UV-I 253 W/m 17,4 C 16,0 C 8,7 kts (3 Bft) 98,96 %
25.08.2019 08:49 18,7 C 92 % 1020,1 hPa 0,0 l/m 6,5 kts (2 Bft) NO 53 1 min 0,8 UV-I 223 W/m 17,4 C 16,5 C 7,8 kts (3 Bft) 97,73 %
25.08.2019 08:48 18,7 C 93 % 1020,1 hPa 0,0 l/m 6,3 kts (2 Bft) NO 45 1 min 0,8 UV-I 204 W/m 17,5 C 16,6 C 7,8 kts (3 Bft) 100,00 %
25.08.2019 08:47 18,6 C 92 % 1020,0 hPa 0,0 l/m 5,8 kts (2 Bft) NO 55 1 min 0,8 UV-I 206 W/m 17,3 C 16,8 C 7,8 kts (3 Bft) 100,00 %
25.08.2019 08:46 18,5 C 92 % 1020,1 hPa 0,0 l/m 9,0 kts (3 Bft) NO 53 1 min 0,8 UV-I 204 W/m 17,2 C 15,0 C 12,1 kts (4 Bft) 95,65 %
25.08.2019 08:45 18,4 C 93 % 1020,0 hPa 0,0 l/m 6,1 kts (2 Bft) NO 49 1 min 0,8 UV-I 199 W/m 17,2 C 16,4 C 9,6 kts (3 Bft) 100,00 %
25.08.2019 08:44 18,3 C 93 % 1020,1 hPa 0,0 l/m 5,8 kts (2 Bft) NO 49 1 min 0,8 UV-I 193 W/m 17,1 C 16,5 C 7,8 kts (3 Bft) 100,00 %
25.08.2019 08:43 18,3 C 93 % 1020,1 hPa 0,0 l/m 5,3 kts (2 Bft) O-NO 57 1 min 0,7 UV-I 183 W/m 17,1 C 16,8 C 7,8 kts (3 Bft) 100,00 %
25.08.2019 08:42 18,2 C 93 % 1020,2 hPa 0,0 l/m 5,2 kts (2 Bft) NO 49 1 min 0,7 UV-I 178 W/m 17,0 C 16,8 C 7,8 kts (3 Bft) 100,00 %
25.08.2019 08:41 18,2 C 94 % 1020,2 hPa 0,0 l/m 6,2 kts (2 Bft) NO 52 1 min 0,7 UV-I 202 W/m 17,2 C 16,1 C 8,7 kts (3 Bft) 100,00 %
25.08.2019 08:40 18,1 C 93 % 1020,2 hPa 0,0 l/m 6,9 kts (3 Bft) O-NO 59 1 min 0,7 UV-I 190 W/m 16,9 C 15,6 C 10,4 kts (3 Bft) 100,00 %
25.08.2019 08:39 18,1 C 93 % 1020,2 hPa 0,0 l/m 9,8 kts (3 Bft) O-NO 73 1 min 0,7 UV-I 181 W/m 16,9 C 14,2 C 11,3 kts (4 Bft) 100,00 %
25.08.2019 08:38 18,1 C 93 % 1020,2 hPa 0,0 l/m 8,5 kts (3 Bft) O-NO 57 1 min 0,6 UV-I 162 W/m 16,9 C 14,8 C 9,6 kts (3 Bft) 100,00 %
25.08.2019 08:37 18,0 C 93 % 1020,2 hPa 0,0 l/m 7,6 kts (3 Bft) O-NO 59 1 min 0,6 UV-I 158 W/m 16,8 C 15,1 C 9,6 kts (3 Bft) 100,00 %
25.08.2019 08:36 18,0 C 93 % 1020,2 hPa 0,0 l/m 8,3 kts (3 Bft) NO 47 1 min 0,6 UV-I 155 W/m 16,8 C 14,7 C 10,4 kts (3 Bft) 100,00 %
25.08.2019 08:35 18,0 C 93 % 1020,2 hPa 0,0 l/m 9,7 kts (3 Bft) NO 55 1 min 0,6 UV-I 153 W/m 16,8 C 14,1 C 10,4 kts (3 Bft) 100,00 %
25.08.2019 08:34 18,0 C 94 % 1020,1 hPa 0,0 l/m 9,0 kts (3 Bft) NO 51 0 min 0,6 UV-I 151 W/m 17,0 C 14,4 C 9,6 kts (3 Bft) 100,00 %
25.08.2019 08:33 17,9 C 94 % 1020,2 hPa 0,0 l/m 9,3 kts (3 Bft) NO 46 0 min 0,6 UV-I 149 W/m 16,9 C 14,1 C 11,3 kts (4 Bft) 95,65 %
25.08.2019 08:32 17,9 C 94 % 1020,2 hPa 0,0 l/m 10,5 kts (3 Bft) NO 52 0 min 0,6 UV-I 146 W/m 16,9 C 13,6 C 12,1 kts (4 Bft) 100,00 %
25.08.2019 08:31 17,9 C 94 % 1020,2 hPa 0,0 l/m 10,3 kts (3 Bft) NO 50 0 min 0,5 UV-I 142 W/m 16,9 C 13,7 C 12,1 kts (4 Bft) 100,00 %
25.08.2019 08:30 17,9 C 94 % 1020,2 hPa 0,0 l/m 9,9 kts (3 Bft) NO 53 0 min 0,5 UV-I 135 W/m 16,9 C 13,8 C 11,3 kts (4 Bft) 100,00 %
25.08.2019 08:29 17,8 C 94 % 1020,3 hPa 0,0 l/m 8,7 kts (3 Bft) NO 46 0 min 0,5 UV-I 132 W/m 16,8 C 14,3 C 10,4 kts (3 Bft) 100,00 %
25.08.2019 08:28 17,8 C 94 % 1020,3 hPa 0,0 l/m 7,0 kts (3 Bft) NO 48 0 min 0,5 UV-I 128 W/m 16,8 C 15,2 C 8,7 kts (3 Bft) 100,00 %
25.08.2019 08:27 17,8 C 94 % 1020,3 hPa 0,0 l/m 9,0 kts (3 Bft) NO 44 0 min 0,5 UV-I 125 W/m 16,8 C 14,1 C 10,4 kts (3 Bft) 100,00 %
25.08.2019 08:26 17,8 C 94 % 1020,3 hPa 0,0 l/m 9,6 kts (3 Bft) NO 52 0 min 0,5 UV-I 123 W/m 16,8 C 13,9 C 10,4 kts (3 Bft) 100,00 %
25.08.2019 08:25 17,8 C 94 % 1020,1 hPa 0,0 l/m 8,2 kts (3 Bft) O-NO 59 0 min 0,5 UV-I 120 W/m 16,8 C 14,6 C 10,4 kts (3 Bft) 100,00 %
25.08.2019 08:24 17,7 C 94 % 1020,3 hPa 0,0 l/m 7,6 kts (3 Bft) NO 47 0 min 0,5 UV-I 118 W/m 16,7 C 14,8 C 8,7 kts (3 Bft) 100,00 %
25.08.2019 08:23 17,8 C 94 % 1020,3 hPa 0,0 l/m 8,1 kts (3 Bft) NO 54 0 min 0,5 UV-I 118 W/m 16,8 C 14,6 C 9,6 kts (3 Bft) 95,65 %
25.08.2019 08:22 17,7 C 93 % 1020,1 hPa 0,0 l/m 8,3 kts (3 Bft) NO 51 0 min 0,5 UV-I 116 W/m 16,6 C 14,4 C 9,6 kts (3 Bft) 96,15 %
25.08.2019 08:21 17,8 C 94 % 1020,1 hPa 0,0 l/m 8,0 kts (3 Bft) NO 48 0 min 0,5 UV-I 116 W/m 16,8 C 14,6 C 8,7 kts (3 Bft) 100,00 %
25.08.2019 08:20 17,8 C 94 % 1020,2 hPa 0,0 l/m 7,6 kts (3 Bft) NO 49 0 min 0,5 UV-I 116 W/m 16,8 C 14,8 C 7,8 kts (3 Bft) 100,00 %
25.08.2019 08:19 17,8 C 94 % 1020,1 hPa 0,0 l/m 7,6 kts (3 Bft) NO 44 0 min 0,0 UV-I 118 W/m 16,8 C 14,9 C 8,7 kts (3 Bft) 100,00 %
25.08.2019 08:18 17,8 C 94 % 1020,1 hPa 0,0 l/m 6,6 kts (2 Bft) NO 51 0 min 0,0 UV-I 118 W/m 16,8 C 15,4 C 8,7 kts (3 Bft) 100,00 %
25.08.2019 08:17 17,7 C 93 % 1020,1 hPa 0,0 l/m 7,0 kts (3 Bft) NO 49 0 min 0,0 UV-I 118 W/m 16,6 C 15,1 C 8,7 kts (3 Bft) 100,00 %
25.08.2019 08:16 17,7 C 93 % 1020,0 hPa 0,0 l/m 7,6 kts (3 Bft) NO 42 0 min 0,0 UV-I 118 W/m 16,6 C 14,7 C 9,6 kts (3 Bft) 100,00 %
25.08.2019 08:15 17,7 C 93 % 1020,0 hPa 0,0 l/m 7,8 kts (3 Bft) NO 45 0 min 0,0 UV-I 116 W/m 16,6 C 14,6 C 8,7 kts (3 Bft) 100,00 %
25.08.2019 08:14 17,7 C 93 % 1020,0 hPa 0,0 l/m 7,0 kts (3 Bft) NO 42 0 min 0,0 UV-I 116 W/m 16,6 C 15,1 C 8,7 kts (3 Bft) 100,00 %
25.08.2019 08:13 17,6 C 93 % 1019,9 hPa 0,0 l/m 6,6 kts (2 Bft) NO 40 0 min 0,0 UV-I 114 W/m 16,5 C 15,2 C 8,7 kts (3 Bft) 100,00 %
25.08.2019 08:12 17,6 C 93 % 1019,9 hPa 0,0 l/m 7,0 kts (3 Bft) NO 43 0 min 0,0 UV-I 114 W/m 16,5 C 15,0 C 8,7 kts (3 Bft) 100,00 %
25.08.2019 08:11 17,6 C 93 % 1019,9 hPa 0,0 l/m 7,3 kts (3 Bft) NO 39 0 min 0,0 UV-I 114 W/m 16,5 C 14,8 C 7,8 kts (3 Bft) 100,00 %
25.08.2019 08:10 17,6 C 93 % 1019,9 hPa 0,0 l/m 8,1 kts (3 Bft) NO 36 0 min 0,0 UV-I 114 W/m 16,5 C 14,3 C 8,7 kts (3 Bft) 100,00 %
25.08.2019 08:09 17,6 C 93 % 1019,9 hPa 0,0 l/m 6,3 kts (2 Bft) NO 35 0 min 0,0 UV-I 114 W/m 16,5 C 15,4 C 7,8 kts (3 Bft) 100,00 %
25.08.2019 08:08 17,6 C 93 % 1019,9 hPa 0,0 l/m 5,7 kts (2 Bft) NO 36 0 min 0,0 UV-I 114 W/m 16,5 C 15,8 C 6,1 kts (2 Bft) 100,00 %
25.08.2019 08:07 17,6 C 93 % 1019,8 hPa 0,0 l/m 5,2 kts (2 Bft) NO 36 0 min 0,0 UV-I 114 W/m 16,5 C 16,1 C 6,1 kts (2 Bft) 100,00 %
25.08.2019 08:06 17,5 C 93 % 1019,8 hPa 0,0 l/m 5,0 kts (2 Bft) NO 36 0 min 0,0 UV-I 114 W/m 16,4 C 16,2 C 6,1 kts (2 Bft) 100,00 %
25.08.2019 08:05 17,4 C 94 % 1019,8 hPa 0,0 l/m 5,3 kts (2 Bft) NO 36 0 min 0,0 UV-I 114 W/m 16,4 C 15,8 C 6,1 kts (2 Bft) 100,00 %
25.08.2019 08:04 17,4 C 94 % 1019,8 hPa 0,0 l/m 4,8 kts (2 Bft) NO 36 0 min 0,0 UV-I 114 W/m 16,4 C 16,2 C 6,1 kts (2 Bft) 100,00 %
25.08.2019 08:03 17,4 C 93 % 1019,8 hPa 0,0 l/m 5,0 kts (2 Bft) NO 35 0 min 0,0 UV-I 114 W/m 16,3 C 16,1 C 5,2 kts (2 Bft) 100,00 %
25.08.2019 08:02 17,3 C 93 % 1019,8 hPa 0,0 l/m 5,1 kts (2 Bft) NO 36 0 min 0,0 UV-I 114 W/m 16,2 C 15,9 C 7,0 kts (3 Bft) 100,00 %
25.08.2019 08:01 17,3 C 93 % 1019,7 hPa 0,0 l/m 5,0 kts (2 Bft) N-NO 32 0 min 0,0 UV-I 113 W/m 16,2 C 15,9 C 5,2 kts (2 Bft) 100,00 %
25.08.2019 08:00 17,3 C 93 % 1019,8 hPa 0,0 l/m 5,0 kts (2 Bft) N-NO 32 0 min 0,0 UV-I 111 W/m 16,2 C 16,0 C 5,2 kts (2 Bft) 100,00 %
25.08.2019 07:59 17,3 C 93 % 1019,7 hPa 0,0 l/m 4,9 kts (2 Bft) N-NO 32 0 min 0,0 UV-I 111 W/m 16,2 C 16,0 C 5,2 kts (2 Bft) 100,00 %
25.08.2019 07:58 17,3 C 93 % 1019,7 hPa 0,0 l/m 5,1 kts (2 Bft) NO 38 0 min 0,0 UV-I 109 W/m 16,2 C 15,9 C 5,2 kts (2 Bft) 100,00 %
25.08.2019 07:57 17,2 C 93 % 1019,7 hPa 0,0 l/m 4,8 kts (2 Bft) NO 38 0 min 0,0 UV-I 105 W/m 16,1 C 16,0 C 5,2 kts (2 Bft) 100,00 %
25.08.2019 07:56 17,2 C 93 % 1019,7 hPa 0,0 l/m 4,3 kts (2 Bft) NO 42 0 min 0,0 UV-I 104 W/m 16,1 C 16,4 C 5,2 kts (2 Bft) 95,65 %
25.08.2019 07:55 17,2 C 93 % 1019,7 hPa 0,0 l/m 4,3 kts (2 Bft) NO 42 0 min 0,0 UV-I 102 W/m 16,1 C 16,4 C 4,3 kts (2 Bft) 100,00 %
25.08.2019 07:54 17,2 C 94 % 1019,7 hPa 0,0 l/m 4,2 kts (2 Bft) NO 42 0 min 0,0 UV-I 100 W/m 16,2 C 16,5 C 5,2 kts (2 Bft) 95,65 %
25.08.2019 07:53 17,1 C 94 % 1019,7 hPa 0,0 l/m 3,9 kts (2 Bft) NO 42 0 min 0,0 UV-I 98 W/m 16,1 C 16,7 C 4,3 kts (2 Bft) 96,55 %
25.08.2019 07:52 17,1 C 94 % 1019,7 hPa 0,0 l/m 3,7 kts (2 Bft) NO 42 0 min 0,0 UV-I 97 W/m 16,1 C 16,9 C 4,3 kts (2 Bft) 100,00 %
25.08.2019 07:51 17,0 C 94 % 1019,6 hPa 0,0 l/m 2,8 kts (1 Bft) NO 53 0 min 0,0 UV-I 93 W/m 16,0 C 17,0 C 3,5 kts (2 Bft) 100,00 %
25.08.2019 07:50 17,0 C 94 % 1019,6 hPa 0,0 l/m 3,2 kts (2 Bft) NO 53 0 min 0,0 UV-I 90 W/m 16,0 C 17,0 C 3,5 kts (2 Bft) 100,00 %
25.08.2019 07:49 17,0 C 94 % 1019,6 hPa 0,0 l/m 3,3 kts (2 Bft) NO 53 0 min 0,0 UV-I 88 W/m 16,0 C 17,0 C 3,5 kts (2 Bft) 100,00 %
25.08.2019 07:48 17,0 C 94 % 1019,7 hPa 0,0 l/m 3,5 kts (2 Bft) NO 53 0 min 0,0 UV-I 86 W/m 16,0 C 17,0 C 5,2 kts (2 Bft) 100,00 %
25.08.2019 07:47 16,9 C 94 % 1019,5 hPa 0,0 l/m 4,3 kts (2 Bft) O-NO 58 0 min 0,0 UV-I 83 W/m 15,9 C 16,1 C 6,1 kts (2 Bft) 100,00 %
25.08.2019 07:46 16,9 C 94 % 1019,6 hPa 0,0 l/m 4,0 kts (2 Bft) NO 52 0 min 0,0 UV-I 81 W/m 15,9 C 16,4 C 4,3 kts (2 Bft) 100,00 %
25.08.2019 07:45 16,8 C 94 % 1019,7 hPa 0,0 l/m 4,0 kts (2 Bft) NO 49 0 min 0,0 UV-I 79 W/m 15,8 C 16,2 C 4,3 kts (2 Bft) 96,67 %
25.08.2019 07:44 16,8 C 94 % 1019,6 hPa 0,0 l/m 3,9 kts (2 Bft) NO 49 0 min 0,0 UV-I 77 W/m 15,8 C 16,4 C 4,3 kts (2 Bft) 100,00 %
25.08.2019 07:43 16,8 C 94 % 1019,5 hPa 0,0 l/m 4,3 kts (2 Bft) NO 50 0 min 0,0 UV-I 72 W/m 15,8 C 16,0 C 5,2 kts (2 Bft) 96,30 %
25.08.2019 07:42 16,8 C 94 % 1019,6 hPa 0,0 l/m 3,7 kts (2 Bft) NO 39 0 min 0,0 UV-I 70 W/m 15,8 C 16,5 C 4,3 kts (2 Bft) 96,15 %
25.08.2019 07:41 16,8 C 94 % 1019,5 hPa 0,0 l/m 3,7 kts (2 Bft) N-NO 32 0 min 0,0 UV-I 69 W/m 15,8 C 16,5 C 4,3 kts (2 Bft) 100,00 %
25.08.2019 07:40 16,8 C 94 % 1019,5 hPa 0,0 l/m 3,8 kts (2 Bft) N-NO 32 0 min 0,0 UV-I 67 W/m 15,8 C 16,5 C 4,3 kts (2 Bft) 93,33 %
25.08.2019 07:39 16,7 C 94 % 1019,5 hPa 0,0 l/m 4,3 kts (2 Bft) NO 41 0 min 0,0 UV-I 65 W/m 15,7 C 15,9 C 5,2 kts (2 Bft) 100,00 %
25.08.2019 07:38 16,8 C 94 % 1019,5 hPa 0,0 l/m 3,7 kts (2 Bft) NO 43 0 min 0,0 UV-I 62 W/m 15,8 C 16,6 C 4,3 kts (2 Bft) 96,30 %
25.08.2019 07:37 16,8 C 94 % 1019,5 hPa 0,0 l/m 3,5 kts (2 Bft) NO 43 0 min 0,0 UV-I 62 W/m 15,8 C 16,8 C 4,3 kts (2 Bft) 96,55 %
25.08.2019 07:36 16,8 C 94 % 1019,5 hPa 0,0 l/m 3,5 kts (2 Bft) NO 43 0 min 0,0 UV-I 60 W/m 15,8 C 16,8 C 4,3 kts (2 Bft) 100,00 %
25.08.2019 07:35 16,8 C 94 % 1019,5 hPa 0,0 l/m 3,2 kts (2 Bft) NO 43 0 min 0,0 UV-I 58 W/m 15,8 C 16,8 C 3,5 kts (2 Bft) 100,00 %
25.08.2019 07:34 16,8 C 94 % 1019,4 hPa 0,0 l/m 3,2 kts (2 Bft) NO 44 0 min 0,0 UV-I 58 W/m 15,8 C 16,8 C 4,3 kts (2 Bft) 96,15 %
25.08.2019 07:33 16,8 C 94 % 1019,5 hPa 0,0 l/m 3,3 kts (2 Bft) NO 46 0 min 0,0 UV-I 56 W/m 15,8 C 16,8 C 3,5 kts (2 Bft) 95,83 %
25.08.2019 07:32 16,8 C 94 % 1019,4 hPa 0,0 l/m 3,0 kts (1 Bft) NO 46 0 min 0,0 UV-I 56 W/m 15,8 C 16,8 C 3,5 kts (2 Bft) 100,00 %
25.08.2019 07:31 16,8 C 94 % 1019,5 hPa 0,0 l/m 3,3 kts (2 Bft) NO 46 0 min 0,0 UV-I 54 W/m 15,8 C 16,8 C 4,3 kts (2 Bft) 95,83 %
25.08.2019 07:30 16,8 C 94 % 1019,5 hPa 0,0 l/m 4,3 kts (2 Bft) NO 47 0 min 0,0 UV-I 54 W/m 15,8 C 16,0 C 5,2 kts (2 Bft) 100,00 %
25.08.2019 07:29 16,8 C 95 % 1019,5 hPa 0,0 l/m 5,0 kts (2 Bft) NO 47 0 min 0,0 UV-I 53 W/m 16,0 C 15,4 C 5,2 kts (2 Bft) 96,55 %
25.08.2019 07:28 16,7 C 94 % 1019,5 hPa 0,0 l/m 5,3 kts (2 Bft) NO 47 0 min 0,0 UV-I 53 W/m 15,7 C 15,1 C 6,1 kts (2 Bft) 100,00 %
25.08.2019 07:27 16,7 C 94 % 1019,5 hPa 0,0 l/m 5,3 kts (2 Bft) NO 47 0 min 0,0 UV-I 53 W/m 15,7 C 15,1 C 6,1 kts (2 Bft) 97,87 %
25.08.2019 07:26 16,7 C 94 % 1019,5 hPa 0,0 l/m 5,3 kts (2 Bft) NO 42 0 min 0,0 UV-I 51 W/m 15,7 C 15,1 C 6,1 kts (2 Bft) 98,93 %
25.08.2019 07:25 16,6 C 94 % 1019,5 hPa 0,0 l/m 5,6 kts (2 Bft) NO 42 0 min 0,0 UV-I 49 W/m 15,6 C 14,7 C 6,1 kts (2 Bft) 91,30 %
25.08.2019 07:24 16,6 C 94 % 1019,5 hPa 0,0 l/m 5,5 kts (2 Bft) NO 39 0 min 0,0 UV-I 49 W/m 15,6 C 14,8 C 6,1 kts (2 Bft) 95,83 %
25.08.2019 07:23 16,6 C 94 % 1019,5 hPa 0,0 l/m 5,5 kts (2 Bft) NO 38 0 min 0,0 UV-I 49 W/m 15,6 C 14,8 C 6,1 kts (2 Bft) 100,00 %
25.08.2019 07:22 16,6 C 94 % 1019,5 hPa 0,0 l/m 5,5 kts (2 Bft) NO 35 0 min 0,0 UV-I 47 W/m 15,6 C 14,8 C 7,0 kts (3 Bft) 95,65 %
25.08.2019 07:21 16,6 C 94 % 1019,5 hPa 0,0 l/m 5,0 kts (2 Bft) N-NO 32 0 min 0,0 UV-I 47 W/m 15,6 C 15,2 C 5,2 kts (2 Bft) 100,00 %
25.08.2019 07:20 16,6 C 94 % 1019,6 hPa 0,0 l/m 4,4 kts (2 Bft) N-NO 32 0 min 0,0 UV-I 47 W/m 15,6 C 15,7 C 5,2 kts (2 Bft) 95,65 %
25.08.2019 07:19 16,6 C 94 % 1019,6 hPa 0,0 l/m 4,3 kts (2 Bft) N-NO 31 0 min 0,0 UV-I 46 W/m 15,6 C 15,8 C 4,3 kts (2 Bft) 100,00 %
25.08.2019 07:18 16,6 C 94 % 1019,5 hPa 0,0 l/m 3,6 kts (2 Bft) N-NO 31 0 min 0,0 UV-I 46 W/m 15,6 C 16,5 C 4,3 kts (2 Bft) 100,00 %
25.08.2019 07:17 16,6 C 94 % 1019,6 hPa 0,0 l/m 3,5 kts (2 Bft) N-NO 32 0 min 0,0 UV-I 44 W/m 15,6 C 16,6 C 4,3 kts (2 Bft) 100,00 %
25.08.2019 07:16 16,6 C 94 % 1019,5 hPa 0,0 l/m 3,5 kts (2 Bft) N-NO 31 0 min 0,0 UV-I 44 W/m 15,6 C 16,6 C 4,3 kts (2 Bft) 100,00 %
25.08.2019 07:15 16,6 C 94 % 1019,5 hPa 0,0 l/m 3,7 kts (2 Bft) N-NO 31 0 min 0,0 UV-I 44 W/m 15,6 C 16,3 C 4,3 kts (2 Bft) 100,00 %
25.08.2019 07:14 16,6 C 94 % 1019,5 hPa 0,0 l/m 3,5 kts (2 Bft) N-NO 32 0 min 0,0 UV-I 42 W/m 15,6 C 16,6 C 4,3 kts (2 Bft) 100,00 %
25.08.2019 07:13 16,6 C 94 % 1019,6 hPa 0,0 l/m 3,1 kts (1 Bft) N-NO 31 0 min 0,0 UV-I 42 W/m 15,6 C 16,6 C 3,5 kts (2 Bft) 100,00 %
25.08.2019 07:12 16,6 C 94 % 1019,5 hPa 0,0 l/m 3,2 kts (2 Bft) N-NO 31 0 min 0,0 UV-I 40 W/m 15,6 C 16,6 C 3,5 kts (2 Bft) 100,00 %
25.08.2019 07:11 16,6 C 94 % 1019,5 hPa 0,0 l/m 2,9 kts (1 Bft) NO 39 0 min 0,0 UV-I 40 W/m 15,6 C 16,6 C 3,5 kts (2 Bft) 95,65 %
25.08.2019 07:10 16,6 C 94 % 1019,5 hPa 0,0 l/m 3,1 kts (2 Bft) NO 39 0 min 0,0 UV-I 40 W/m 15,6 C 16,6 C 3,5 kts (2 Bft) 100,00 %
25.08.2019 07:09 16,6 C 94 % 1019,5 hPa 0,0 l/m 3,3 kts (2 Bft) NO 39 0 min 0,0 UV-I 39 W/m 15,6 C 16,6 C 3,5 kts (2 Bft) 100,00 %
25.08.2019 07:08 16,6 C 94 % 1019,5 hPa 0,0 l/m 3,5 kts (2 Bft) NO 39 0 min 0,0 UV-I 37 W/m 15,6 C 16,6 C 3,5 kts (2 Bft) 100,00 %
25.08.2019 07:07 16,6 C 94 % 1019,5 hPa 0,0 l/m 3,2 kts (2 Bft) NO 40 0 min 0,0 UV-I 37 W/m 15,6 C 16,6 C 4,3 kts (2 Bft) 100,00 %
25.08.2019 07:06 16,6 C 94 % 1019,6 hPa 0,0 l/m 3,0 kts (1 Bft) O-NO 60 0 min 0,0 UV-I 35 W/m 15,6 C 16,6 C 3,5 kts (2 Bft) 100,00 %
25.08.2019 07:05 16,6 C 94 % 1019,6 hPa 0,0 l/m 2,9 kts (1 Bft) O-NO 60 0 min 0,0 UV-I 33 W/m 15,6 C 16,6 C 3,5 kts (2 Bft) 100,00 %
25.08.2019 07:04 16,5 C 94 % 1019,5 hPa 0,0 l/m 3,1 kts (1 Bft) O-NO 60 0 min 0,0 UV-I 33 W/m 15,5 C 16,5 C 4,3 kts (2 Bft) 100,00 %
25.08.2019 07:03 16,6 C 94 % 1019,6 hPa 0,0 l/m 3,2 kts (2 Bft) O-NO 60 0 min 0,0 UV-I 33 W/m 15,6 C 16,6 C 3,5 kts (2 Bft) 100,00 %
25.08.2019 07:02 16,5 C 94 % 1019,5 hPa 0,0 l/m 3,1 kts (2 Bft) O-NO 60 0 min 0,0 UV-I 32 W/m 15,5 C 16,5 C 3,5 kts (2 Bft) 100,00 %
25.08.2019 07:01 16,5 C 94 % 1019,6 hPa 0,0 l/m 3,1 kts (2 Bft) O-NO 60 0 min 0,0 UV-I 30 W/m 15,5 C 16,5 C 3,5 kts (2 Bft) 100,00 %
25.08.2019 07:00 16,5 C 94 % 1019,5 hPa 0,0 l/m 3,1 kts (2 Bft) O-NO 60 0 min 0,0 UV-I 30 W/m 15,5 C 16,5 C 3,5 kts (2 Bft) 100,00 %
25.08.2019 06:59 16,5 C 94 % 1019,5 hPa 0,0 l/m 2,7 kts (1 Bft) O-NO 60 0 min 0,0 UV-I 30 W/m 15,5 C 16,5 C 3,5 kts (2 Bft) 100,00 %
25.08.2019 06:58 16,5 C 94 % 1019,6 hPa 0,0 l/m 2,4 kts (1 Bft) O-NO 60 0 min 0,0 UV-I 28 W/m 15,5 C 16,5 C 2,6 kts (1 Bft) 100,00 %
25.08.2019 06:57 16,5 C 94 % 1019,6 hPa 0,0 l/m 2,2 kts (1 Bft) O-NO 60 0 min 0,0 UV-I 26 W/m 15,5 C 16,5 C 2,6 kts (1 Bft) 100,00 %
25.08.2019 06:56 16,5 C 94 % 1019,6 hPa 0,0 l/m 2,2 kts (1 Bft) O-NO 60 0 min 0,0 UV-I 26 W/m 15,5 C 16,5 C 2,6 kts (1 Bft) 100,00 %
25.08.2019 06:55 16,5 C 93 % 1019,6 hPa 0,0 l/m 2,7 kts (1 Bft) O-NO 60 0 min 0,0 UV-I 25 W/m 15,4 C 16,5 C 3,5 kts (2 Bft) 100,00 %
25.08.2019 06:54 16,6 C 94 % 1019,6 hPa 0,0 l/m 2,4 kts (1 Bft) O-NO 60 0 min 0,0 UV-I 25 W/m 15,6 C 16,6 C 2,6 kts (1 Bft) 100,00 %
25.08.2019 06:53 16,6 C 94 % 1019,6 hPa 0,0 l/m 2,4 kts (1 Bft) O-NO 60 0 min 0,0 UV-I 25 W/m 15,6 C 16,6 C 2,6 kts (1 Bft) 95,83 %
25.08.2019 06:52 16,6 C 94 % 1019,6 hPa 0,0 l/m 2,9 kts (1 Bft) O-NO 60 0 min 0,0 UV-I 23 W/m 15,6 C 16,6 C 3,5 kts (2 Bft) 100,00 %
25.08.2019 06:51 16,6 C 94 % 1019,5 hPa 0,0 l/m 2,4 kts (1 Bft) O-NO 60 0 min 0,0 UV-I 23 W/m 15,6 C 16,6 C 2,6 kts (1 Bft) 100,00 %
25.08.2019 06:50 16,5 C 94 % 1019,7 hPa 0,0 l/m 2,8 kts (1 Bft) O-NO 60 0 min 0,0 UV-I 21 W/m 15,5 C 16,5 C 3,5 kts (2 Bft) 100,00 %
25.08.2019 06:49 16,6 C 94 % 1019,6 hPa 0,0 l/m 3,1 kts (2 Bft) O-NO 60 0 min 0,0 UV-I 21 W/m 15,6 C 16,6 C 3,5 kts (2 Bft) 100,00 %
25.08.2019 06:48 16,6 C 94 % 1019,6 hPa 0,0 l/m 2,6 kts (1 Bft) O-NO 60 0 min 0,0 UV-I 21 W/m 15,6 C 16,6 C 3,5 kts (2 Bft) 100,00 %
25.08.2019 06:47 16,6 C 94 % 1019,6 hPa 0,0 l/m 2,1 kts (1 Bft) O-NO 60 0 min 0,0 UV-I 19 W/m 15,6 C 16,6 C 2,6 kts (1 Bft) 100,00 %
25.08.2019 06:46 16,6 C 94 % 1019,7 hPa 0,0 l/m 2,0 kts (1 Bft) O-NO 60 0 min 0,0 UV-I 19 W/m 15,6 C 16,6 C 2,6 kts (1 Bft) 100,00 %
25.08.2019 06:45 16,5 C 94 % 1019,6 hPa 0,0 l/m 2,3 kts (1 Bft) O-NO 60 0 min 0,0 UV-I 19 W/m 15,5 C 16,5 C 2,6 kts (1 Bft) 100,00 %
25.08.2019 06:44 16,5 C 94 % 1019,7 hPa 0,0 l/m 2,6 kts (1 Bft) O-NO 60 0 min 0,0 UV-I 18 W/m 15,5 C 16,5 C 3,5 kts (2 Bft) 100,00 %
25.08.2019 06:43 16,5 C 94 % 1019,7 hPa 0,0 l/m 2,8 kts (1 Bft) O-NO 60 0 min 0,0 UV-I 18 W/m 15,5 C 16,5 C 3,5 kts (2 Bft) 100,00 %
25.08.2019 06:42 16,5 C 94 % 1019,7 hPa 0,0 l/m 2,4 kts (1 Bft) O-NO 60 0 min 0,0 UV-I 18 W/m 15,5 C 16,5 C 2,6 kts (1 Bft) 100,00 %
25.08.2019 06:41 16,5 C 94 % 1019,7 hPa 0,0 l/m 2,9 kts (1 Bft) O-NO 60 0 min 0,0 UV-I 16 W/m 15,5 C 16,5 C 3,5 kts (2 Bft) 100,00 %
25.08.2019 06:40 16,5 C 94 % 1019,7 hPa 0,0 l/m 3,2 kts (2 Bft) O-NO 60 0 min 0,0 UV-I 16 W/m 15,5 C 16,5 C 4,3 kts (2 Bft) 100,00 %
25.08.2019 06:39 16,5 C 94 % 1019,7 hPa 0,0 l/m 3,5 kts (2 Bft) O-NO 60 0 min 0,0 UV-I 14 W/m 15,5 C 16,5 C 4,3 kts (2 Bft) 100,00 %
25.08.2019 06:38 16,4 C 94 % 1019,7 hPa 0,0 l/m 3,5 kts (2 Bft) O-NO 59 0 min 0,0 UV-I 14 W/m 15,4 C 16,4 C 4,3 kts (2 Bft) 100,00 %
25.08.2019 06:37 16,5 C 93 % 1019,6 hPa 0,0 l/m 3,6 kts (2 Bft) O-NO 59 0 min 0,0 UV-I 14 W/m 15,4 C 16,4 C 4,3 kts (2 Bft) 100,00 %
25.08.2019 06:36 16,5 C 93 % 1019,7 hPa 0,0 l/m 3,9 kts (2 Bft) O-NO 59 0 min 0,0 UV-I 14 W/m 15,4 C 16,0 C 4,3 kts (2 Bft) 100,00 %
25.08.2019 06:35 16,6 C 93 % 1019,7 hPa 0,0 l/m 4,1 kts (2 Bft) O-NO 60 0 min 0,0 UV-I 12 W/m 15,5 C 16,0 C 4,3 kts (2 Bft) 98,77 %
25.08.2019 06:34 16,6 C 93 % 1019,6 hPa 0,0 l/m 4,8 kts (2 Bft) NO 55 0 min 0,0 UV-I 12 W/m 15,5 C 15,4 C 5,2 kts (2 Bft) 98,77 %
25.08.2019 06:33 16,6 C 93 % 1019,7 hPa 0,0 l/m 5,0 kts (2 Bft) NO 55 0 min 0,0 UV-I 12 W/m 15,5 C 15,2 C 5,2 kts (2 Bft) 100,00 %
25.08.2019 06:32 16,7 C 93 % 1019,7 hPa 0,0 l/m 4,3 kts (2 Bft) NO 55 0 min 0,0 UV-I 11 W/m 15,6 C 15,9 C 4,3 kts (2 Bft) 98,74 %
25.08.2019 06:31 16,7 C 93 % 1019,7 hPa 0,0 l/m 4,3 kts (2 Bft) NO 53 0 min 0,0 UV-I 11 W/m 15,6 C 15,9 C 4,3 kts (2 Bft) 98,74 %
25.08.2019 06:30 16,7 C 93 % 1019,6 hPa 0,0 l/m 5,1 kts (2 Bft) NO 53 0 min 0,0 UV-I 11 W/m 15,6 C 15,2 C 6,1 kts (2 Bft) 100,00 %
25.08.2019 06:29 16,7 C 93 % 1019,6 hPa 0,0 l/m 5,7 kts (2 Bft) O-NO 57 0 min 0,0 UV-I 11 W/m 15,6 C 14,8 C 6,1 kts (2 Bft) 100,00 %
25.08.2019 06:28 16,7 C 93 % 1019,6 hPa 0,0 l/m 5,3 kts (2 Bft) NO 51 0 min 0,0 UV-I 9 W/m 15,6 C 15,0 C 6,1 kts (2 Bft) 100,00 %
25.08.2019 06:27 16,7 C 93 % 1019,6 hPa 0,0 l/m 4,8 kts (2 Bft) NO 49 0 min 0,0 UV-I 9 W/m 15,6 C 15,5 C 5,2 kts (2 Bft) 100,00 %
25.08.2019 06:26 16,7 C 93 % 1019,6 hPa 0,0 l/m 4,3 kts (2 Bft) NO 52 0 min 0,0 UV-I 9 W/m 15,6 C 15,9 C 4,3 kts (2 Bft) 100,00 %
25.08.2019 06:25 16,7 C 93 % 1019,6 hPa 0,0 l/m 5,0 kts (2 Bft) NO 51 0 min 0,0 UV-I 7 W/m 15,6 C 15,3 C 6,1 kts (2 Bft) 100,00 %
25.08.2019 06:24 16,7 C 93 % 1019,6 hPa 0,0 l/m 4,8 kts (2 Bft) NO 46 0 min 0,0 UV-I 7 W/m 15,6 C 15,5 C 6,1 kts (2 Bft) 100,00 %
25.08.2019 06:23 16,7 C 93 % 1019,7 hPa 0,0 l/m 5,3 kts (2 Bft) NO 50 0 min 0,0 UV-I 7 W/m 15,6 C 15,1 C 6,1 kts (2 Bft) 100,00 %
25.08.2019 06:22 16,7 C 93 % 1019,7 hPa 0,0 l/m 5,0 kts (2 Bft) NO 51 0 min 0,0 UV-I 7 W/m 15,6 C 15,3 C 6,1 kts (2 Bft) 100,00 %
25.08.2019 06:21 16,7 C 93 % 1019,7 hPa 0,0 l/m 6,6 kts (2 Bft) NO 44 0 min 0,0 UV-I 5 W/m 15,6 C 14,2 C 8,7 kts (3 Bft) 100,00 %
25.08.2019 06:20 16,7 C 93 % 1019,7 hPa 0,0 l/m 5,7 kts (2 Bft) NO 53 0 min 0,0 UV-I 5 W/m 15,6 C 14,8 C 6,1 kts (2 Bft) 100,00 %
25.08.2019 06:19 16,7 C 93 % 1019,7 hPa 0,0 l/m 5,6 kts (2 Bft) NO 54 0 min 0,0 UV-I 5 W/m 15,6 C 14,8 C 6,1 kts (2 Bft) 100,00 %
25.08.2019 06:18 16,7 C 92 % 1019,7 hPa 0,0 l/m 6,1 kts (2 Bft) NO 48 0 min 0,0 UV-I 5 W/m 15,4 C 14,5 C 7,8 kts (3 Bft) 100,00 %
25.08.2019 06:17 16,7 C 92 % 1019,7 hPa 0,0 l/m 5,6 kts (2 Bft) NO 43 0 min 0,0 UV-I 5 W/m 15,4 C 14,8 C 7,8 kts (3 Bft) 100,00 %
25.08.2019 06:16 16,7 C 92 % 1019,7 hPa 0,0 l/m 5,5 kts (2 Bft) NO 47 0 min 0,0 UV-I 0 W/m 15,4 C 14,9 C 6,1 kts (2 Bft) 100,00 %
25.08.2019 06:15 16,8 C 92 % 1019,8 hPa 0,0 l/m 5,7 kts (2 Bft) NO 45 0 min 0,0 UV-I 0 W/m 15,5 C 14,9 C 6,1 kts (2 Bft) 100,00 %
25.08.2019 06:14 16,8 C 92 % 1019,8 hPa 0,0 l/m 5,7 kts (2 Bft) NO 55 0 min 0,0 UV-I 0 W/m 15,5 C 14,9 C 7,8 kts (3 Bft) 99,15 %
25.08.2019 06:13 16,8 C 92 % 1019,7 hPa 0,0 l/m 5,2 kts (2 Bft) NO 44 0 min 0,0 UV-I 0 W/m 15,5 C 15,2 C 5,2 kts (2 Bft) 98,56 %
25.08.2019 06:12 16,8 C 92 % 1019,8 hPa 0,0 l/m 5,2 kts (2 Bft) NO 49 0 min 0,0 UV-I 0 W/m 15,5 C 15,2 C 5,2 kts (2 Bft) 98,56 %
25.08.2019 06:11 16,8 C 92 % 1019,7 hPa 0,0 l/m 6,1 kts (2 Bft) NO 46 0 min 0,0 UV-I 0 W/m 15,5 C 14,6 C 6,1 kts (2 Bft) 98,56 %
25.08.2019 06:10 16,8 C 92 % 1019,7 hPa 0,0 l/m 5,8 kts (2 Bft) NO 46 0 min 0,0 UV-I 0 W/m 15,5 C 14,8 C 6,1 kts (2 Bft) 98,56 %
25.08.2019 06:09 16,8 C 92 % 1019,7 hPa 0,0 l/m 5,5 kts (2 Bft) NO 50 0 min 0,0 UV-I 0 W/m 15,5 C 15,1 C 6,1 kts (2 Bft) 100,00 %
25.08.2019 06:08 16,8 C 92 % 1019,7 hPa 0,0 l/m 5,2 kts (2 Bft) NO 53 0 min 0,0 UV-I 0 W/m 15,5 C 15,2 C 6,1 kts (2 Bft) 100,00 %
25.08.2019 06:07 16,8 C 92 % 1019,8 hPa 0,0 l/m 5,2 kts (2 Bft) NO 42 0 min 0,0 UV-I 0 W/m 15,5 C 15,2 C 6,1 kts (2 Bft) 100,00 %
25.08.2019 06:06 16,8 C 92 % 1019,7 hPa 0,0 l/m 5,2 kts (2 Bft) NO 47 0 min 0,0 UV-I 0 W/m 15,5 C 15,2 C 6,1 kts (2 Bft) 96,15 %
25.08.2019 06:05 16,8 C 92 % 1019,7 hPa 0,0 l/m 5,7 kts (2 Bft) NO 48 0 min 0,0 UV-I 0 W/m 15,5 C 14,9 C 6,1 kts (2 Bft) 98,58 %
25.08.2019 06:04 16,8 C 92 % 1019,8 hPa 0,0 l/m 5,6 kts (2 Bft) NO 51 0 min 0,0 UV-I 0 W/m 15,5 C 15,0 C 6,1 kts (2 Bft) 100,00 %
25.08.2019 06:03 16,8 C 92 % 1019,7 hPa 0,0 l/m 5,3 kts (2 Bft) NO 44 0 min 0,0 UV-I 0 W/m 15,5 C 15,2 C 6,1 kts (2 Bft) 96,88 %
25.08.2019 06:02 16,8 C 92 % 1019,8 hPa 0,0 l/m 5,4 kts (2 Bft) NO 50 0 min 0,0 UV-I 0 W/m 15,5 C 15,1 C 6,1 kts (2 Bft) 100,00 %
25.08.2019 06:01 16,8 C 92 % 1019,8 hPa 0,0 l/m 6,5 kts (2 Bft) NO 51 0 min 0,0 UV-I 0 W/m 15,5 C 14,3 C 7,8 kts (3 Bft) 95,65 %
25.08.2019 06:00 16,8 C 92 % 1019,8 hPa 0,0 l/m 5,8 kts (2 Bft) NO 51 0 min 0,0 UV-I 0 W/m 15,5 C 14,8 C 7,8 kts (3 Bft) 96,30 %
25.08.2019 05:59 16,8 C 92 % 1019,8 hPa 0,0 l/m 5,9 kts (2 Bft) NO 50 0 min 0,0 UV-I 0 W/m 15,5 C 14,8 C 8,7 kts (3 Bft) 96,55 %
25.08.2019 05:58 16,8 C 92 % 1019,8 hPa 0,0 l/m 5,1 kts (2 Bft) O-NO 61 0 min 0,0 UV-I 0 W/m 15,5 C 15,4 C 7,0 kts (3 Bft) 96,15 %
25.08.2019 05:57 16,8 C 92 % 1019,9 hPa 0,0 l/m 7,3 kts (3 Bft) NO 53 0 min 0,0 UV-I 0 W/m 15,5 C 13,8 C 8,7 kts (3 Bft) 100,00 %
25.08.2019 05:56 16,9 C 92 % 1019,8 hPa 0,0 l/m 6,0 kts (2 Bft) O-NO 59 0 min 0,0 UV-I 0 W/m 15,6 C 14,8 C 8,7 kts (3 Bft) 95,65 %
25.08.2019 05:55 16,9 C 92 % 1019,8 hPa 0,0 l/m 4,9 kts (2 Bft) NO 50 0 min 0,0 UV-I 0 W/m 15,6 C 15,6 C 6,1 kts (2 Bft) 100,00 %
25.08.2019 05:54 16,9 C 92 % 1019,7 hPa 0,0 l/m 5,2 kts (2 Bft) O-NO 67 0 min 0,0 UV-I 0 W/m 15,6 C 15,3 C 7,0 kts (3 Bft) 97,56 %
25.08.2019 05:53 16,9 C 92 % 1019,7 hPa 0,0 l/m 6,5 kts (2 Bft) O-NO 66 0 min 0,0 UV-I 0 W/m 15,6 C 14,5 C 8,7 kts (3 Bft) 98,69 %
25.08.2019 05:52 16,9 C 92 % 1019,7 hPa 0,0 l/m 5,0 kts (2 Bft) NO 51 0 min 0,0 UV-I 0 W/m 15,6 C 15,5 C 6,1 kts (2 Bft) 97,56 %
25.08.2019 05:51 16,9 C 92 % 1019,8 hPa 0,0 l/m 4,5 kts (2 Bft) NO 38 0 min 0,0 UV-I 0 W/m 15,6 C 15,9 C 6,1 kts (2 Bft) 100,00 %
25.08.2019 05:50 16,9 C 92 % 1019,8 hPa 0,0 l/m 3,9 kts (2 Bft) NO 50 0 min 0,0 UV-I 0 W/m 15,6 C 16,5 C 5,2 kts (2 Bft) 95,83 %
25.08.2019 05:49 16,9 C 92 % 1019,8 hPa 0,0 l/m 5,1 kts (2 Bft) NO 44 0 min 0,0 UV-I 0 W/m 15,6 C 15,5 C 6,1 kts (2 Bft) 95,65 %
25.08.2019 05:48 16,9 C 92 % 1019,8 hPa 0,0 l/m 4,6 kts (2 Bft) NO 42 0 min 0,0 UV-I 0 W/m 15,6 C 15,8 C 5,2 kts (2 Bft) 100,00 %
25.08.2019 05:47 16,9 C 92 % 1019,8 hPa 0,0 l/m 4,4 kts (2 Bft) NO 44 0 min 0,0 UV-I 0 W/m 15,6 C 16,0 C 6,1 kts (2 Bft) 93,33 %
25.08.2019 05:46 16,9 C 92 % 1019,7 hPa 0,0 l/m 3,8 kts (2 Bft) NO 38 0 min 0,0 UV-I 0 W/m 15,6 C 16,5 C 4,3 kts (2 Bft) 100,00 %
25.08.2019 05:45 16,9 C 92 % 1019,7 hPa 0,0 l/m 4,2 kts (2 Bft) NO 46 0 min 0,0 UV-I 0 W/m 15,6 C 16,2 C 5,2 kts (2 Bft) 95,83 %
25.08.2019 05:44 16,9 C 92 % 1019,7 hPa 0,0 l/m 4,1 kts (2 Bft) NO 49 0 min 0,0 UV-I 0 W/m 15,6 C 16,3 C 5,2 kts (2 Bft) 100,00 %
25.08.2019 05:43 16,9 C 92 % 1019,8 hPa 0,0 l/m 4,1 kts (2 Bft) NO 50 0 min 0,0 UV-I 0 W/m 15,6 C 16,3 C 5,2 kts (2 Bft) 95,83 %
25.08.2019 05:42 17,0 C 92 % 1019,8 hPa 0,0 l/m 3,6 kts (2 Bft) O-NO 57 0 min 0,0 UV-I 0 W/m 15,7 C 16,9 C 4,3 kts (2 Bft) 100,00 %
25.08.2019 05:41 16,9 C 92 % 1019,8 hPa 0,0 l/m 4,3 kts (2 Bft) O-NO 57 0 min 0,0 UV-I 0 W/m 15,6 C 16,1 C 7,0 kts (3 Bft) 95,83 %
25.08.2019 05:40 16,9 C 92 % 1019,8 hPa 0,0 l/m 5,0 kts (2 Bft) NO 50 0 min 0,0 UV-I 0 W/m 15,6 C 15,6 C 7,0 kts (3 Bft) 100,00 %
25.08.2019 05:39 16,9 C 92 % 1019,8 hPa 0,0 l/m 4,3 kts (2 Bft) NO 52 0 min 0,0 UV-I 0 W/m 15,6 C 16,1 C 5,2 kts (2 Bft) 100,00 %
25.08.2019 05:38 16,9 C 92 % 1019,8 hPa 0,0 l/m 5,6 kts (2 Bft) O-NO 63 0 min 0,0 UV-I 0 W/m 15,6 C 15,1 C 7,8 kts (3 Bft) 100,00 %
25.08.2019 05:37 16,9 C 92 % 1019,8 hPa 0,0 l/m 4,2 kts (2 Bft) NO 50 0 min 0,0 UV-I 0 W/m 15,6 C 16,2 C 5,2 kts (2 Bft) 100,00 %
25.08.2019 05:36 17,0 C 92 % 1019,8 hPa 0,0 l/m 5,2 kts (2 Bft) O-NO 68 0 min 0,0 UV-I 0 W/m 15,7 C 15,4 C 7,0 kts (3 Bft) 95,83 %
25.08.2019 05:35 16,9 C 92 % 1019,7 hPa 0,0 l/m 5,7 kts (2 Bft) O-NO 67 0 min 0,0 UV-I 0 W/m 15,6 C 15,0 C 7,8 kts (3 Bft) 95,65 %
25.08.2019 05:34 16,9 C 93 % 1019,7 hPa 0,0 l/m 5,7 kts (2 Bft) NO 49 0 min 0,0 UV-I 0 W/m 15,8 C 15,0 C 8,7 kts (3 Bft) 100,00 %
25.08.2019 05:33 17,0 C 93 % 1019,8 hPa 0,0 l/m 5,6 kts (2 Bft) O-NO 65 0 min 0,0 UV-I 0 W/m 15,9 C 15,2 C 7,8 kts (3 Bft) 100,00 %
25.08.2019 05:32 16,9 C 93 % 1019,8 hPa 0,0 l/m 6,4 kts (2 Bft) O-NO 60 0 min 0,0 UV-I 0 W/m 15,8 C 14,5 C 7,8 kts (3 Bft) 100,00 %
25.08.2019 05:31 16,9 C 93 % 1019,7 hPa 0,0 l/m 4,2 kts (2 Bft) O-NO 60 0 min 0,0 UV-I 0 W/m 15,8 C 16,2 C 5,2 kts (2 Bft) 100,00 %
25.08.2019 05:30 16,9 C 93 % 1019,9 hPa 0,0 l/m 5,0 kts (2 Bft) O-NO 58 0 min 0,0 UV-I 0 W/m 15,8 C 15,5 C 7,8 kts (3 Bft) 100,00 %
25.08.2019 05:29 16,9 C 93 % 1019,8 hPa 0,0 l/m 5,7 kts (2 Bft) O-NO 68 0 min 0,0 UV-I 0 W/m 15,8 C 15,0 C 7,8 kts (3 Bft) 100,00 %
25.08.2019 05:28 16,8 C 93 % 1019,8 hPa 0,0 l/m 4,2 kts (2 Bft) O-NO 60 0 min 0,0 UV-I 0 W/m 15,7 C 16,1 C 5,2 kts (2 Bft) 95,65 %
25.08.2019 05:27 16,8 C 93 % 1019,9 hPa 0,0 l/m 4,1 kts (2 Bft) O-NO 76 0 min 0,0 UV-I 0 W/m 15,7 C 16,2 C 6,1 kts (2 Bft) 100,00 %
25.08.2019 05:26 16,8 C 94 % 1019,8 hPa 0,0 l/m 5,1 kts (2 Bft) O-NO 61 0 min 0,0 UV-I 0 W/m 15,8 C 15,4 C 7,0 kts (3 Bft) 100,00 %
25.08.2019 05:25 16,8 C 94 % 1019,8 hPa 0,0 l/m 4,4 kts (2 Bft) O-NO 67 0 min 0,0 UV-I 0 W/m 15,8 C 15,9 C 5,2 kts (2 Bft) 95,65 %
25.08.2019 05:24 16,7 C 94 % 1019,8 hPa 0,0 l/m 5,0 kts (2 Bft) NO 53 0 min 0,0 UV-I 0 W/m 15,7 C 15,3 C 7,0 kts (3 Bft) 100,00 %
25.08.2019 05:23 16,7 C 95 % 1019,8 hPa 0,0 l/m 4,1 kts (2 Bft) NO 54 0 min 0,0 UV-I 0 W/m 15,9 C 16,1 C 6,1 kts (2 Bft) 100,00 %
25.08.2019 05:22 16,7 C 95 % 1019,8 hPa 0,0 l/m 4,5 kts (2 Bft) O-NO 59 0 min 0,0 UV-I 0 W/m 15,9 C 15,7 C 6,1 kts (2 Bft) 100,00 %
25.08.2019 05:21 16,7 C 95 % 1019,8 hPa 0,0 l/m 5,3 kts (2 Bft) O-NO 59 0 min 0,0 UV-I 0 W/m 15,9 C 15,0 C 7,8 kts (3 Bft) 100,00 %
25.08.2019 05:20 16,8 C 95 % 1019,8 hPa 0,0 l/m 4,2 kts (2 Bft) NO 42 0 min 0,0 UV-I 0 W/m 16,0 C 16,1 C 5,2 kts (2 Bft) 100,00 %
25.08.2019 05:19 16,7 C 95 % 1019,8 hPa 0,0 l/m 6,1 kts (2 Bft) O-NO 62 0 min 0,0 UV-I 0 W/m 15,9 C 14,5 C 7,8 kts (3 Bft) 100,00 %
25.08.2019 05:18 16,8 C 95 % 1019,7 hPa 0,0 l/m 5,7 kts (2 Bft) O-NO 74 0 min 0,0 UV-I 0 W/m 16,0 C 14,9 C 8,7 kts (3 Bft) 100,00 %
25.08.2019 05:17 16,8 C 95 % 1019,8 hPa 0,0 l/m 5,6 kts (2 Bft) NO 51 0 min 0,0 UV-I 0 W/m 16,0 C 14,9 C 7,0 kts (3 Bft) 100,00 %
25.08.2019 05:16 16,8 C 95 % 1019,7 hPa 0,0 l/m 4,9 kts (2 Bft) NO 51 0 min 0,0 UV-I 0 W/m 16,0 C 15,5 C 6,1 kts (2 Bft) 100,00 %
25.08.2019 05:15 16,7 C 96 % 1019,6 hPa 0,0 l/m 3,3 kts (2 Bft) NO 51 0 min 0,0 UV-I 0 W/m 16,1 C 16,7 C 5,2 kts (2 Bft) 100,00 %
25.08.2019 05:14 16,7 C 96 % 1019,8 hPa 0,0 l/m 3,7 kts (2 Bft) NO 45 0 min 0,0 UV-I 0 W/m 16,1 C 16,4 C 5,2 kts (2 Bft) 100,00 %
25.08.2019 05:13 16,7 C 96 % 1019,7 hPa 0,0 l/m 3,9 kts (2 Bft) NO 47 0 min 0,0 UV-I 0 W/m 16,1 C 16,2 C 5,2 kts (2 Bft) 100,00 %
25.08.2019 05:12 16,7 C 96 % 1019,7 hPa 0,0 l/m 3,9 kts (2 Bft) NO 46 0 min 0,0 UV-I 0 W/m 16,1 C 16,3 C 6,1 kts (2 Bft) 100,00 %
25.08.2019 05:11 16,6 C 96 % 1019,8 hPa 0,0 l/m 3,2 kts (2 Bft) NO 53 0 min 0,0 UV-I 0 W/m 16,0 C 16,6 C 3,5 kts (2 Bft) 100,00 %
25.08.2019 05:10 16,7 C 96 % 1019,8 hPa 0,0 l/m 4,4 kts (2 Bft) NO 56 0 min 0,0 UV-I 0 W/m 16,1 C 15,8 C 5,2 kts (2 Bft) 83,33 %
25.08.2019 05:09 16,6 C 96 % 1019,8 hPa 0,0 l/m 5,0 kts (2 Bft) NO 55 0 min 0,0 UV-I 0 W/m 16,0 C 15,2 C 7,8 kts (3 Bft) 100,00 %
25.08.2019 05:08 16,6 C 96 % 1019,7 hPa 0,0 l/m 4,3 kts (2 Bft) NO 47 0 min 0,0 UV-I 0 W/m 16,0 C 15,8 C 5,2 kts (2 Bft) 100,00 %
25.08.2019 05:07 16,6 C 96 % 1019,8 hPa 0,0 l/m 5,0 kts (2 Bft) NO 51 0 min 0,0 UV-I 0 W/m 16,0 C 15,2 C 7,0 kts (3 Bft) 100,00 %
25.08.2019 05:06 16,6 C 96 % 1019,8 hPa 0,0 l/m 4,2 kts (2 Bft) NO 46 0 min 0,0 UV-I 0 W/m 16,0 C 15,9 C 5,2 kts (2 Bft) 100,00 %
25.08.2019 05:05 16,6 C 96 % 1019,8 hPa 0,0 l/m 4,6 kts (2 Bft) NO 51 0 min 0,0 UV-I 0 W/m 16,0 C 15,5 C 7,0 kts (3 Bft) 100,00 %
25.08.2019 05:04 16,6 C 96 % 1019,7 hPa 0,0 l/m 4,1 kts (2 Bft) NO 41 0 min 0,0 UV-I 0 W/m 16,0 C 16,0 C 6,1 kts (2 Bft) 100,00 %
25.08.2019 05:03 16,6 C 96 % 1019,7 hPa 0,0 l/m 5,2 kts (2 Bft) NO 50 0 min 0,0 UV-I 0 W/m 16,0 C 15,1 C 6,1 kts (2 Bft) 100,00 %
25.08.2019 05:02 16,6 C 96 % 1019,8 hPa 0,0 l/m 4,6 kts (2 Bft) NO 40 0 min 0,0 UV-I 0 W/m 16,0 C 15,5 C 5,2 kts (2 Bft) 100,00 %
25.08.2019 05:01 16,6 C 97 % 1019,8 hPa 0,0 l/m 4,3 kts (2 Bft) NO 49 0 min 0,0 UV-I 0 W/m 16,1 C 15,8 C 6,1 kts (2 Bft) 100,00 %
25.08.2019 05:00 16,6 C 97 % 1019,7 hPa 0,0 l/m 3,6 kts (2 Bft) NO 41 0 min 0,0 UV-I 0 W/m 16,1 C 16,5 C 4,3 kts (2 Bft) 95,83 %
25.08.2019 04:59 16,6 C 97 % 1019,7 hPa 0,0 l/m 4,5 kts (2 Bft) NO 41 0 min 0,0 UV-I 0 W/m 16,1 C 15,6 C 5,2 kts (2 Bft) 100,00 %
25.08.2019 04:58 16,5 C 97 % 1019,7 hPa 0,0 l/m 4,3 kts (2 Bft) NO 45 0 min 0,0 UV-I 0 W/m 16,0 C 15,7 C 5,2 kts (2 Bft) 100,00 %
25.08.2019 04:57 16,5 C 96 % 1019,7 hPa 0,0 l/m 4,4 kts (2 Bft) NO 40 0 min 0,0 UV-I 0 W/m 15,9 C 15,6 C 6,1 kts (2 Bft) 100,00 %
25.08.2019 04:56 16,5 C 96 % 1019,7 hPa 0,0 l/m 5,3 kts (2 Bft) NO 38 0 min 0,0 UV-I 0 W/m 15,9 C 14,8 C 8,7 kts (3 Bft) 96,15 %
25.08.2019 04:55 16,5 C 96 % 1019,5 hPa 0,0 l/m 3,9 kts (2 Bft) NO 36 0 min 0,0 UV-I 0 W/m 15,9 C 16,1 C 4,3 kts (2 Bft) 100,00 %
25.08.2019 04:54 16,5 C 96 % 1019,5 hPa 0,0 l/m 4,2 kts (2 Bft) NO 36 0 min 0,0 UV-I 0 W/m 15,9 C 15,8 C 5,2 kts (2 Bft) 100,00 %
25.08.2019 04:53 16,5 C 96 % 1019,6 hPa 0,0 l/m 4,0 kts (2 Bft) N-NO 33 0 min 0,0 UV-I 0 W/m 15,9 C 16,0 C 5,2 kts (2 Bft) 100,00 %
25.08.2019 04:52 16,5 C 96 % 1019,5 hPa 0,0 l/m 4,0 kts (2 Bft) N-NO 33 0 min 0,0 UV-I 0 W/m 15,9 C 15,9 C 4,3 kts (2 Bft) 100,00 %
25.08.2019 04:51 16,5 C 96 % 1019,6 hPa 0,0 l/m 3,9 kts (2 Bft) N-NO 30 0 min 0,0 UV-I 0 W/m 15,9 C 16,0 C 4,3 kts (2 Bft) 100,00 %
25.08.2019 04:50 16,5 C 96 % 1019,7 hPa 0,0 l/m 4,0 kts (2 Bft) N-NO 30 0 min 0,0 UV-I 0 W/m 15,9 C 16,0 C 4,3 kts (2 Bft) 100,00 %
25.08.2019 04:49 16,5 C 96 % 1019,7 hPa 0,0 l/m 4,3 kts (2 Bft) NO 34 0 min 0,0 UV-I 0 W/m 15,9 C 15,7 C 5,2 kts (2 Bft) 100,00 %
25.08.2019 04:48 16,6 C 96 % 1019,6 hPa 0,0 l/m 4,3 kts (2 Bft) NO 34 0 min 0,0 UV-I 0 W/m 16,0 C 15,8 C 5,2 kts (2 Bft) 100,00 %
25.08.2019 04:47 16,6 C 96 % 1019,6 hPa 0,0 l/m 3,9 kts (2 Bft) NO 37 0 min 0,0 UV-I 0 W/m 16,0 C 16,2 C 4,3 kts (2 Bft) 100,00 %
25.08.2019 04:46 16,6 C 96 % 1019,6 hPa 0,0 l/m 3,9 kts (2 Bft) NO 37 0 min 0,0 UV-I 0 W/m 16,0 C 16,2 C 4,3 kts (2 Bft) 100,00 %
25.08.2019 04:45 16,6 C 96 % 1019,6 hPa 0,0 l/m 4,0 kts (2 Bft) NO 37 0 min 0,0 UV-I 0 W/m 16,0 C 16,0 C 5,2 kts (2 Bft) 100,00 %
25.08.2019 04:44 16,7 C 96 % 1019,6 hPa 0,0 l/m 4,0 kts (2 Bft) N-NO 32 0 min 0,0 UV-I 0 W/m 16,1 C 16,2 C 5,2 kts (2 Bft) 100,00 %
25.08.2019 04:43 16,7 C 96 % 1019,6 hPa 0,0 l/m 4,6 kts (2 Bft) NO 41 0 min 0,0 UV-I 0 W/m 16,1 C 15,6 C 6,1 kts (2 Bft) 100,00 %
25.08.2019 04:42 16,7 C 96 % 1019,6 hPa 0,0 l/m 4,8 kts (2 Bft) NO 39 0 min 0,0 UV-I 0 W/m 16,1 C 15,5 C 5,2 kts (2 Bft) 97,99 %
25.08.2019 04:41 16,7 C 96 % 1019,6 hPa 0,0 l/m 4,9 kts (2 Bft) NO 35 0 min 0,0 UV-I 0 W/m 16,1 C 15,4 C 6,1 kts (2 Bft) 100,00 %
25.08.2019 04:40 16,7 C 96 % 1019,6 hPa 0,0 l/m 7,9 kts (3 Bft) N-NO 30 0 min 0,0 UV-I 0 W/m 16,1 C 13,4 C 10,4 kts (3 Bft) 100,00 %
25.08.2019 04:39 16,7 C 96 % 1019,6 hPa 0,0 l/m 6,3 kts (2 Bft) NO 45 0 min 0,0 UV-I 0 W/m 16,1 C 14,3 C 9,6 kts (3 Bft) 100,00 %
25.08.2019 04:38 16,7 C 96 % 1019,6 hPa 0,0 l/m 5,2 kts (2 Bft) NO 38 0 min 0,0 UV-I 0 W/m 16,1 C 15,1 C 6,1 kts (2 Bft) 100,00 %
25.08.2019 04:37 16,7 C 96 % 1019,5 hPa 0,0 l/m 5,6 kts (2 Bft) NO 38 0 min 0,0 UV-I 0 W/m 16,1 C 14,9 C 7,8 kts (3 Bft) 100,00 %
25.08.2019 04:36 16,8 C 96 % 1019,5 hPa 0,0 l/m 5,2 kts (2 Bft) NO 37 0 min 0,0 UV-I 0 W/m 16,2 C 15,2 C 6,1 kts (2 Bft) 100,00 %
25.08.2019 04:35 16,7 C 96 % 1019,6 hPa 0,0 l/m 5,0 kts (2 Bft) NO 41 0 min 0,0 UV-I 0 W/m 16,1 C 15,3 C 6,1 kts (2 Bft) 92,86 %
25.08.2019 04:34 16,7 C 96 % 1019,6 hPa 0,0 l/m 5,2 kts (2 Bft) NO 42 0 min 0,0 UV-I 0 W/m 16,1 C 15,1 C 6,1 kts (2 Bft) 100,00 %
25.08.2019 04:33 16,8 C 96 % 1019,6 hPa 0,0 l/m 5,2 kts (2 Bft) NO 43 0 min 0,0 UV-I 0 W/m 16,2 C 15,3 C 5,2 kts (2 Bft) 100,00 %
25.08.2019 04:32 16,8 C 96 % 1019,6 hPa 0,0 l/m 5,5 kts (2 Bft) NO 44 0 min 0,0 UV-I 0 W/m 16,2 C 15,1 C 6,1 kts (2 Bft) 100,00 %
25.08.2019 04:31 16,8 C 96 % 1019,6 hPa 0,0 l/m 5,2 kts (2 Bft) NO 49 0 min 0,0 UV-I 0 W/m 16,2 C 15,2 C 6,1 kts (2 Bft) 100,00 %
25.08.2019 04:30 16,7 C 96 % 1019,7 hPa 0,0 l/m 5,4 kts (2 Bft) NO 49 0 min 0,0 UV-I 0 W/m 16,1 C 15,0 C 6,1 kts (2 Bft) 100,00 %
25.08.2019 04:29 16,8 C 96 % 1019,7 hPa 0,0 l/m 5,7 kts (2 Bft) NO 49 0 min 0,0 UV-I 0 W/m 16,2 C 14,9 C 7,8 kts (3 Bft) 100,00 %
25.08.2019 04:28 16,8 C 96 % 1019,7 hPa 0,0 l/m 5,4 kts (2 Bft) O-NO 59 0 min 0,0 UV-I 0 W/m 16,2 C 15,1 C 6,1 kts (2 Bft) 91,30 %
25.08.2019 04:27 16,8 C 96 % 1019,6 hPa 0,0 l/m 4,9 kts (2 Bft) NO 49 0 min 0,0 UV-I 0 W/m 16,2 C 15,5 C 6,1 kts (2 Bft) 100,00 %
25.08.2019 04:26 16,8 C 96 % 1019,7 hPa 0,0 l/m 5,5 kts (2 Bft) O-NO 61 0 min 0,0 UV-I 0 W/m 16,2 C 15,0 C 7,0 kts (3 Bft) 97,56 %
25.08.2019 04:25 16,8 C 96 % 1019,7 hPa 0,0 l/m 5,6 kts (2 Bft) O-NO 57 0 min 0,0 UV-I 0 W/m 16,2 C 14,9 C 7,0 kts (3 Bft) 100,00 %
25.08.2019 04:24 16,8 C 96 % 1019,7 hPa 0,0 l/m 5,4 kts (2 Bft) NO 55 0 min 0,0 UV-I 0 W/m 16,2 C 15,1 C 7,0 kts (3 Bft) 96,30 %
25.08.2019 04:23 16,8 C 96 % 1019,8 hPa 0,0 l/m 6,2 kts (2 Bft) O-NO 62 0 min 0,0 UV-I 0 W/m 16,2 C 14,5 C 7,8 kts (3 Bft) 100,00 %
25.08.2019 04:22 16,8 C 96 % 1019,8 hPa 0,0 l/m 4,8 kts (2 Bft) O-NO 72 0 min 0,0 UV-I 0 W/m 16,2 C 15,6 C 7,0 kts (3 Bft) 95,83 %
25.08.2019 04:21 16,8 C 96 % 1019,7 hPa 0,0 l/m 6,1 kts (2 Bft) O-NO 72 0 min 0,0 UV-I 0 W/m 16,2 C 14,6 C 8,7 kts (3 Bft) 100,00 %
25.08.2019 04:20 16,8 C 96 % 1019,8 hPa 0,0 l/m 7,9 kts (3 Bft) O-NO 70 0 min 0,0 UV-I 0 W/m 16,2 C 13,5 C 9,6 kts (3 Bft) 96,15 %
25.08.2019 04:19 16,8 C 96 % 1019,8 hPa 0,0 l/m 7,9 kts (3 Bft) O-NO 74 0 min 0,0 UV-I 0 W/m 16,2 C 13,5 C 9,6 kts (3 Bft) 96,30 %
25.08.2019 04:18 16,8 C 96 % 1019,9 hPa 0,0 l/m 7,5 kts (3 Bft) O-NO 62 0 min 0,0 UV-I 0 W/m 16,2 C 13,7 C 9,6 kts (3 Bft) 95,65 %
25.08.2019 04:17 16,8 C 96 % 1019,9 hPa 0,0 l/m 7,0 kts (3 Bft) O-NO 63 0 min 0,0 UV-I 0 W/m 16,2 C 14,0 C 9,6 kts (3 Bft) 95,65 %
25.08.2019 04:16 16,8 C 96 % 1019,8 hPa 0,0 l/m 5,5 kts (2 Bft) O-NO 66 0 min 0,0 UV-I 0 W/m 16,2 C 15,1 C 7,8 kts (3 Bft) 100,00 %
25.08.2019 04:15 16,8 C 96 % 1019,9 hPa 0,0 l/m 7,6 kts (3 Bft) O-NO 73 0 min 0,0 UV-I 0 W/m 16,2 C 13,7 C 8,7 kts (3 Bft) 95,83 %
25.08.2019 04:14 16,8 C 96 % 1019,9 hPa 0,0 l/m 6,2 kts (2 Bft) O-NO 60 0 min 0,0 UV-I 0 W/m 16,2 C 14,5 C 7,8 kts (3 Bft) 100,00 %
25.08.2019 04:13 16,8 C 96 % 1019,9 hPa 0,0 l/m 5,8 kts (2 Bft) NO 55 0 min 0,0 UV-I 0 W/m 16,2 C 14,8 C 6,1 kts (2 Bft) 96,15 %
25.08.2019 04:12 16,8 C 96 % 1019,9 hPa 0,0 l/m 5,5 kts (2 Bft) NO 54 0 min 0,0 UV-I 0 W/m 16,2 C 15,1 C 6,1 kts (2 Bft) 95,83 %
25.08.2019 04:11 16,8 C 96 % 1019,9 hPa 0,0 l/m 5,9 kts (2 Bft) NO 55 0 min 0,0 UV-I 0 W/m 16,2 C 14,7 C 7,8 kts (3 Bft) 100,00 %
25.08.2019 04:10 16,8 C 96 % 1019,7 hPa 0,0 l/m 7,6 kts (3 Bft) NO 55 0 min 0,0 UV-I 0 W/m 16,2 C 13,6 C 8,7 kts (3 Bft) 95,65 %
25.08.2019 04:09 16,8 C 96 % 1019,8 hPa 0,0 l/m 8,1 kts (3 Bft) O-NO 59 0 min 0,0 UV-I 0 W/m 16,2 C 13,4 C 8,7 kts (3 Bft) 100,00 %
25.08.2019 04:08 16,9 C 96 % 1019,7 hPa 0,0 l/m 6,0 kts (2 Bft) NO 55 0 min 0,0 UV-I 0 W/m 16,3 C 14,8 C 7,8 kts (3 Bft) 95,65 %
25.08.2019 04:07 16,8 C 97 % 1019,6 hPa 0,0 l/m 5,8 kts (2 Bft) NO 53 0 min 0,0 UV-I 0 W/m 16,3 C 14,8 C 7,0 kts (3 Bft) 100,00 %
25.08.2019 04:06 16,8 C 97 % 1019,6 hPa 0,0 l/m 6,9 kts (3 Bft) NO 53 0 min 0,0 UV-I 0 W/m 16,3 C 14,1 C 7,8 kts (3 Bft) 95,65 %
25.08.2019 04:05 16,8 C 97 % 1019,7 hPa 0,0 l/m 7,6 kts (3 Bft) NO 55 0 min 0,0 UV-I 0 W/m 16,3 C 13,7 C 8,7 kts (3 Bft) 95,83 %
25.08.2019 04:04 16,8 C 97 % 1019,6 hPa 0,0 l/m 7,7 kts (3 Bft) NO 55 0 min 0,0 UV-I 0 W/m 16,3 C 13,6 C 8,7 kts (3 Bft) 95,65 %
25.08.2019 04:03 16,8 C 97 % 1019,6 hPa 0,0 l/m 6,9 kts (3 Bft) NO 55 0 min 0,0 UV-I 0 W/m 16,3 C 14,1 C 7,8 kts (3 Bft) 95,65 %
25.08.2019 04:02 16,8 C 97 % 1019,6 hPa 0,0 l/m 7,6 kts (3 Bft) NO 53 0 min 0,0 UV-I 0 W/m 16,3 C 13,7 C 8,7 kts (3 Bft) 100,00 %
25.08.2019 04:01 16,8 C 97 % 1019,6 hPa 0,0 l/m 8,1 kts (3 Bft) NO 53 0 min 0,0 UV-I 0 W/m 16,3 C 13,4 C 8,7 kts (3 Bft) 100,00 %
25.08.2019 04:00 16,8 C 97 % 1019,7 hPa 0,0 l/m 7,6 kts (3 Bft) NO 53 0 min 0,0 UV-I 0 W/m 16,3 C 13,7 C 8,7 kts (3 Bft) 100,00 %
25.08.2019 03:59 16,8 C 97 % 1019,6 hPa 0,0 l/m 6,2 kts (2 Bft) NO 49 0 min 0,0 UV-I 0 W/m 16,3 C 14,6 C 7,8 kts (3 Bft) 100,00 %
25.08.2019 03:58 16,7 C 97 % 1019,6 hPa 0,0 l/m 6,6 kts (3 Bft) NO 48 0 min 0,0 UV-I 0 W/m 16,2 C 14,1 C 7,8 kts (3 Bft) 100,00 %
25.08.2019 03:57 16,7 C 97 % 1019,6 hPa 0,0 l/m 7,3 kts (3 Bft) NO 49 0 min 0,0 UV-I 0 W/m 16,2 C 13,7 C 8,7 kts (3 Bft) 100,00 %
25.08.2019 03:56 16,7 C 97 % 1019,7 hPa 0,0 l/m 7,5 kts (3 Bft) NO 53 0 min 0,0 UV-I 0 W/m 16,2 C 13,6 C 8,7 kts (3 Bft) 100,00 %
25.08.2019 03:55 16,7 C 97 % 1019,6 hPa 0,0 l/m 6,9 kts (3 Bft) O-NO 57 0 min 0,0 UV-I 0 W/m 16,2 C 14,0 C 7,8 kts (3 Bft) 100,00 %
25.08.2019 03:54 16,7 C 97 % 1019,6 hPa 0,0 l/m 7,5 kts (3 Bft) O-NO 58 0 min 0,0 UV-I 0 W/m 16,2 C 13,6 C 8,7 kts (3 Bft) 100,00 %
25.08.2019 03:53 16,6 C 97 % 1019,7 hPa 0,0 l/m 7,0 kts (3 Bft) O-NO 59 0 min 0,0 UV-I 0 W/m 16,1 C 13,8 C 7,8 kts (3 Bft) 100,00 %
25.08.2019 03:52 16,6 C 97 % 1019,7 hPa 0,0 l/m 7,6 kts (3 Bft) O-NO 58 0 min 0,0 UV-I 0 W/m 16,1 C 13,4 C 7,8 kts (3 Bft) 98,89 %
25.08.2019 03:51 16,5 C 97 % 1019,7 hPa 0,0 l/m 8,1 kts (3 Bft) O-NO 71 0 min 0,0 UV-I 0 W/m 16,0 C 13,0 C 8,7 kts (3 Bft) 98,89 %
25.08.2019 03:50 16,5 C 97 % 1019,7 hPa 0,0 l/m 7,4 kts (3 Bft) O-NO 71 0 min 0,0 UV-I 0 W/m 16,0 C 13,4 C 7,8 kts (3 Bft) 100,00 %
25.08.2019 03:49 16,5 C 97 % 1019,7 hPa 0,0 l/m 7,0 kts (3 Bft) O-NO 68 0 min 0,0 UV-I 0 W/m 16,0 C 13,7 C 7,0 kts (3 Bft) 98,87 %
25.08.2019 03:48 16,5 C 97 % 1019,7 hPa 0,0 l/m 6,2 kts (2 Bft) O-NO 68 0 min 0,0 UV-I 0 W/m 16,0 C 14,2 C 7,0 kts (3 Bft) 100,00 %
25.08.2019 03:47 16,4 C 97 % 1019,7 hPa 0,0 l/m 5,8 kts (2 Bft) O-NO 65 0 min 0,0 UV-I 0 W/m 15,9 C 14,4 C 7,0 kts (3 Bft) 100,00 %
25.08.2019 03:46 16,5 C 97 % 1019,7 hPa 0,0 l/m 5,2 kts (2 Bft) O-NO 69 0 min 0,0 UV-I 0 W/m 16,0 C 14,9 C 7,0 kts (3 Bft) 100,00 %
25.08.2019 03:45 16,5 C 97 % 1019,7 hPa 0,0 l/m 5,2 kts (2 Bft) O-NO 74 0 min 0,0 UV-I 0 W/m 16,0 C 14,9 C 6,1 kts (2 Bft) 100,00 %
25.08.2019 03:44 16,5 C 97 % 1019,7 hPa 0,0 l/m 6,0 kts (2 Bft) O-NO 74 0 min 0,0 UV-I 0 W/m 16,0 C 14,3 C 7,0 kts (3 Bft) 98,85 %
25.08.2019 03:43 16,5 C 96 % 1019,7 hPa 0,0 l/m 4,9 kts (2 Bft) O-NO 75 0 min 0,0 UV-I 0 W/m 15,9 C 15,2 C 7,0 kts (3 Bft) 100,00 %
25.08.2019 03:42 16,5 C 96 % 1019,7 hPa 0,0 l/m 5,7 kts (2 Bft) O-NO 67 0 min 0,0 UV-I 0 W/m 15,9 C 14,5 C 7,0 kts (3 Bft) 100,00 %
25.08.2019 03:41 16,6 C 97 % 1019,7 hPa 0,0 l/m 5,6 kts (2 Bft) O-NO 59 0 min 0,0 UV-I 0 W/m 16,1 C 14,7 C 6,1 kts (2 Bft) 100,00 %
25.08.2019 03:40 16,6 C 97 % 1019,7 hPa 0,0 l/m 5,8 kts (2 Bft) NO 54 0 min 0,0 UV-I 0 W/m 16,1 C 14,6 C 6,1 kts (2 Bft) 96,15 %
25.08.2019 03:39 16,6 C 97 % 1019,7 hPa 0,0 l/m 5,7 kts (2 Bft) NO 51 0 min 0,0 UV-I 0 W/m 16,1 C 14,7 C 6,1 kts (2 Bft) 100,00 %
25.08.2019 03:38 16,6 C 97 % 1019,6 hPa 0,0 l/m 5,8 kts (2 Bft) NO 49 0 min 0,0 UV-I 0 W/m 16,1 C 14,6 C 6,1 kts (2 Bft) 100,00 %
25.08.2019 03:37 16,6 C 97 % 1019,6 hPa 0,0 l/m 6,1 kts (2 Bft) NO 46 0 min 0,0 UV-I 0 W/m 16,1 C 14,4 C 7,8 kts (3 Bft) 100,00 %
25.08.2019 03:36 16,6 C 97 % 1019,6 hPa 0,0 l/m 7,3 kts (3 Bft) NO 45 0 min 0,0 UV-I 0 W/m 16,1 C 13,6 C 7,8 kts (3 Bft) 100,00 %
25.08.2019 03:35 16,6 C 97 % 1019,6 hPa 0,0 l/m 7,5 kts (3 Bft) NO 42 0 min 0,0 UV-I 0 W/m 16,1 C 13,5 C 7,8 kts (3 Bft) 100,00 %
25.08.2019 03:34 16,6 C 97 % 1019,6 hPa 0,0 l/m 6,3 kts (2 Bft) NO 40 0 min 0,0 UV-I 0 W/m 16,1 C 14,3 C 7,8 kts (3 Bft) 100,00 %
25.08.2019 03:33 16,6 C 97 % 1019,6 hPa 0,0 l/m 6,7 kts (3 Bft) NO 38 0 min 0,0 UV-I 0 W/m 16,1 C 13,9 C 7,8 kts (3 Bft) 100,00 %
25.08.2019 03:32 16,6 C 97 % 1019,6 hPa 0,0 l/m 6,3 kts (2 Bft) NO 39 0 min 0,0 UV-I 0 W/m 16,1 C 14,2 C 7,8 kts (3 Bft) 92,86 %
25.08.2019 03:31 16,6 C 97 % 1019,5 hPa 0,0 l/m 6,6 kts (3 Bft) NO 39 0 min 0,0 UV-I 0 W/m 16,1 C 14,0 C 7,8 kts (3 Bft) 99,09 %
25.08.2019 03:30 16,5 C 97 % 1019,6 hPa 0,0 l/m 7,8 kts (3 Bft) NO 41 0 min 0,0 UV-I 0 W/m 16,0 C 13,2 C 7,8 kts (3 Bft) 98,82 %
25.08.2019 03:29 16,4 C 96 % 1019,6 hPa 0,0 l/m 6,1 kts (2 Bft) NO 49 0 min 0,0 UV-I 0 W/m 15,8 C 14,1 C 6,1 kts (2 Bft) 98,82 %
25.08.2019 03:28 16,5 C 96 % 1019,6 hPa 0,0 l/m 5,8 kts (2 Bft) NO 49 0 min 0,0 UV-I 0 W/m 15,9 C 14,5 C 6,1 kts (2 Bft) 98,82 %
25.08.2019 03:27 16,5 C 96 % 1019,5 hPa 0,0 l/m 5,1 kts (2 Bft) NO 50 0 min 0,0 UV-I 0 W/m 15,9 C 15,0 C 5,2 kts (2 Bft) 100,00 %
25.08.2019 03:26 16,5 C 96 % 1019,5 hPa 0,0 l/m 4,5 kts (2 Bft) NO 50 0 min 0,0 UV-I 0 W/m 15,9 C 15,5 C 5,2 kts (2 Bft) 100,00 %
25.08.2019 03:25 16,5 C 96 % 1019,5 hPa 0,0 l/m 4,9 kts (2 Bft) NO 50 0 min 0,0 UV-I 0 W/m 15,9 C 15,2 C 6,1 kts (2 Bft) 100,00 %
25.08.2019 03:24 16,5 C 96 % 1019,5 hPa 0,0 l/m 4,9 kts (2 Bft) NO 50 0 min 0,0 UV-I 0 W/m 15,9 C 15,2 C 5,2 kts (2 Bft) 100,00 %
25.08.2019 03:23 16,6 C 96 % 1019,6 hPa 0,0 l/m 4,6 kts (2 Bft) NO 43 0 min 0,0 UV-I 0 W/m 16,0 C 15,5 C 5,2 kts (2 Bft) 100,00 %
25.08.2019 03:22 16,6 C 96 % 1019,5 hPa 0,0 l/m 4,8 kts (2 Bft) NO 43 0 min 0,0 UV-I 0 W/m 16,0 C 15,4 C 5,2 kts (2 Bft) 100,00 %
25.08.2019 03:21 16,6 C 96 % 1019,5 hPa 0,0 l/m 5,1 kts (2 Bft) NO 43 0 min 0,0 UV-I 0 W/m 16,0 C 15,1 C 6,1 kts (2 Bft) 100,00 %
25.08.2019 03:20 16,7 C 96 % 1019,4 hPa 0,0 l/m 5,4 kts (2 Bft) NO 43 0 min 0,0 UV-I 0 W/m 16,1 C 15,0 C 6,1 kts (2 Bft) 100,00 %
25.08.2019 03:19 16,8 C 96 % 1019,4 hPa 0,0 l/m 6,1 kts (2 Bft) NO 43 0 min 0,0 UV-I 0 W/m 16,2 C 14,6 C 6,1 kts (2 Bft) 98,77 %
25.08.2019 03:18 16,8 C 96 % 1019,4 hPa 0,0 l/m 6,9 kts (3 Bft) NO 39 0 min 0,0 UV-I 0 W/m 16,2 C 14,1 C 7,8 kts (3 Bft) 100,00 %
25.08.2019 03:17 16,8 C 96 % 1019,3 hPa 0,0 l/m 6,3 kts (2 Bft) NO 39 0 min 0,0 UV-I 0 W/m 16,2 C 14,5 C 7,8 kts (3 Bft) 100,00 %
25.08.2019 03:16 16,8 C 96 % 1019,4 hPa 0,0 l/m 5,6 kts (2 Bft) NO 39 0 min 0,0 UV-I 0 W/m 16,2 C 14,9 C 6,1 kts (2 Bft) 91,67 %
25.08.2019 03:15 16,8 C 96 % 1019,4 hPa 0,0 l/m 4,9 kts (2 Bft) NO 37 0 min 0,0 UV-I 0 W/m 16,2 C 15,5 C 5,2 kts (2 Bft) 100,00 %
25.08.2019 03:14 16,8 C 96 % 1019,4 hPa 0,0 l/m 3,8 kts (2 Bft) NO 37 0 min 0,0 UV-I 0 W/m 16,2 C 16,4 C 4,3 kts (2 Bft) 100,00 %
25.08.2019 03:13 16,9 C 96 % 1019,4 hPa 0,0 l/m 3,8 kts (2 Bft) NO 37 0 min 0,0 UV-I 0 W/m 16,3 C 16,5 C 4,3 kts (2 Bft) 100,00 %
25.08.2019 03:12 16,9 C 96 % 1019,3 hPa 0,0 l/m 4,4 kts (2 Bft) NO 37 0 min 0,0 UV-I 0 W/m 16,3 C 16,0 C 5,2 kts (2 Bft) 100,00 %
25.08.2019 03:11 16,9 C 96 % 1019,3 hPa 0,0 l/m 4,5 kts (2 Bft) NO 37 0 min 0,0 UV-I 0 W/m 16,3 C 15,9 C 5,2 kts (2 Bft) 100,00 %
25.08.2019 03:10 16,9 C 96 % 1019,3 hPa 0,0 l/m 4,5 kts (2 Bft) NO 37 0 min 0,0 UV-I 0 W/m 16,3 C 15,9 C 5,2 kts (2 Bft) 100,00 %
25.08.2019 03:09 16,9 C 96 % 1019,3 hPa 0,0 l/m 4,8 kts (2 Bft) NO 40 0 min 0,0 UV-I 0 W/m 16,3 C 15,7 C 5,2 kts (2 Bft) 100,00 %
25.08.2019 03:08 16,9 C 96 % 1019,3 hPa 0,0 l/m 5,0 kts (2 Bft) NO 40 0 min 0,0 UV-I 0 W/m 16,3 C 15,5 C 5,2 kts (2 Bft) 100,00 %
25.08.2019 03:07 16,8 C 96 % 1019,3 hPa 0,0 l/m 5,0 kts (2 Bft) NO 40 0 min 0,0 UV-I 0 W/m 16,2 C 15,4 C 5,2 kts (2 Bft) 100,00 %
25.08.2019 03:06 16,8 C 96 % 1019,3 hPa 0,0 l/m 5,1 kts (2 Bft) NO 40 0 min 0,0 UV-I 0 W/m 16,2 C 15,4 C 6,1 kts (2 Bft) 100,00 %
25.08.2019 03:05 16,7 C 97 % 1019,3 hPa 0,0 l/m 4,8 kts (2 Bft) NO 44 0 min 0,0 UV-I 0 W/m 16,2 C 15,5 C 6,1 kts (2 Bft) 100,00 %
25.08.2019 03:04 16,6 C 96 % 1019,3 hPa 0,0 l/m 5,1 kts (2 Bft) NO 47 0 min 0,0 UV-I 0 W/m 16,0 C 15,1 C 6,1 kts (2 Bft) 100,00 %
25.08.2019 03:03 16,6 C 96 % 1019,4 hPa 0,0 l/m 5,6 kts (2 Bft) NO 51 0 min 0,0 UV-I 0 W/m 16,0 C 14,7 C 6,1 kts (2 Bft) 100,00 %
25.08.2019 03:02 16,6 C 96 % 1019,3 hPa 0,0 l/m 5,1 kts (2 Bft) NO 56 0 min 0,0 UV-I 0 W/m 16,0 C 15,1 C 7,8 kts (3 Bft) 100,00 %
25.08.2019 03:01 16,6 C 96 % 1019,3 hPa 0,0 l/m 5,0 kts (2 Bft) NO 56 0 min 0,0 UV-I 0 W/m 16,0 C 15,2 C 6,1 kts (2 Bft) 96,55 %
25.08.2019 03:00 16,6 C 96 % 1019,3 hPa 0,0 l/m 5,7 kts (2 Bft) NO 55 0 min 0,0 UV-I 0 W/m 16,0 C 14,7 C 7,8 kts (3 Bft) 100,00 %
25.08.2019 02:59 16,5 C 96 % 1019,3 hPa 0,0 l/m 7,0 kts (3 Bft) NO 52 0 min 0,0 UV-I 0 W/m 15,9 C 13,6 C 7,8 kts (3 Bft) 100,00 %
25.08.2019 02:58 16,6 C 96 % 1019,4 hPa 0,0 l/m 6,3 kts (2 Bft) NO 51 0 min 0,0 UV-I 0 W/m 16,0 C 14,2 C 7,8 kts (3 Bft) 100,00 %
25.08.2019 02:57 16,6 C 96 % 1019,4 hPa 0,0 l/m 5,9 kts (2 Bft) NO 55 0 min 0,0 UV-I 0 W/m 16,0 C 14,5 C 6,1 kts (2 Bft) 100,00 %
25.08.2019 02:56 16,6 C 96 % 1019,4 hPa 0,0 l/m 5,6 kts (2 Bft) O-NO 57 0 min 0,0 UV-I 0 W/m 16,0 C 14,7 C 6,1 kts (2 Bft) 96,15 %
25.08.2019 02:55 16,6 C 96 % 1019,3 hPa 0,0 l/m 4,3 kts (2 Bft) O-NO 57 0 min 0,0 UV-I 0 W/m 16,0 C 15,8 C 5,2 kts (2 Bft) 100,00 %
25.08.2019 02:54 16,6 C 96 % 1019,4 hPa 0,0 l/m 4,0 kts (2 Bft) O-NO 63 0 min 0,0 UV-I 0 W/m 16,0 C 16,0 C 4,3 kts (2 Bft) 100,00 %
25.08.2019 02:53 16,6 C 96 % 1019,3 hPa 0,0 l/m 4,5 kts (2 Bft) O-NO 65 0 min 0,0 UV-I 0 W/m 16,0 C 15,6 C 5,2 kts (2 Bft) 100,00 %
25.08.2019 02:52 16,6 C 95 % 1019,3 hPa 0,0 l/m 5,4 kts (2 Bft) O-NO 62 0 min 0,0 UV-I 0 W/m 15,8 C 14,9 C 6,1 kts (2 Bft) 100,00 %
25.08.2019 02:51 16,7 C 95 % 1019,4 hPa 0,0 l/m 5,5 kts (2 Bft) O-NO 57 0 min 0,0 UV-I 0 W/m 15,9 C 15,0 C 6,1 kts (2 Bft) 100,00 %
25.08.2019 02:50 16,7 C 95 % 1019,3 hPa 0,0 l/m 5,9 kts (2 Bft) O-NO 57 0 min 0,0 UV-I 0 W/m 15,9 C 14,6 C 6,1 kts (2 Bft) 100,00 %
25.08.2019 02:49 16,7 C 95 % 1019,4 hPa 0,0 l/m 6,0 kts (2 Bft) O-NO 57 0 min 0,0 UV-I 0 W/m 15,9 C 14,6 C 6,1 kts (2 Bft) 95,65 %
25.08.2019 02:48 16,7 C 95 % 1019,3 hPa 0,0 l/m 5,6 kts (2 Bft) O-NO 58 0 min 0,0 UV-I 0 W/m 15,9 C 14,9 C 6,1 kts (2 Bft) 95,65 %
25.08.2019 02:47 16,8 C 95 % 1019,3 hPa 0,0 l/m 5,7 kts (2 Bft) O-NO 58 0 min 0,0 UV-I 0 W/m 16,0 C 14,9 C 6,1 kts (2 Bft) 100,00 %
25.08.2019 02:46 16,8 C 95 % 1019,3 hPa 0,0 l/m 5,3 kts (2 Bft) NO 54 0 min 0,0 UV-I 0 W/m 16,0 C 15,2 C 6,1 kts (2 Bft) 100,00 %
25.08.2019 02:45 16,9 C 95 % 1019,3 hPa 0,0 l/m 5,1 kts (2 Bft) NO 50 0 min 0,0 UV-I 0 W/m 16,1 C 15,4 C 5,2 kts (2 Bft) 100,00 %
25.08.2019 02:44 16,9 C 94 % 1019,3 hPa 0,0 l/m 5,0 kts (2 Bft) NO 50 0 min 0,0 UV-I 0 W/m 15,9 C 15,6 C 5,2 kts (2 Bft) 95,65 %
25.08.2019 02:43 17,0 C 94 % 1019,4 hPa 0,0 l/m 4,5 kts (2 Bft) NO 50 0 min 0,0 UV-I 0 W/m 16,0 C 16,0 C 5,2 kts (2 Bft) 100,00 %
25.08.2019 02:42 17,1 C 94 % 1019,4 hPa 0,0 l/m 4,5 kts (2 Bft) NO 50 0 min 0,0 UV-I 0 W/m 16,1 C 16,2 C 5,2 kts (2 Bft) 91,30 %
25.08.2019 02:41 17,2 C 94 % 1019,3 hPa 0,0 l/m 3,3 kts (2 Bft) NO 42 0 min 0,0 UV-I 0 W/m 16,2 C 17,2 C 3,5 kts (2 Bft) 100,00 %
25.08.2019 02:40 17,3 C 95 % 1019,3 hPa 0,0 l/m 3,5 kts (2 Bft) NO 42 0 min 0,0 UV-I 0 W/m 16,5 C 17,3 C 3,5 kts (2 Bft) 95,83 %
25.08.2019 02:39 17,3 C 95 % 1019,2 hPa 0,0 l/m 3,3 kts (2 Bft) NO 42 0 min 0,0 UV-I 0 W/m 16,5 C 17,3 C 4,3 kts (2 Bft) 91,67 %
25.08.2019 02:38 17,3 C 95 % 1019,2 hPa 0,0 l/m 3,4 kts (2 Bft) NO 42 0 min 0,0 UV-I 0 W/m 16,5 C 17,3 C 3,5 kts (2 Bft) 100,00 %
25.08.2019 02:37 17,3 C 95 % 1019,2 hPa 0,0 l/m 3,5 kts (2 Bft) NO 42 0 min 0,0 UV-I 0 W/m 16,5 C 17,3 C 3,5 kts (2 Bft) 100,00 %
25.08.2019 02:36 17,2 C 95 % 1019,2 hPa 0,0 l/m 3,3 kts (2 Bft) NO 42 0 min 0,0 UV-I 0 W/m 16,4 C 17,2 C 4,3 kts (2 Bft) 95,83 %
25.08.2019 02:35 17,3 C 95 % 1019,2 hPa 0,0 l/m 3,8 kts (2 Bft) NO 42 0 min 0,0 UV-I 0 W/m 16,5 C 17,0 C 4,3 kts (2 Bft) 95,65 %
25.08.2019 02:34 17,2 C 95 % 1019,3 hPa 0,0 l/m 3,4 kts (2 Bft) NO 42 0 min 0,0 UV-I 0 W/m 16,4 C 17,2 C 3,5 kts (2 Bft) 100,00 %
25.08.2019 02:33 17,2 C 95 % 1019,3 hPa 0,0 l/m 3,2 kts (2 Bft) NO 42 0 min 0,0 UV-I 0 W/m 16,4 C 17,2 C 3,5 kts (2 Bft) 95,65 %
25.08.2019 02:32 17,2 C 95 % 1019,4 hPa 0,0 l/m 2,6 kts (1 Bft) NO 42 0 min 0,0 UV-I 0 W/m 16,4 C 17,2 C 2,6 kts (1 Bft) 100,00 %
25.08.2019 02:31 17,2 C 95 % 1019,3 hPa 0,0 l/m 2,8 kts (1 Bft) NO 42 0 min 0,0 UV-I 0 W/m 16,4 C 17,2 C 3,5 kts (2 Bft) 95,83 %
25.08.2019 02:30 17,2 C 95 % 1019,2 hPa 0,0 l/m 3,1 kts (2 Bft) NO 42 0 min 0,0 UV-I 0 W/m 16,4 C 17,2 C 3,5 kts (2 Bft) 100,00 %
25.08.2019 02:29 17,1 C 95 % 1019,3 hPa 0,0 l/m 3,3 kts (2 Bft) NO 42 0 min 0,0 UV-I 0 W/m 16,3 C 17,1 C 3,5 kts (2 Bft) 95,83 %
25.08.2019 02:28 17,1 C 95 % 1019,2 hPa 0,0 l/m 3,5 kts (2 Bft) NO 42 0 min 0,0 UV-I 0 W/m 16,3 C 17,1 C 3,5 kts (2 Bft) 100,00 %
25.08.2019 02:27 17,1 C 95 % 1019,1 hPa 0,0 l/m 3,5 kts (2 Bft) NO 42 0 min 0,0 UV-I 0 W/m 16,3 C 17,1 C 4,3 kts (2 Bft) 96,30 %
25.08.2019 02:26 17,2 C 94 % 1019,2 hPa 0,0 l/m 3,2 kts (2 Bft) NO 42 0 min 0,0 UV-I 0 W/m 16,2 C 17,2 C 3,5 kts (2 Bft) 96,67 %
25.08.2019 02:25 17,2 C 94 % 1019,2 hPa 0,0 l/m 3,6 kts (2 Bft) NO 42 0 min 0,0 UV-I 0 W/m 16,2 C 17,1 C 4,3 kts (2 Bft) 100,00 %
25.08.2019 02:24 17,3 C 94 % 1019,2 hPa 0,0 l/m 3,5 kts (2 Bft) NO 42 0 min 0,0 UV-I 0 W/m 16,3 C 17,3 C 4,3 kts (2 Bft) 92,59 %
25.08.2019 02:23 17,3 C 94 % 1019,3 hPa 0,0 l/m 3,3 kts (2 Bft) NO 42 0 min 0,0 UV-I 0 W/m 16,3 C 17,3 C 3,5 kts (2 Bft) 100,00 %
25.08.2019 02:22 17,3 C 94 % 1019,3 hPa 0,0 l/m 3,4 kts (2 Bft) NO 42 0 min 0,0 UV-I 0 W/m 16,3 C 17,3 C 3,5 kts (2 Bft) 96,15 %
25.08.2019 02:21 17,4 C 94 % 1019,3 hPa 0,0 l/m 3,7 kts (2 Bft) NO 42 0 min 0,0 UV-I 0 W/m 16,4 C 17,2 C 4,3 kts (2 Bft) 100,00 %
25.08.2019 02:20 17,4 C 94 % 1019,3 hPa 0,0 l/m 4,2 kts (2 Bft) NO 43 0 min 0,0 UV-I 0 W/m 16,4 C 16,8 C 4,3 kts (2 Bft) 95,65 %
25.08.2019 02:19 17,5 C 94 % 1019,3 hPa 0,0 l/m 4,5 kts (2 Bft) NO 43 0 min 0,0 UV-I 0 W/m 16,5 C 16,6 C 5,2 kts (2 Bft) 96,30 %
25.08.2019 02:18 17,6 C 93 % 1019,2 hPa 0,0 l/m 4,1 kts (2 Bft) NO 42 0 min 0,0 UV-I 0 W/m 16,5 C 17,0 C 4,3 kts (2 Bft) 100,00 %
25.08.2019 02:17 17,6 C 93 % 1019,3 hPa 0,0 l/m 4,2 kts (2 Bft) NO 35 0 min 0,0 UV-I 0 W/m 16,5 C 16,9 C 5,2 kts (2 Bft) 95,65 %
25.08.2019 02:16 17,7 C 93 % 1019,2 hPa 0,0 l/m 4,5 kts (2 Bft) NO 34 0 min 0,0 UV-I 0 W/m 16,6 C 16,8 C 5,2 kts (2 Bft) 100,00 %
25.08.2019 02:15 17,8 C 94 % 1019,2 hPa 0,0 l/m 4,5 kts (2 Bft) NO 34 0 min 0,0 UV-I 0 W/m 16,8 C 16,9 C 5,2 kts (2 Bft) 100,00 %
25.08.2019 02:14 17,8 C 94 % 1019,3 hPa 0,0 l/m 5,2 kts (2 Bft) NO 34 0 min 0,0 UV-I 0 W/m 16,8 C 16,4 C 7,0 kts (3 Bft) 100,00 %
25.08.2019 02:13 17,8 C 93 % 1019,3 hPa 0,0 l/m 4,2 kts (2 Bft) N-NO 25 0 min 0,0 UV-I 0 W/m 16,7 C 17,1 C 5,2 kts (2 Bft) 100,00 %
25.08.2019 02:12 17,8 C 93 % 1019,2 hPa 0,0 l/m 3,6 kts (2 Bft) N-NO 24 0 min 0,0 UV-I 0 W/m 16,7 C 17,7 C 4,3 kts (2 Bft) 100,00 %
25.08.2019 02:11 17,8 C 93 % 1019,2 hPa 0,0 l/m 3,5 kts (2 Bft) N-NO 24 0 min 0,0 UV-I 0 W/m 16,7 C 17,8 C 4,3 kts (2 Bft) 96,15 %
25.08.2019 02:10 17,8 C 93 % 1019,2 hPa 0,0 l/m 3,4 kts (2 Bft) N 5 0 min 0,0 UV-I 0 W/m 16,7 C 17,8 C 4,3 kts (2 Bft) 95,65 %
25.08.2019 02:09 17,8 C 93 % 1019,2 hPa 0,0 l/m 3,0 kts (1 Bft) N 5 0 min 0,0 UV-I 0 W/m 16,7 C 17,8 C 3,5 kts (2 Bft) 95,83 %
25.08.2019 02:08 17,8 C 94 % 1019,3 hPa 0,0 l/m 2,9 kts (1 Bft) N 5 0 min 0,0 UV-I 0 W/m 16,8 C 17,8 C 3,5 kts (2 Bft) 100,00 %
25.08.2019 02:07 17,8 C 93 % 1019,3 hPa 0,0 l/m 2,8 kts (1 Bft) N 5 0 min 0,0 UV-I 0 W/m 16,7 C 17,8 C 3,5 kts (2 Bft) 100,00 %
25.08.2019 02:06 17,8 C 93 % 1019,2 hPa 0,0 l/m 2,8 kts (1 Bft) N 5 0 min 0,0 UV-I 0 W/m 16,7 C 17,8 C 3,5 kts (2 Bft) 100,00 %
25.08.2019 02:05 17,9 C 93 % 1019,2 hPa 0,0 l/m 2,6 kts (1 Bft) N 5 0 min 0,0 UV-I 0 W/m 16,8 C 17,9 C 3,5 kts (2 Bft) 100,00 %
25.08.2019 02:04 17,9 C 93 % 1019,1 hPa 0,0 l/m 2,8 kts (1 Bft) N 5 0 min 0,0 UV-I 0 W/m 16,8 C 17,9 C 3,5 kts (2 Bft) 100,00 %
25.08.2019 02:03 17,8 C 93 % 1019,2 hPa 0,0 l/m 3,1 kts (2 Bft) N 5 0 min 0,0 UV-I 0 W/m 16,7 C 17,8 C 3,5 kts (2 Bft) 100,00 %
25.08.2019 02:02 17,9 C 93 % 1019,1 hPa 0,0 l/m 3,2 kts (2 Bft) N 5 0 min 0,0 UV-I 0 W/m 16,8 C 17,9 C 4,3 kts (2 Bft) 100,00 %
25.08.2019 02:01 17,9 C 93 % 1019,2 hPa 0,0 l/m 3,5 kts (2 Bft) N 5 0 min 0,0 UV-I 0 W/m 16,8 C 17,9 C 4,3 kts (2 Bft) 100,00 %
25.08.2019 02:00 17,9 C 93 % 1019,1 hPa 0,0 l/m 3,5 kts (2 Bft) N 5 0 min 0,0 UV-I 0 W/m 16,8 C 17,9 C 4,3 kts (2 Bft) 100,00 %
25.08.2019 01:59 17,9 C 93 % 1019,2 hPa 0,0 l/m 3,3 kts (2 Bft) N 5 0 min 0,0 UV-I 0 W/m 16,8 C 17,9 C 3,5 kts (2 Bft) 100,00 %
25.08.2019 01:58 17,9 C 93 % 1019,2 hPa 0,0 l/m 3,6 kts (2 Bft) N 5 0 min 0,0 UV-I 0 W/m 16,8 C 17,8 C 4,3 kts (2 Bft) 100,00 %
25.08.2019 01:57 17,9 C 93 % 1019,1 hPa 0,0 l/m 3,9 kts (2 Bft) N-NO 13 0 min 0,0 UV-I 0 W/m 16,8 C 17,5 C 4,3 kts (2 Bft) 98,89 %
25.08.2019 01:56 17,9 C 93 % 1019,2 hPa 0,0 l/m 3,9 kts (2 Bft) N-NO 13 0 min 0,0 UV-I 0 W/m 16,8 C 17,5 C 4,3 kts (2 Bft) 100,00 %
25.08.2019 01:55 17,9 C 93 % 1019,3 hPa 0,0 l/m 3,5 kts (2 Bft) N-NO 13 0 min 0,0 UV-I 0 W/m 16,8 C 17,9 C 4,3 kts (2 Bft) 100,00 %
25.08.2019 01:54 17,8 C 93 % 1019,3 hPa 0,0 l/m 3,4 kts (2 Bft) N-NO 24 0 min 0,0 UV-I 0 W/m 16,7 C 17,8 C 3,5 kts (2 Bft) 100,00 %
25.08.2019 01:53 17,8 C 93 % 1019,3 hPa 0,0 l/m 2,8 kts (1 Bft) N-NO 26 0 min 0,0 UV-I 0 W/m 16,7 C 17,8 C 3,5 kts (2 Bft) 100,00 %
25.08.2019 01:52 17,8 C 93 % 1019,2 hPa 0,0 l/m 2,8 kts (1 Bft) N-NO 26 0 min 0,0 UV-I 0 W/m 16,7 C 17,8 C 3,5 kts (2 Bft) 100,00 %
25.08.2019 01:51 17,8 C 93 % 1019,3 hPa 0,0 l/m 2,6 kts (1 Bft) N-NO 26 0 min 0,0 UV-I 0 W/m 16,7 C 17,8 C 2,6 kts (1 Bft) 100,00 %
25.08.2019 01:50 17,8 C 93 % 1019,3 hPa 0,0 l/m 2,4 kts (1 Bft) N-NO 26 0 min 0,0 UV-I 0 W/m 16,7 C 17,8 C 3,5 kts (2 Bft) 100,00 %
25.08.2019 01:49 17,8 C 93 % 1019,2 hPa 0,0 l/m 2,5 kts (1 Bft) N-NO 26 0 min 0,0 UV-I 0 W/m 16,7 C 17,8 C 2,6 kts (1 Bft) 100,00 %
25.08.2019 01:48 17,8 C 93 % 1019,2 hPa 0,0 l/m 1,8 kts (1 Bft) N-NO 26 0 min 0,0 UV-I 0 W/m 16,7 C 17,8 C 2,6 kts (1 Bft) 100,00 %
25.08.2019 01:47 17,8 C 93 % 1019,2 hPa 0,0 l/m 2,0 kts (1 Bft) N-NO 26 0 min 0,0 UV-I 0 W/m 16,7 C 17,8 C 2,6 kts (1 Bft) 100,00 %
25.08.2019 01:46 17,8 C 93 % 1019,3 hPa 0,0 l/m 1,6 kts (1 Bft) N-NO 26 0 min 0,0 UV-I 0 W/m 16,7 C 17,8 C 2,6 kts (1 Bft) 100,00 %
25.08.2019 01:45 17,8 C 93 % 1019,2 hPa 0,0 l/m 1,8 kts (1 Bft) N-NO 26 0 min 0,0 UV-I 0 W/m 16,7 C 17,8 C 2,6 kts (1 Bft) 100,00 %
25.08.2019 01:44 17,9 C 93 % 1019,2 hPa 0,0 l/m 2,1 kts (1 Bft) N-NO 26 0 min 0,0 UV-I 0 W/m 16,8 C 17,9 C 2,6 kts (1 Bft) 100,00 %
25.08.2019 01:43 17,9 C 93 % 1019,3 hPa 0,0 l/m 2,8 kts (1 Bft) N-NO 27 0 min 0,0 UV-I 0 W/m 16,8 C 17,9 C 3,5 kts (2 Bft) 100,00 %
25.08.2019 01:42 17,9 C 93 % 1019,2 hPa 0,0 l/m 3,5 kts (2 Bft) N-NO 26 0 min 0,0 UV-I 0 W/m 16,8 C 17,9 C 5,2 kts (2 Bft) 100,00 %
25.08.2019 01:41 17,9 C 93 % 1019,3 hPa 0,0 l/m 3,7 kts (2 Bft) N-NO 29 0 min 0,0 UV-I 0 W/m 16,8 C 17,7 C 4,3 kts (2 Bft) 100,00 %
25.08.2019 01:40 17,8 C 93 % 1019,3 hPa 0,0 l/m 4,4 kts (2 Bft) N-NO 32 0 min 0,0 UV-I 0 W/m 16,7 C 17,0 C 6,1 kts (2 Bft) 95,65 %
25.08.2019 01:39 17,8 C 93 % 1019,3 hPa 0,0 l/m 4,5 kts (2 Bft) N-NO 22 0 min 0,0 UV-I 0 W/m 16,7 C 16,9 C 5,2 kts (2 Bft) 100,00 %
25.08.2019 01:38 17,8 C 93 % 1019,3 hPa 0,0 l/m 4,2 kts (2 Bft) N-NO 30 0 min 0,0 UV-I 0 W/m 16,7 C 17,1 C 5,2 kts (2 Bft) 100,00 %
25.08.2019 01:37 17,8 C 93 % 1019,3 hPa 0,0 l/m 3,9 kts (2 Bft) N-NO 32 0 min 0,0 UV-I 0 W/m 16,7 C 17,4 C 5,2 kts (2 Bft) 100,00 %
25.08.2019 01:36 17,8 C 93 % 1019,3 hPa 0,0 l/m 4,2 kts (2 Bft) N-NO 27 0 min 0,0 UV-I 0 W/m 16,7 C 17,1 C 6,1 kts (2 Bft) 100,00 %
25.08.2019 01:35 17,8 C 93 % 1019,4 hPa 0,0 l/m 4,4 kts (2 Bft) N-NO 30 0 min 0,0 UV-I 0 W/m 16,7 C 17,0 C 7,0 kts (3 Bft) 100,00 %
25.08.2019 01:34 17,8 C 93 % 1019,5 hPa 0,0 l/m 4,9 kts (2 Bft) N-NO 28 0 min 0,0 UV-I 0 W/m 16,7 C 16,6 C 7,0 kts (3 Bft) 100,00 %
25.08.2019 01:33 17,8 C 93 % 1019,4 hPa 0,0 l/m 4,8 kts (2 Bft) NO 34 0 min 0,0 UV-I 0 W/m 16,7 C 16,7 C 7,0 kts (3 Bft) 100,00 %
25.08.2019 01:32 17,8 C 93 % 1019,3 hPa 0,0 l/m 3,9 kts (2 Bft) N-NO 32 0 min 0,0 UV-I 0 W/m 16,7 C 17,4 C 4,3 kts (2 Bft) 100,00 %
25.08.2019 01:31 17,8 C 93 % 1019,4 hPa 0,0 l/m 4,2 kts (2 Bft) NO 38 0 min 0,0 UV-I 0 W/m 16,7 C 17,2 C 5,2 kts (2 Bft) 100,00 %
25.08.2019 01:30 17,9 C 93 % 1019,4 hPa 0,0 l/m 3,1 kts (1 Bft) NO 41 0 min 0,0 UV-I 0 W/m 16,8 C 17,9 C 4,3 kts (2 Bft) 100,00 %
25.08.2019 01:29 17,8 C 93 % 1019,5 hPa 0,0 l/m 4,7 kts (2 Bft) NO 40 0 min 0,0 UV-I 0 W/m 16,7 C 16,7 C 6,1 kts (2 Bft) 100,00 %
25.08.2019 01:28 17,8 C 93 % 1019,6 hPa 0,0 l/m 5,3 kts (2 Bft) NO 44 0 min 0,0 UV-I 0 W/m 16,7 C 16,3 C 6,1 kts (2 Bft) 100,00 %
25.08.2019 01:27 17,8 C 93 % 1019,6 hPa 0,0 l/m 5,5 kts (2 Bft) NO 43 0 min 0,0 UV-I 0 W/m 16,7 C 16,1 C 6,1 kts (2 Bft) 100,00 %
25.08.2019 01:26 17,8 C 92 % 1019,6 hPa 0,0 l/m 4,7 kts (2 Bft) NO 40 0 min 0,0 UV-I 0 W/m 16,5 C 16,7 C 6,1 kts (2 Bft) 100,00 %
25.08.2019 01:25 17,8 C 92 % 1019,5 hPa 0,0 l/m 4,3 kts (2 Bft) NO 40 0 min 0,0 UV-I 0 W/m 16,5 C 17,1 C 5,2 kts (2 Bft) 100,00 %
25.08.2019 01:24 17,8 C 92 % 1019,5 hPa 0,0 l/m 4,4 kts (2 Bft) NO 36 0 min 0,0 UV-I 0 W/m 16,5 C 17,0 C 5,2 kts (2 Bft) 93,33 %
25.08.2019 01:23 17,9 C 92 % 1019,6 hPa 0,0 l/m 4,5 kts (2 Bft) N-NO 22 0 min 0,0 UV-I 0 W/m 16,6 C 17,0 C 6,1 kts (2 Bft) 100,00 %
25.08.2019 01:22 17,9 C 92 % 1019,6 hPa 0,0 l/m 4,3 kts (2 Bft) N-NO 29 0 min 0,0 UV-I 0 W/m 16,6 C 17,2 C 6,1 kts (2 Bft) 100,00 %
25.08.2019 01:21 17,9 C 92 % 1019,6 hPa 0,0 l/m 3,9 kts (2 Bft) N-NO 32 0 min 0,0 UV-I 0 W/m 16,6 C 17,5 C 5,2 kts (2 Bft) 100,00 %
25.08.2019 01:20 17,8 C 92 % 1019,6 hPa 0,0 l/m 4,5 kts (2 Bft) NO 35 0 min 0,0 UV-I 0 W/m 16,5 C 16,9 C 6,1 kts (2 Bft) 100,00 %
25.08.2019 01:19 17,9 C 92 % 1019,6 hPa 0,0 l/m 3,9 kts (2 Bft) NO 42 0 min 0,0 UV-I 0 W/m 16,6 C 17,5 C 5,2 kts (2 Bft) 100,00 %
25.08.2019 01:18 17,9 C 92 % 1019,6 hPa 0,0 l/m 4,6 kts (2 Bft) NO 40 0 min 0,0 UV-I 0 W/m 16,6 C 16,9 C 5,2 kts (2 Bft) 100,00 %
25.08.2019 01:17 17,9 C 93 % 1019,6 hPa 0,0 l/m 4,3 kts (2 Bft) NO 47 0 min 0,0 UV-I 0 W/m 16,8 C 17,1 C 5,2 kts (2 Bft) 96,00 %
25.08.2019 01:16 17,9 C 92 % 1019,7 hPa 0,0 l/m 4,4 kts (2 Bft) NO 49 0 min 0,0 UV-I 0 W/m 16,6 C 17,1 C 5,2 kts (2 Bft) 100,00 %
25.08.2019 01:15 17,8 C 92 % 1019,7 hPa 0,0 l/m 4,8 kts (2 Bft) NO 53 0 min 0,0 UV-I 0 W/m 16,5 C 16,7 C 7,8 kts (3 Bft) 100,00 %
25.08.2019 01:14 17,8 C 92 % 1019,7 hPa 0,0 l/m 6,2 kts (2 Bft) NO 56 0 min 0,0 UV-I 0 W/m 16,5 C 15,7 C 7,8 kts (3 Bft) 100,00 %
25.08.2019 01:13 17,8 C 92 % 1019,7 hPa 0,0 l/m 5,7 kts (2 Bft) O-NO 61 0 min 0,0 UV-I 0 W/m 16,5 C 16,0 C 7,8 kts (3 Bft) 100,00 %
25.08.2019 01:12 17,9 C 92 % 1019,7 hPa 0,0 l/m 6,8 kts (3 Bft) NO 55 0 min 0,0 UV-I 0 W/m 16,6 C 15,4 C 9,6 kts (3 Bft) 100,00 %
25.08.2019 01:11 17,9 C 92 % 1019,6 hPa 0,0 l/m 7,0 kts (3 Bft) O-NO 60 0 min 0,0 UV-I 0 W/m 16,6 C 15,3 C 8,7 kts (3 Bft) 100,00 %
25.08.2019 01:10 17,9 C 92 % 1019,6 hPa 0,0 l/m 7,5 kts (3 Bft) NO 46 0 min 0,0 UV-I 0 W/m 16,6 C 15,0 C 8,7 kts (3 Bft) 100,00 %
25.08.2019 01:09 17,9 C 92 % 1019,7 hPa 0,0 l/m 6,9 kts (3 Bft) NO 46 0 min 0,0 UV-I 0 W/m 16,6 C 15,4 C 8,7 kts (3 Bft) 95,83 %
25.08.2019 01:08 17,9 C 92 % 1019,6 hPa 0,0 l/m 7,8 kts (3 Bft) NO 45 0 min 0,0 UV-I 0 W/m 16,6 C 14,8 C 8,7 kts (3 Bft) 100,00 %
25.08.2019 01:07 17,9 C 92 % 1019,6 hPa 0,0 l/m 8,2 kts (3 Bft) NO 47 0 min 0,0 UV-I 0 W/m 16,6 C 14,7 C 9,6 kts (3 Bft) 100,00 %
25.08.2019 01:05 18,0 C 92 % 1019,6 hPa 0,0 l/m 6,7 kts (3 Bft) NO 35 0 min 0,0 UV-I 0 W/m 16,7 C 15,6 C 7,8 kts (3 Bft) 100,00 %
25.08.2019 01:04 18,0 C 92 % 1019,6 hPa 0,0 l/m 7,3 kts (3 Bft) NO 42 0 min 0,0 UV-I 0 W/m 16,7 C 15,2 C 8,7 kts (3 Bft) 100,00 %
25.08.2019 01:03 18,0 C 92 % 1019,5 hPa 0,0 l/m 6,9 kts (3 Bft) NO 38 0 min 0,0 UV-I 0 W/m 16,7 C 15,5 C 7,8 kts (3 Bft) 100,00 %
25.08.2019 01:02 18,0 C 92 % 1019,6 hPa 0,0 l/m 6,9 kts (3 Bft) NO 34 0 min 0,0 UV-I 0 W/m 16,7 C 15,5 C 7,8 kts (3 Bft) 100,00 %
25.08.2019 01:01 18,0 C 92 % 1019,5 hPa 0,0 l/m 6,4 kts (2 Bft) NO 35 0 min 0,0 UV-I 0 W/m 16,7 C 15,8 C 7,8 kts (3 Bft) 97,44 %
25.08.2019 01:00 18,0 C 91 % 1019,6 hPa 0,0 l/m 6,2 kts (2 Bft) NO 36 0 min 0,0 UV-I 0 W/m 16,5 C 15,9 C 7,8 kts (3 Bft) 94,12 %
25.08.2019 00:59 18,0 C 92 % 1019,6 hPa 0,0 l/m 7,5 kts (3 Bft) NO 34 0 min 0,0 UV-I 0 W/m 16,7 C 15,2 C 8,7 kts (3 Bft) 100,00 %
25.08.2019 00:58 18,0 C 92 % 1019,6 hPa 0,0 l/m 7,6 kts (3 Bft) NO 36 0 min 0,0 UV-I 0 W/m 16,7 C 15,1 C 9,6 kts (3 Bft) 96,55 %
25.08.2019 00:57 18,1 C 91 % 1019,6 hPa 0,0 l/m 7,6 kts (3 Bft) N-NO 29 0 min 0,0 UV-I 0 W/m 16,6 C 15,2 C 7,8 kts (3 Bft) 100,00 %
25.08.2019 00:56 18,1 C 92 % 1019,6 hPa 0,0 l/m 7,1 kts (3 Bft) N-NO 31 0 min 0,0 UV-I 0 W/m 16,8 C 15,5 C 7,8 kts (3 Bft) 96,15 %
25.08.2019 00:55 18,1 C 91 % 1019,5 hPa 0,0 l/m 7,4 kts (3 Bft) N-NO 31 0 min 0,0 UV-I 0 W/m 16,6 C 15,3 C 7,8 kts (3 Bft) 100,00 %
25.08.2019 00:54 18,1 C 91 % 1019,6 hPa 0,0 l/m 7,3 kts (3 Bft) N-NO 27 0 min 0,0 UV-I 0 W/m 16,6 C 15,4 C 7,8 kts (3 Bft) 91,30 %
25.08.2019 00:53 18,1 C 91 % 1019,5 hPa 0,0 l/m 7,3 kts (3 Bft) N-NO 28 0 min 0,0 UV-I 0 W/m 16,6 C 15,3 C 8,7 kts (3 Bft) 95,65 %
25.08.2019 00:52 18,1 C 91 % 1019,6 hPa 0,0 l/m 6,7 kts (3 Bft) N-NO 25 0 min 0,0 UV-I 0 W/m 16,6 C 15,7 C 7,8 kts (3 Bft) 100,00 %
25.08.2019 00:51 18,1 C 92 % 1019,6 hPa 0,0 l/m 7,6 kts (3 Bft) N-NO 29 0 min 0,0 UV-I 0 W/m 16,8 C 15,2 C 8,7 kts (3 Bft) 95,83 %
25.08.2019 00:50 18,1 C 92 % 1019,6 hPa 0,0 l/m 6,4 kts (2 Bft) N-NO 32 0 min 0,0 UV-I 0 W/m 16,8 C 15,9 C 8,7 kts (3 Bft) 100,00 %
25.08.2019 00:49 18,0 C 92 % 1019,6 hPa 0,0 l/m 5,2 kts (2 Bft) N-NO 28 0 min 0,0 UV-I 0 W/m 16,7 C 16,5 C 6,1 kts (2 Bft) 97,26 %
25.08.2019 00:48 17,9 C 92 % 1019,8 hPa 0,0 l/m 5,2 kts (2 Bft) N-NO 30 0 min 0,0 UV-I 0 W/m 16,6 C 16,4 C 5,2 kts (2 Bft) 98,51 %
25.08.2019 00:46 17,8 C 92 % 1019,8 hPa 0,0 l/m 6,1 kts (2 Bft) NO 42 0 min 0,0 UV-I 0 W/m 16,5 C 15,7 C 6,1 kts (2 Bft) 96,88 %
25.08.2019 00:45 17,8 C 92 % 1019,8 hPa 0,0 l/m 5,3 kts (2 Bft) NO 42 0 min 0,0 UV-I 0 W/m 16,5 C 16,3 C 6,1 kts (2 Bft) 100,00 %
25.08.2019 00:44 17,7 C 92 % 1019,9 hPa 0,0 l/m 5,5 kts (2 Bft) NO 42 0 min 0,0 UV-I 0 W/m 16,4 C 16,0 C 6,1 kts (2 Bft) 96,15 %
25.08.2019 00:43 17,7 C 92 % 1019,9 hPa 0,0 l/m 5,2 kts (2 Bft) NO 42 0 min 0,0 UV-I 0 W/m 16,4 C 16,2 C 6,1 kts (2 Bft) 100,00 %
25.08.2019 00:42 17,7 C 92 % 1019,8 hPa 0,0 l/m 5,2 kts (2 Bft) NO 42 0 min 0,0 UV-I 0 W/m 16,4 C 16,2 C 6,1 kts (2 Bft) 92,31 %
25.08.2019 00:41 17,7 C 92 % 1019,8 hPa 0,0 l/m 5,0 kts (2 Bft) NO 42 0 min 0,0 UV-I 0 W/m 16,4 C 16,4 C 5,2 kts (2 Bft) 96,30 %
25.08.2019 00:40 17,7 C 92 % 1019,9 hPa 0,0 l/m 5,2 kts (2 Bft) NO 42 0 min 0,0 UV-I 0 W/m 16,4 C 16,2 C 6,1 kts (2 Bft) 97,37 %
25.08.2019 00:39 17,6 C 93 % 1019,9 hPa 0,0 l/m 5,5 kts (2 Bft) NO 42 0 min 0,0 UV-I 0 W/m 16,5 C 15,9 C 6,1 kts (2 Bft) 100,00 %
25.08.2019 00:38 17,6 C 93 % 1019,9 hPa 0,0 l/m 5,6 kts (2 Bft) NO 42 0 min 0,0 UV-I 0 W/m 16,5 C 15,8 C 6,1 kts (2 Bft) 95,83 %
25.08.2019 00:37 17,6 C 92 % 1019,9 hPa 0,0 l/m 5,7 kts (2 Bft) NO 42 0 min 0,0 UV-I 0 W/m 16,3 C 15,8 C 6,1 kts (2 Bft) 91,30 %
25.08.2019 00:36 17,5 C 92 % 1019,8 hPa 0,0 l/m 5,6 kts (2 Bft) NO 42 0 min 0,0 UV-I 0 W/m 16,2 C 15,8 C 6,1 kts (2 Bft) 100,00 %
25.08.2019 00:35 17,6 C 92 % 1019,8 hPa 0,0 l/m 5,8 kts (2 Bft) NO 42 0 min 0,0 UV-I 0 W/m 16,3 C 15,7 C 6,1 kts (2 Bft) 96,88 %
25.08.2019 00:34 17,5 C 92 % 1019,9 hPa 0,0 l/m 6,2 kts (2 Bft) NO 42 0 min 0,0 UV-I 0 W/m 16,2 C 15,3 C 7,8 kts (3 Bft) 100,00 %
25.08.2019 00:33 17,6 C 92 % 1019,9 hPa 0,0 l/m 6,4 kts (2 Bft) NO 40 0 min 0,0 UV-I 0 W/m 16,3 C 15,3 C 7,8 kts (3 Bft) 96,97 %
25.08.2019 00:32 17,6 C 92 % 1019,9 hPa 0,0 l/m 5,5 kts (2 Bft) NO 38 0 min 0,0 UV-I 0 W/m 16,3 C 15,9 C 6,1 kts (2 Bft) 100,00 %
25.08.2019 00:31 17,7 C 92 % 1019,8 hPa 0,0 l/m 6,1 kts (2 Bft) NO 38 0 min 0,0 UV-I 0 W/m 16,4 C 15,6 C 7,0 kts (3 Bft) 100,00 %
25.08.2019 00:30 17,7 C 92 % 1019,7 hPa 0,0 l/m 6,3 kts (2 Bft) NO 34 0 min 0,0 UV-I 0 W/m 16,4 C 15,5 C 7,0 kts (3 Bft) 100,00 %
25.08.2019 00:29 17,7 C 92 % 1019,7 hPa 0,0 l/m 6,0 kts (2 Bft) N-NO 29 0 min 0,0 UV-I 0 W/m 16,4 C 15,7 C 7,0 kts (3 Bft) 96,15 %
25.08.2019 00:28 17,7 C 92 % 1019,7 hPa 0,0 l/m 5,7 kts (2 Bft) N-NO 29 0 min 0,0 UV-I 0 W/m 16,4 C 15,9 C 7,0 kts (3 Bft) 100,00 %
25.08.2019 00:27 17,7 C 92 % 1019,8 hPa 0,0 l/m 5,7 kts (2 Bft) N-NO 30 0 min 0,0 UV-I 0 W/m 16,4 C 15,9 C 7,0 kts (3 Bft) 98,11 %
25.08.2019 00:25 17,8 C 91 % 1019,8 hPa 0,0 l/m 5,5 kts (2 Bft) NO 38 0 min 0,0 UV-I 0 W/m 16,3 C 16,1 C 6,1 kts (2 Bft) 100,00 %
25.08.2019 00:24 17,9 C 90 % 1019,8 hPa 0,0 l/m 5,1 kts (2 Bft) NO 38 0 min 0,0 UV-I 0 W/m 16,2 C 16,6 C 6,1 kts (2 Bft) 100,00 %
25.08.2019 00:23 18,1 C 90 % 1019,8 hPa 0,0 l/m 4,8 kts (2 Bft) NO 38 0 min 0,0 UV-I 0 W/m 16,4 C 17,0 C 5,2 kts (2 Bft) 100,00 %
25.08.2019 00:22 18,2 C 90 % 1019,8 hPa 0,0 l/m 5,0 kts (2 Bft) NO 38 0 min 0,0 UV-I 0 W/m 16,5 C 17,0 C 6,1 kts (2 Bft) 100,00 %
25.08.2019 00:21 18,3 C 90 % 1019,9 hPa 0,0 l/m 4,5 kts (2 Bft) NO 38 0 min 0,0 UV-I 0 W/m 16,6 C 17,4 C 5,2 kts (2 Bft) 100,00 %
25.08.2019 00:20 18,3 C 90 % 1019,8 hPa 0,0 l/m 4,3 kts (2 Bft) NO 42 0 min 0,0 UV-I 0 W/m 16,6 C 17,6 C 5,2 kts (2 Bft) 100,00 %
25.08.2019 00:19 18,4 C 90 % 1019,9 hPa 0,0 l/m 4,1 kts (2 Bft) NO 42 0 min 0,0 UV-I 0 W/m 16,7 C 17,8 C 4,3 kts (2 Bft) 100,00 %
25.08.2019 00:18 18,4 C 90 % 1019,8 hPa 0,0 l/m 4,5 kts (2 Bft) NO 42 0 min 0,0 UV-I 0 W/m 16,7 C 17,5 C 5,2 kts (2 Bft) 100,00 %
25.08.2019 00:17 18,4 C 90 % 1019,9 hPa 0,0 l/m 4,4 kts (2 Bft) NO 42 0 min 0,0 UV-I 0 W/m 16,7 C 17,6 C 5,2 kts (2 Bft) 100,00 %
25.08.2019 00:16 18,5 C 90 % 1019,8 hPa 0,0 l/m 4,0 kts (2 Bft) NO 36 0 min 0,0 UV-I 0 W/m 16,8 C 18,0 C 5,2 kts (2 Bft) 95,83 %
25.08.2019 00:15 18,4 C 90 % 1019,9 hPa 0,0 l/m 3,7 kts (2 Bft) NO 40 0 min 0,0 UV-I 0 W/m 16,7 C 18,2 C 4,3 kts (2 Bft) 100,00 %
25.08.2019 00:14 18,4 C 90 % 1019,8 hPa 0,0 l/m 3,7 kts (2 Bft) N-NO 30 0 min 0,0 UV-I 0 W/m 16,7 C 18,2 C 4,3 kts (2 Bft) 100,00 %
25.08.2019 00:13 18,4 C 90 % 1019,8 hPa 0,0 l/m 3,7 kts (2 Bft) N-NO 30 0 min 0,0 UV-I 0 W/m 16,7 C 18,2 C 4,3 kts (2 Bft) 100,00 %
25.08.2019 00:12 18,5 C 90 % 1019,8 hPa 0,0 l/m 4,3 kts (2 Bft) N-NO 31 0 min 0,0 UV-I 0 W/m 16,8 C 17,8 C 5,2 kts (2 Bft) 100,00 %
25.08.2019 00:11 18,5 C 90 % 1019,8 hPa 0,0 l/m 3,7 kts (2 Bft) N-NO 26 0 min 0,0 UV-I 0 W/m 16,8 C 18,3 C 4,3 kts (2 Bft) 100,00 %
25.08.2019 00:10 18,5 C 90 % 1019,8 hPa 0,0 l/m 3,5 kts (2 Bft) N-NO 26 0 min 0,0 UV-I 0 W/m 16,8 C 18,5 C 4,3 kts (2 Bft) 100,00 %
25.08.2019 00:09 18,6 C 90 % 1019,8 hPa 0,0 l/m 3,7 kts (2 Bft) N-NO 26 0 min 0,0 UV-I 0 W/m 16,9 C 18,4 C 4,3 kts (2 Bft) 100,00 %
25.08.2019 00:08 18,5 C 90 % 1019,8 hPa 0,0 l/m 4,2 kts (2 Bft) N-NO 26 0 min 0,0 UV-I 0 W/m 16,8 C 17,9 C 5,2 kts (2 Bft) 100,00 %
25.08.2019 00:07 18,6 C 90 % 1019,8 hPa 0,0 l/m 4,4 kts (2 Bft) N-NO 33 0 min 0,0 UV-I 0 W/m 16,9 C 17,8 C 5,2 kts (2 Bft) 100,00 %
25.08.2019 00:06 18,5 C 90 % 1019,8 hPa 0,0 l/m 4,0 kts (2 Bft) N-NO 31 0 min 0,0 UV-I 0 W/m 16,8 C 18,0 C 5,2 kts (2 Bft) 96,15 %
25.08.2019 00:05 18,5 C 90 % 1019,8 hPa 0,0 l/m 3,9 kts (2 Bft) N-NO 30 0 min 0,0 UV-I 0 W/m 16,8 C 18,1 C 4,3 kts (2 Bft) 100,00 %
25.08.2019 00:04 18,5 C 90 % 1019,9 hPa 0,0 l/m 3,9 kts (2 Bft) N-NO 32 0 min 0,0 UV-I 0 W/m 16,8 C 18,1 C 4,3 kts (2 Bft) 100,00 %
25.08.2019 00:03 18,4 C 90 % 1019,9 hPa 0,0 l/m 4,5 kts (2 Bft) N-NO 31 0 min 0,0 UV-I 0 W/m 16,7 C 17,5 C 5,2 kts (2 Bft) 100,00 %
25.08.2019 00:02 18,4 C 90 % 1019,9 hPa 0,0 l/m 4,4 kts (2 Bft) NO 37 0 min 0,0 UV-I 0 W/m 16,7 C 17,6 C 5,2 kts (2 Bft) 100,00 %
25.08.2019 00:01 18,4 C 90 % 1019,8 hPa 0,0 l/m 5,0 kts (2 Bft) NO 37 0 min 0,0 UV-I 0 W/m 16,7 C 17,1 C 6,1 kts (2 Bft) 94,74 %
25.08.2019 00:00 18,4 C 90 % 1019,9 hPa 0,0 l/m 5,1 kts (2 Bft) NO 44 0 min 0,0 UV-I 0 W/m 16,7 C 17,1 C 6,1 kts (2 Bft) 100,00 %
_ Min-Zeit 03:25 16:52 16:48 - 17:28 - - - - - 06:36 03:51 01:44 05:10
Minimum _ 16,4 C 65 % 1018,8 hPa - 1,1 kts (1 Bft) - - - - - 15,4 C 13,0 C 2,6 kts (1 Bft) 83,33 %
_ Max-Zeit 15:01 03:05 09:54 00:00 10:16 - - 08:54 12:42 13:04 15:13 14:37 15:33 00:00
Maximum _ 25,2 C 97 % 1020,8 hPa 0,0 l/m 13,3 kts
O (4 Bft)
- - 2 min 4,6 UV-I 882 W/m 19,5 C 25,0 C 20,8 kts
O-SO (5 Bft)
100,00 %
Durchschnitt _ 20,6 C 82 % 1019,7 hPa #0,0 l/m 5,7 kts (2 Bft) NO - #9:34 h 2,6 UV-I 375 W/m 17,2 C 19,3 C 8,2 kts (3 Bft) 98,91 %